     2              OBSERVATION DATA    GPS                 RINEX VERSION / TYPE
TurboRhino 92 8 25 15 38 34                                 PGM / RUN BY / DATE
TurboRogue rinex formatter V1.0                             COMMENT
troy                                                        MARKER NAME
GF OBSERVER/AGENCY 111 0TurboRogue Fri 08/21 16:28:52       REC # / TYPE / VERS
111 0D. AND M. C146-6-1                                     ANT # / TYPE
        1.5000        0.0000        0.0000                  ANTENNA: DELTA H/E/N
 -2341103.0000 -4689265.0000  3623535.0000                  APPROX POSITION XYZ
    30                                                      INTERVAL
                                                            COMMENT
PANGA GPS Data Analysis Center                              COMMENT
Department of Geology                                       COMMENT
Central Washington University                               COMMENT
Ellensburg, WA 98926                                        COMMENT
                                                            COMMENT
http://www.panga.cwu.edu                                    COMMENT
ftp://panga.cwu.edu                                         COMMENT
                                                            COMMENT
     1     1                                                WAVELENGTH FACT L1/2
     5    C1    L1    L2    P1    P2                        # / TYPES OF OBSERV
    92     8    21    18    34    0.0000000                 TIME OF FIRST OBS
    92     8    22     3    54   30.0000000                 TIME OF LAST OBS
                                                            END OF HEADER
 92  8 21 18 34  0.0000000  0  6 12 20 16 13 03 24
  21472686.67216        -0.80616        -0.60019  21472555.37916  21472558.79116
  22875732.55516        -0.00016        -0.89019  22875600.75916  22875603.75216
  23441162.84416        -0.56116        -0.18519  23441030.59816  23441036.42416
  23072460.72416        -0.42716        -0.10119  23072329.70116  23072333.21816
  25681511.75916        -0.77516        -0.07319  25681379.93516  25681387.66616
  20433497.93016         0.22816         0.20119  20433366.22316  20433368.04516
 92  8 21 18 34 30.0000000  0  5 12 20 16 13 24
  21484011.89906     59513.52406     46374.16109  21483880.63706  21483884.07606
  22858859.74006    -88662.74406    -69088.70409  22858728.43806  22858731.21406
  23424594.64306    -87068.01406    -67844.82609  23424462.11806  23424467.97406
  23086234.89506     72381.46706     56401.34509  23086103.59706  23086107.05906
  20438967.35106     28741.79906     22396.22909  20438835.60306  20438837.44006
 92  8 21 18 35  0.0000000  0  5 12 20 16 13 24
  21495479.97806    119778.55206     93333.87809  21495348.70606  21495352.11906
  22842059.06606   -176952.10706   -137885.56209  22841927.39906  22841930.54906
  23408084.89906   -173824.59006   -135447.22209  23407952.90206  23407958.61806
  23100045.71406    144959.07806    112955.26209  23099914.46406  23099918.44406
  20444560.64606     58135.06206     45300.06909  20444428.93606  20444430.70206
 92  8 21 18 35 30.0000000  0  6 12 20 16 13 03 24
  21507093.93906    180810.27806    140891.02709  21506962.72806  21506966.05806
  22825333.11106   -264847.50906   -206375.43209  22825201.57806  22825204.79406
  23391637.52806   -260255.49306   -202795.85509  23391505.61306  23391511.28306
  23113898.02506    217750.32106    169675.65609  23113766.45306  23113770.15806
  25643242.47916        -0.72516        -0.16219  25643111.08816  25643118.53816
  20450282.73106     88204.90806     68731.11709  20450151.01006  20450152.77606
 92  8 21 18 36  0.0000000  0  6 12 20 16 13 03 24
  21518855.58406    242617.38206    189052.36609  21518724.28206  21518727.65206
  22808684.05506   -352335.90206   -274548.14009  22808552.76406  22808555.78706
  23375255.41906   -346344.43406   -269878.01809  23375123.42906  23375129.07406
  23127792.21406    290765.96006    226570.90909  23127660.81206  23127664.34706
  25630607.35406    -66396.92106    -51737.46609  25630475.91106  25630483.48006
  20456136.70306    118967.71706     92702.13609  20456004.97906  20456006.77006
 92  8 21 18 36 30.0000000  0  6 12 20 16 13 03 24
  21530766.47906    305209.86506    237825.69009  21530635.30306  21530638.68906
  22792116.40906   -439402.66206   -342392.33609  22791984.81306  22791987.68106
  23358943.59906   -432063.88806   -336672.26909  23358811.44606  23358817.03506
  23141730.71706    364016.87706    283649.51009  23141599.79706  23141603.65906
  25618037.87006   -132453.64406   -103210.21809  25617905.98806  25617913.05106
  20462125.36806    150438.58706    117224.89509  20461993.61006  20461995.40106
 92  8 21 18 37  0.0000000  0  6 12 20 16 13 03 24
  21542828.16006    368593.58506    287215.56109  21542696.82106  21542700.27706
  22775629.83606   -526037.72006   -409900.11209  22775498.39906  22775501.94706
  23342703.60906   -517404.81906   -403171.56109  23342571.50806  23342577.01306
  23155716.23706    437511.24906    340917.76709  23155585.50906  23155589.92406
  25605531.38806   -198163.48406   -154412.59109  25605401.32306  25605409.86506
  20468250.73206    182627.44206    142307.12409  20468118.95906  20468120.78806
 92  8 21 18 37 30.0000000  0  6 12 20 16 13 03 24
  21555041.71906    432775.95306    337227.75609  21554910.33506  21554913.83606
  22759228.35406   -612229.43006   -477062.40609  22759096.77406  22759099.74406
  23326539.06906   -602348.90206   -469361.62509  23326407.09306  23326412.60906
  23169750.55506    511257.67706    398382.46709  23169619.44006  23169622.98706
  25593096.73306   -263516.97206   -205337.28509  25592965.20506  25592972.89106
  20474512.43506    215532.91706    167947.75709  20474380.71106  20474382.52606
 92  8 21 18 38  0.0000000  0  6 12 20 16 13 03 24
  21567406.45606    497753.16006    387859.30109  21567275.16506  21567278.67106
  22742911.17106   -697976.56106   -543878.33109  22742779.71606  22742782.35206
  23310450.09306   -686896.18306   -535242.48609  23310318.22206  23310323.70006
  23183831.06906    585254.32606    456042.14509  23183700.22006  23183703.81406
  25580727.45206   -328516.08806   -255985.87609  25580595.97806  25580603.78106
  20480909.58906    249149.61706    194142.59009  20480777.77106  20480779.55806
 92  8 21 18 38 30.0000000  0  6 12 20 16 13 03 24
  21579922.86006    563526.63006    439111.31209  21579791.50306  21579794.97106
  22726679.55006   -783273.16406   -610343.15309  22726548.12506  22726551.34306
  23294436.31706   -771046.85906   -600814.29809  23294304.72706  23294310.08406
  23197960.19606    659503.73406    513898.75109  23197829.28906  23197833.23806
  25568426.56206   -393157.70206   -306355.90509  25568295.11906  25568303.06206
  20487443.70106    283486.99706    220898.99609  20487311.95206  20487313.74606
 92  8 21 18 39  0.0000000  0  6 12 20 16 13 03 24
  21592589.20606    630088.74306    490977.85109  21592457.88506  21592461.38806
  22710533.40406   -868121.77006   -676458.87409  22710401.91606  22710405.12806
  23278498.17206   -854802.76006   -666078.49909  23278366.40906  23278371.76406
  23212137.05006    734000.84706    571948.37709  23212005.91906  23212009.91006
  25556192.82006   -457447.30006   -356451.65109  25556060.94806  25556068.58006
  20494112.99206    318534.51906    248208.75709  20493981.26606  20493983.06806
 92  8 21 18 39 30.0000000  0  5 12 20 16 13 24
  21605405.29906    697437.89306    543457.66509  21605273.98606  21605277.50806
  22694473.54906   -952519.96106   -742223.64209  22694341.75806  22694344.42906
  23262636.92106   -938153.45906   -731026.95109  23262505.16706  23262510.63306
  23226360.28306    808745.76306    630191.11509  23226229.35406  23226233.85006
  20500916.65206    354287.30606    276068.07609  20500784.84406  20500786.60106
 92  8 21 18 40  0.0000000  0  5 12 20 16 13 24
  21618369.19206    765563.73406    596542.69209  21618237.95506  21618241.52206
  22678497.42806  -1036473.16806   -807641.68009  22678365.75806  22678368.58606
  23246852.90406  -1021098.20906   -795659.06609  23246721.20706  23246726.65806
  23240627.85806    883730.10206    688620.40009  23240497.79406  23240502.11806
  20507853.11906    390739.20506    304472.15709  20507721.42106  20507723.15006
 92  8 21 18 40 30.0000000  0  6 12 20 16 13 03 24
  21631480.94106    834465.51506    650232.34509  21631349.61206  21631353.16806
  22662606.68906  -1119977.45406   -872709.89209  22662475.15806  22662478.31806
  23231148.06206  -1103628.61106   -859968.32409  23231016.12206  23231021.44606
  23254945.06606    958955.01006    747237.16509  23254813.63106  23254817.04206
  25519888.65216        -0.23116        -0.28019  25519757.08316  25519764.91916
  20514920.52106    427878.45106    333411.83109  20514788.79006  20514790.54006
 92  8 21 18 41  0.0000000  0  6 12 20 16 13 03 24
  21644735.28306    904117.40006    704506.49509  21644603.92306  21644607.52306
  22646798.41006  -1203054.17706   -937444.93409  22646666.53206  22646669.44006
  23215517.77006  -1185765.77406   -923971.16309  23215385.76506  23215391.07006
  23269300.86906   1034396.17706    806022.46109  23269169.59506  23269173.93206
  25507913.59406    -62927.32906    -49034.29809  25507781.93706  25507790.55506
  20522110.43406    465661.52206    362853.18609  20521978.66206  20521980.40306
 92  8 21 18 41 30.0000000  0  6 12 20 16 13 03 24
  21658130.51306    974509.88106    759357.73309  21657999.23006  21658002.83606
  22631069.21906  -1285708.03006  -1001850.48409  22630937.74106  22630940.54106
  23199962.19306  -1267511.72606   -987669.16909  23199829.96306  23199835.00506
  23283695.65006   1110046.19406    864970.44409  23283564.79206  23283569.24006
  25495997.92406   -125540.69406    -97823.76709  25495866.55706  25495874.60406
  20529422.88006    504089.01506    392796.68609  20529291.15106  20529292.93406
 92  8 21 18 42  0.0000000  0  6 12 20 16 13 03 24
  21671663.15006   1045624.01906    814771.29909  21671531.92806  21671535.47706
  22615418.32806  -1367953.03706  -1065937.44609  22615286.88706  22615289.90506
  23184479.39706  -1348872.53206  -1051067.07509  23184347.44706  23184352.32006
  23298128.51706   1185888.59806    924068.34409  23297997.50706  23298001.01006
  25484139.83006   -187857.12906   -146381.93909  25484008.67106  25484016.21006
  20536858.16906    543161.72606    423242.95409  20536726.45406  20536728.24606
 92  8 21 18 42 30.0000000  0  6 12 20 16 13 03 24
  21685331.32006   1117449.84506    870739.42909  21685199.98606  21685203.51406
  22599845.06206  -1449794.29606  -1129709.80209  22599713.40806  22599716.18806
  23169067.06106  -1429865.61006  -1114178.45709  23168935.01106  23168939.53106
  23312596.51506   1261914.87706    983309.56609  23312465.09706  23312468.92606
  25472336.46806   -249884.58406   -194714.91309  25472205.01406  25472212.51206
  20544416.54006    582880.87506    454192.93909  20544284.79306  20544286.59206
 92  8 21 18 43  0.0000000  0  6 12 20 16 13 03 24
  21699131.58706   1189970.96006    927249.34409  21699000.24206  21699003.83406
  22584345.06006  -1531243.42306  -1193176.60209  22584213.70306  22584216.56906
  23153722.44106  -1510501.98006  -1177011.89709  23153590.41906  23153595.16206
  23327095.79206   1338111.07306   1042683.17509  23326964.38406  23326969.00706
  25460585.31706   -311637.59606   -242833.96509  25460453.79406  25460461.93306
  20552098.01406    623247.29406    485647.29009  20551966.29506  20551968.06206
 92  8 21 18 43 30.0000000  0  6 12 20 16 13 03 24
  21713063.50506   1263184.13306    984298.52209  21712932.24606  21712935.87406
  22568921.12206  -1612298.78206  -1256336.57109  22568789.50506  22568792.33706
  23138445.12006  -1590786.13106  -1239570.87609  23138312.82406  23138317.47406
  23341627.33806   1414476.21406   1102188.38809  23341496.29606  23341500.94506
  25448885.85206   -373117.38906   -290740.11009  25448754.27406  25448762.44706
  20559904.23706    664268.95806    517612.22209  20559772.45006  20559774.25306
 92  8 21 18 44  0.0000000  0  6 12 20 16 13 03 24
  21727126.18506   1337083.09706   1041882.08109  21726994.83606  21726998.47606
  22553571.33206  -1692961.95606  -1319190.94109  22553439.83306  22553442.79406
  23123231.37606  -1670733.55906  -1301867.46709  23123099.15906  23123103.96106
  23356190.69306   1491006.13606   1161822.02509  23356059.69606  23356063.57306
  25437237.75306   -434328.00106   -338436.53509  25437106.67806  25437114.04506
  20567832.43906    705931.59806    550076.61309  20567700.58906  20567702.34806
 92  8 21 18 44 30.0000000  0  6 12 20 16 13 03 24
  21741315.75806   1411649.48006   1099985.70709  21741184.42106  21741188.00106
  22538293.55406  -1773246.29406  -1381750.11509  22538162.01406  22538164.90306
  23108076.02906  -1750373.89206  -1363924.76309  23107944.13906  23107948.95706
  23370782.83306   1567684.31906   1221571.22409  23370651.61306  23370655.13406
  25425637.66006   -495285.77706   -385935.94409  25425506.46606  25425513.60406
  20575875.68906    748199.64906    583012.75409  20575743.90506  20575745.68706
 92  8 21 18 45  0.0000000  0  6 12 20 16 13 03 24
  21755632.08106   1486881.92606   1158608.34509  21755500.73006  21755504.33006
  22523088.72506  -1853148.06106  -1444011.19909  22522957.34906  22522960.13106
  23092982.57506  -1829688.74106  -1425728.42109  23092850.72906  23092855.84506
  23385401.54006   1644511.44006   1281436.48609  23385270.66506  23385274.91906
  25414086.03406   -555990.05106   -433237.84009  25413954.66206  25413961.89806
  20584032.39306    791063.86406    616413.43609  20583900.73206  20583902.53406
 92  8 21 18 45 30.0000000  0  6 12 20 16 13 03 24
  21770072.81706   1562768.59706   1217740.76309  21769941.45906  21769945.15606
  22507955.00406  -1932674.61906  -1505979.89509  22507823.78106  22507826.66606
  23077950.30106  -1908684.30506  -1487283.28009  23077818.10406  23077823.36706
  23400048.00706   1721478.33906   1341410.58209  23399917.16006  23399921.46406
  25402580.99906   -616450.38606   -480349.60209  25402449.21906  25402456.89406
  20592299.34406    834506.63706    650264.94209  20592167.59606  20592169.40606
 92  8 21 18 46  0.0000000  0  6 12 20 16 13 03 24
  21784637.22406   1639305.38206   1277379.76309  21784505.97906  21784509.68006
  22492893.85106  -2011824.56906  -1567655.14709  22492762.19606  22492764.88706
  23062982.16906  -1987341.32306  -1548574.33109  23062850.08906  23062855.45806
  23414721.90606   1798582.59606   1401491.76209  23414590.37906  23414594.20106
  25391122.07606   -676668.79706   -527272.87309  25390990.74206  25390997.64706
  20600674.77606    878519.22306    684560.45909  20600542.96706  20600544.74706
 92  8 21 18 46 30.0000000  0  6 12 20 16 13 03 24
  21799325.42106   1716491.20806   1337524.50709  21799194.08506  21799197.69706
  22477904.15406  -2090594.19206  -1629034.02809  22477772.60606  22477775.45206
  23048083.08406  -2065636.28606  -1609583.26409  23047951.09106  23047956.31706
  23429419.81706   1875825.46706   1461680.97609  23429288.75206  23429292.39806
  25379708.04706   -736644.52206   -574007.07009  25379576.67506  25379584.24306
  20609159.11206    923104.76106    719302.43009  20609027.35306  20609029.10606
 92  8 21 18 47  0.0000000  0  6 12 20 16 13 03 24
  21814138.36506   1794333.30506   1398180.63409  21814007.00206  21814010.56406
  22462989.76406  -2168971.50706  -1690107.23609  22462857.99706  22462860.59306
  23033256.77506  -2143549.77006  -1670294.95309  23033124.63806  23033129.67506
  23444145.22806   1953216.77606   1521985.81809  23444015.09706  23444019.65506
  25368341.69606   -796368.10006   -620544.78709  25368211.30906  25368218.86106
  20617754.97606    968276.56406    754501.23109  20617623.21106  20617624.99406
 92  8 21 18 47 30.0000000  0  6 12 20 16 13 03 24
  21829074.99806   1872825.95306   1459343.68309  21828943.68906  21828947.29906
  22448149.60106  -2246956.89906  -1750875.03109  22448017.81206  22448020.82506
  23018502.64706  -2221082.64506  -1730710.07109  23018370.66106  23018375.50806
  23458901.35106   2030752.68506   1582403.36709  23458770.35406  23458774.73906
  25357025.80506   -855842.85006   -666888.60809  25356894.19206  25356901.45006
  20626460.27606   1014023.19806    790147.95309  20626328.52406  20626330.29606
 92  8 21 18 48  0.0000000  0  6 20 16 12 13 03 24
  22433382.92306  -2324557.26506  -1811342.81009  22433251.15306  22433253.63406
  23003819.16406  -2298244.67806  -1790836.23109  23003687.18206  23003691.80306
  21844133.17106   1951957.15806   1521004.30709  21844001.87806  21844005.59006
  23473682.36306   2108424.11606   1642926.44909  23473551.03606  23473555.51606
  25345753.43406   -915078.60506   -713046.25809  25345622.20506  25345629.09306
  20635273.64906   1060337.54006    826237.04209  20635141.89506  20635143.67006
 92  8 21 18 48 30.0000000  0  6 20 16 12 13 03 24
  22418686.96206  -2401781.35306  -1871517.40009  22418555.53906  22418558.29306
  22989201.59306  -2375062.02506  -1850693.81409  22989069.18506  22989073.71206
  21859310.21206   2031713.52406   1583152.06609  21859179.02606  21859182.78906
  23488485.93506   2186219.91106   1703546.47109  23488354.68006  23488359.41806
  25334524.19806   -974086.88006   -759026.61909  25334393.11906  25334400.09006
  20644192.11306   1107204.55606    862756.78609  20644060.37006  20644062.16506
 92  8 21 18 49  0.0000000  0  6 20 16 12 13 03 24
  22404063.74406  -2478631.50606  -1931400.59509  22403931.75106  22403934.43906
  22974646.80606  -2451545.98706  -1910291.62709  22974514.69006  22974519.06506
  21874605.02106   2112087.38406   1645780.98709  21874473.72006  21874477.46806
  23503311.63106   2264134.13406   1764258.75609  23503181.18506  23503184.86006
  25323337.41206  -1032872.86206   -804833.78609  25323205.83006  25323213.18206
  20653212.96306   1154609.18506    899695.44909  20653081.24706  20653083.03606
 92  8 21 18 49 30.0000000  0  6 20 16 12 13 03 24
  22389508.04306  -2555119.19406  -1991001.35409  22389376.41606  22389378.93406
  22960151.72206  -2527717.62806  -1969646.07409  22960019.60306  22960024.13606
  21890014.00006   2193062.04606   1708878.06909  21889882.70706  21889886.53606
  23518159.96006   2342152.81806   1825052.54709  23518028.51806  23518032.10406
  25312190.89206  -1091451.35406   -850479.24309  25312059.10406  25312066.29406
  20662332.52506   1202532.25606    937038.09309  20662200.72606  20662202.53106
 92  8 21 18 50  0.0000000  0  6 20 16 12 13 03 24
  22375021.76006  -2631245.60906  -2050320.61309  22374890.11606  22374892.80506
  22945712.63806  -2603594.07406  -2028770.48809  22945580.59106  22945585.32006
  21905536.14406   2274630.99606   1772438.22709  21905404.81406  21905408.66606
  23533025.69706   2420272.15106   1885924.69609  23532894.33306  23532897.44106
  25301082.19506  -1149826.08106   -895965.97509  25300950.73206  25300957.85006
  20671551.47006   1250978.55706    974788.44909  20671419.76406  20671421.56006
 92  8 21 18 50 30.0000000  0  6 20 16 12 13 03 24
  22360601.38006  -2707024.71506  -2109369.21509  22360469.73706  22360472.47506
  22931328.42206  -2679182.38106  -2087670.37809  22931196.44906  22931201.25306
  21921167.69106   2356775.14306   1836446.59009  21921036.39506  21921040.27306
  23547905.66106   2498475.14006   1946862.01409  23547775.02906  23547780.30206
  25290009.13406  -1208014.10006   -941307.18109  25289877.65706  25289884.97806
  20680863.83506   1299915.12506   1012920.82709  20680732.02406  20680733.81306
 92  8 21 18 51  0.0000000  0  6 20 16 12 13 03 24
  22346243.80206  -2782474.96806  -2168161.60109  22346112.12106  22346114.51006
  22916998.45306  -2754487.93206  -2146349.93409  22916866.30306  22916871.07806
  21936904.30506   2439471.07006   1900884.91309  21936773.02006  21936776.79106
  23562799.96106   2576740.58706   2007847.98709  23562668.85406  23562673.01906
  25278967.39006  -1266036.85806   -986519.63909  25278836.10606  25278843.52806
  20690267.22506   1349330.19506   1051426.06509  20690135.45906  20690137.23906
 92  8 21 18 51 30.0000000  0  6 20 16 12 13 03 24
  22331949.49106  -2857591.16806  -2226693.67009  22331817.82806  22331820.70106
  22902723.45306  -2829503.81306  -2204803.76609  22902591.24306  22902596.00506
  21952745.90906   2522718.73006   1965753.15909  21952614.52006  21952618.33906
  23577706.13006   2655071.67306   2068885.11009  23577575.03306  23577579.43906
  25267958.88006  -1323891.82506  -1031601.32909  25267826.94106  25267833.75506
  20699763.22206   1399232.25406   1090310.76909  20699631.45506  20699633.25106
 92  8 21 18 52  0.0000000  0  6 20 16 12 13 03 24
  22317719.96406  -2932368.42106  -2284961.61809  22317588.26806  22317590.89306
  22888508.64406  -2904203.70706  -2263011.38209  22888376.42306  22888381.02306
  21968692.21706   2606517.59606   2031050.91209  21968560.92406  21968564.80706
  23592625.31306   2733470.46106   2129975.06709  23592493.94606  23592497.89206
  25256980.72906  -1381577.46606  -1076551.10609  25256849.40106  25256856.51106
  20709352.11706   1449622.44506   1129575.84209  20709220.38706  20709222.20406
 92  8 21 18 52 30.0000000  0  6 20 16 12 13 03 24
  22303555.78606  -3006800.79006  -2342960.83909  22303424.23006  22303426.80206
  22874359.97506  -2978555.37606  -2320947.65309  22874227.78006  22874232.43006
  21984743.82306   2690868.62906   2096778.92209  21984612.49806  21984616.33506
  23607557.21606   2811940.31406   2191120.31009  23607425.87806  23607430.93206
  25246036.67506  -1439090.38706  -1121366.29809  25245905.07906  25245911.82706
  20719034.72306   1500504.12006   1169223.88709  20718902.89906  20718904.69206
 92  8 21 18 53  0.0000000  0  6 20 16 12 13 03 24
  22289458.99306  -3080880.26006  -2400685.06409  22289327.33106  22289329.92906
  22860279.33006  -3052548.99306  -2378604.92509  22860147.28806  22860151.96306
  22000901.10106   2775774.50406   2162939.27909  22000769.64906  22000773.46006
  23622503.14206   2890486.05506   2252324.63809  23622372.54506  23622377.74206
  25235125.82306  -1496425.54406  -1166042.98509  25234994.62106  25235001.30706
  20728814.56406   1551896.75106   1209270.07609  20728682.67606  20728684.49706
 92  8 21 18 53 30.0000000  0  6 20 16 12 13 03 24
  22275429.32206  -3154606.99006  -2458134.44609  22275297.68606  22275300.22406
  22846266.45406  -3126184.99806  -2435983.53509  22846134.60506  22846139.30206
  22017162.62406   2861229.84506   2229527.79109  22017031.26806  22017035.11406
  23637464.89706   2969105.17006   2313586.25009  23637333.71606  23637338.01606
  25224248.76706  -1553586.20706  -1210583.71409  25224117.23006  25224124.06806
  20738687.72906   1603781.44606   1249699.69809  20738555.95106  20738557.79306
 92  8 21 18 54  0.0000000  0  6 20 16 12 13 03 24
  22261466.12506  -3227982.84706  -2515310.40009  22261334.61006  22261337.24906
  22832322.37106  -3199460.68306  -2493081.38509  22832190.55706  22832195.20006
  22033527.14606   2947227.09106   2296538.56709  22033395.97706  22033399.90206
  23652439.47906   3047793.14106   2374901.42809  23652308.17206  23652311.37906
  25213403.94006  -1610577.16406  -1254992.17109  25213272.22506  25213279.22506
  20748652.37806   1656146.63206   1290503.72409  20748520.72706  20748522.52006
 92  8 21 18 54 30.0000000  0  6 20 16 12 13 03 24
  22247570.01606  -3301009.63806  -2572214.37609  22247438.19506  22247440.64306
  22818443.80606  -3272392.29106  -2549911.12009  22818311.95506  22818316.64706
  22049993.97406   3033759.42106   2363966.29009  22049862.55206  22049866.54106
  23667424.50606   3126545.55406   2436266.95209  23667293.65606  23667297.49406
  25202589.94106  -1667403.32306  -1299272.24809  25202458.25106  25202465.29606
  20758707.17306   1708983.66406   1331675.42309  20758575.35006  20758577.21906
 92  8 21 18 55  0.0000000  0  6 20 16 12 13 03 24
  22233737.04006  -3373700.59106  -2628856.63909  22233605.34506  22233608.08806
  22804623.66906  -3345016.76606  -2606501.53009  22804491.74406  22804496.50206
  22066558.86306   3120808.29506   2431796.51309  22066427.45906  22066431.48806
  23682419.60806   3205346.54306   2497670.23309  23682288.85506  23682292.81306
  25191804.29406  -1724080.91106  -1343436.50209  25191672.79806  25191680.15206
  20768847.36606   1762270.85606   1373197.89409  20768715.59406  20768717.41406
 92  8 21 18 55 30.0000000  0  6 20 16 12 13 03 24
  22219966.77106  -3446065.05006  -2685244.50809  22219834.95206  22219837.36706
  22790858.21506  -3417353.80906  -2662867.96909  22790726.43306  22790731.13006
  22083219.16206   3208359.01906   2500017.78409  22083087.92606  22083091.94706
  23697422.18706   3284184.18906   2559102.07009  23697291.31706  23697296.79806
  25181044.06806  -1780621.93106  -1387494.38909  25180913.03406  25180920.31006
  20779070.62106   1815993.89106   1415059.98409  20778938.74306  20778940.53706
 92  8 21 18 56  0.0000000  0  6 20 16 12 13 03 24
  22206255.44806  -3518115.79406  -2741387.91609  22206124.02406  22206126.78406
  22777143.13406  -3489427.92806  -2719029.53309  22777011.17006  22777015.85206
  22099971.63206   3296393.45506   2568615.97009  22099840.38906  22099844.47406
  23712429.75006   3363042.63506   2620550.08909  23712298.10406  23712302.33706
  25170308.41306  -1837042.29506  -1431458.20609  25170176.82806  25170184.02706
  20789377.13306   1870155.71906   1457263.98909  20789245.43606  20789247.19706
 92  8 21 18 56 30.0000000  0  6 20 16 12 13 03 24
  22192603.06406  -3589862.08806  -2797294.09109  22192471.23706  22192473.87306
  22763475.77506  -3561251.70006  -2774996.03109  22763343.63706  22763348.20706
  22116813.34606   3384896.65606   2637579.42809  22116682.08306  22116686.07206
  23727436.71906   3441910.14406   2682005.28209  23727305.74506  23727310.33806
  25159592.46506  -1893354.62906  -1475337.89809  25159461.02706  25159467.94806
  20799765.73706   1924747.17006   1499802.76309  20799633.81606  20799635.63706
 92  8 21 18 57  0.0000000  0  6 20 16 12 13 03 24
  22179006.21806  -3661312.47706  -2852969.69009  22178874.60906  22178877.25406
  22749855.40806  -3632827.43506  -2830769.25509  22749723.26106  22749727.75006
  22133741.68806   3473854.98006   2706897.53209  22133610.31706  22133614.27206
  23742444.32906   3520775.35006   2743458.58009  23742313.22306  23742317.08406
  25148895.46006  -1949569.96906  -1519142.01009  25148763.86606  25148770.41906
  20810233.02006   1979753.43706   1542664.77109  20810101.15206  20810102.99806
 92  8 21 18 57 30.0000000  0  6 20 16 12 13 03 24
  22165464.66206  -3732473.70506  -2908419.97209  22165333.06906  22165335.65706
  22736283.87906  -3704146.02606  -2886342.10609  22736151.68106  22736156.21606
  22150754.23206   3563256.45306   2776560.94209  22150622.93306  22150626.85606
  23757449.36306   3599629.31606   2804903.21509  23757318.61206  23757324.36406
  25138213.99206  -2005698.06706  -1562878.11509  25138082.62306  25138089.74706
  20820776.37506   2035159.41206   1585838.23709  20820644.61206  20820646.44906
 92  8 21 18 58  0.0000000  0  7 20 16 12 13 03 25 24
  22151977.25306  -3803350.96406  -2963648.98309  22151845.58306  22151848.13306
  22722762.15606  -3775202.33806  -2941710.58109  22722630.03106  22722634.45806
  22167849.09506   3653090.30806   2846561.27609  22167717.84006  22167721.77106
  23772452.85806   3678464.31206   2866332.93809  23772321.48306  23772326.21706
  25127547.49606  -2061747.32806  -1606552.76509  25127416.64806  25127423.89306
  25738344.24416         0.48516         0.01219  25738212.61216  25738216.33416
  20831392.20106   2090945.56706   1629307.94709  20831260.36406  20831262.18906
 92  8 21 18 58 30.0000000  0  7 20 16 12 13 03 25 24
  22138544.73006  -3873937.78206  -3018651.67309  22138413.33206  22138415.91606
  22709294.45306  -3845975.32806  -2996858.28409  22709162.38606  22709166.73906
  22185026.46806   3743357.59106   2916899.34409  22184895.15506  22184899.25306
  23787450.91606   3757284.37406   2927751.12209  23787319.79206  23787324.92306
  25116898.19306  -2117714.15206  -1650163.20509  25116766.49206  25116773.57906
  25727168.26006    -58729.99006    -45764.08009  25727036.71406  25727040.28106
  20842077.60906   2147097.43506   1673062.62909  20841945.72706  20841947.54106
 92  8 21 18 59  0.0000000  0  7 20 16 12 13 03 25 24
  22125168.26206  -3944232.07206  -3073426.41909  22125036.77906  22125039.34706
  22695879.12206  -3916472.58606  -3051791.13109  22695747.08206  22695751.41206
  22202285.78806   3834054.82106   2987572.42809  22202154.30106  22202158.44906
  23802446.97706   3836088.42506   2989156.73509  23802315.57606  23802320.97106
  25106263.04106  -2173599.89506  -1693710.45109  25106131.78806  25106138.70006
  25716066.74906   -117066.41306    -91221.09809  25715935.70406  25715939.39006
  20852833.15106   2203618.84206   1717105.26609  20852701.37606  20852703.21406
 92  8 21 18 59 30.0000000  0  6 20 16 12 13 03 24
  22111845.85606  -4014241.98306  -3127979.56409  22111714.27106  22111716.87806
  22682512.84706  -3986711.84406  -3106522.93609  22682380.97906  22682385.25606
  22219623.84806   3925168.14906   3058569.74209  22219492.55806  22219496.81506
  23817438.04706   3914865.78506   3050541.63209  23817306.75606  23817310.22206
  25095641.91406  -2229415.36806  -1737202.96709  25095510.55206  25095517.11306
  20863658.48206   2260506.30306   1761433.13809  20863526.71406  20863528.55906
 92  8 21 19  0  0.0000000  0  6 20 16 12 13 03 24
  22098575.78906  -4083975.57306  -3182317.40709  22098444.40406  22098446.81606
  22669192.84206  -4056709.51506  -3161066.48709  22669060.76406  22669065.07506
  22237039.02506   4016684.18606   3129880.85309  22236907.67806  22236911.81106
  23832420.99306   3993605.57906   3111897.26809  23832290.28306  23832294.46306
  25085031.77906  -2285171.79306  -1780649.46609  25084900.43906  25084907.35506
  20874552.73406   2317756.05206   1806043.31109  20874421.00006  20874422.86206
 92  8 21 19  0 30.0000000  0  7 20 16 12 13 03 25 24
  22085358.01306  -4153435.58106  -3236442.06309  22085226.56406  22085229.18906
  22655918.04706  -4126468.21206  -3215423.82709  22655786.01406  22655790.25106
  22254529.04406   4108594.75806   3201499.39909  22254397.72806  22254401.88006
  23847397.84906   4072302.92706   3173219.81109  23847266.14806  23847270.60906
  25074430.98006  -2340874.90106  -1824054.39509  25074300.12106  25074307.41106
  25683197.59116        -0.92316        -0.40119  25683066.36416  25683069.88916
  20885516.99606   2375372.74906   1850939.41809  20885385.16706  20885386.98006
 92  8 21 19  1  0.0000000  0  7 20 16 12 13 03 25 24
  22072178.84506  -4222694.86206  -3290410.30009  22072047.09606  22072049.57606
  22642674.67706  -4196062.51606  -3269653.06709  22642542.66206  22642546.86106
  22272079.53006   4200821.34606   3273364.19709  22271948.02706  22271952.14506
  23862348.52206   4150882.32306   3234450.40009  23862218.29206  23862224.43306
  25063827.65006  -2396600.62006  -1867476.93309  25063695.81706  25063703.20206
  25672370.83306    -56898.44106    -44336.28609  25672239.04106  25672242.49706
  20896536.56606   2433280.90406   1896062.64409  20896404.75406  20896406.61106
 92  8 21 19  1 30.0000000  0  6 20 16 12 13 03 24
  22058998.31906  -4291957.83206  -3344381.42909  22058866.72206  22058869.21606
  22629426.29206  -4265681.79606  -3323901.77709  22629294.56706  22629298.69206
  22289649.72806   4293154.05406   3345311.67809  22289518.40206  22289522.52706
  23877241.43706   4229136.73006   3295427.75609  23877110.51306  23877116.35106
  25053179.41206  -2452556.34006  -1911078.72909  25053048.08406  25053054.81506
  20907567.63406   2491250.03806   1941233.37909  20907435.86506  20907437.78606
 92  8 21 19  2  0.0000000  0  7 20 16 12 13 03 25 24
  22045860.24306  -4360998.96006  -3398179.68109  22045728.61106  22045731.07006
  22616218.08506  -4335091.42106  -3377987.11909  22616086.23906  22616090.42806
  22307282.10006   4385813.10206   3417513.45309  22307150.81906  22307155.05006
  23892114.13806   4307289.40006   3356325.78609  23891983.04006  23891987.85706
  25042529.18906  -2508519.79106  -1954686.54909  25042398.15506  25042405.38606
  25650810.33616         0.30216         0.08119  25650678.52716  25650682.56516
  20918651.94806   2549498.21806   1986621.55409  20918520.15206  20918522.08506
 92  8 21 19  2 30.0000000  0  7 20 16 12 13 03 25 24
  22032767.83806  -4429799.83406  -3451790.73509  22032636.24306  22032638.70606
  22603053.93106  -4404270.54506  -3431892.84409  22602921.83706  22602926.22406
  22324979.05206   4478810.96406   3489979.23209  22324847.72306  22324852.03406
  23906970.99906   4385355.56006   3417156.50209  23906839.29306  23906842.87906
  25031881.52006  -2564475.25606  -1998288.12609  25031750.22206  25031757.35206
  25640127.05406    -56139.80306    -43745.51809  25639995.56006  25639999.23906
  20929789.34506   2608025.69506   2032227.35909  20929657.61506  20929659.56506
 92  8 21 19  3  0.0000000  0  7 20 16 12 13 03 25 24
  22019721.41506  -4498358.80606  -3505213.28209  22019589.90906  22019592.45206
  22589933.59206  -4473218.26606  -3485618.25609  22589801.50506  22589805.88406
  22342739.85906   4572144.16306   3562706.31009  22342608.54506  22342612.84306
  23921809.73506   4463334.80806   3477919.49809  23921678.09006  23921681.57106
  25021234.83206  -2620424.25506  -2041884.70909  25021103.74106  25021110.16506
  25629511.08106   -111927.96206    -87216.84909  25629379.53306  25629383.25306
  20940976.84406   2666816.51906   2078038.37109  20940845.14506  20940847.14706
 92  8 21 19  3 30.0000000  4  1
 -2341103.0000 -4689265.0000  3623535.0000                  APPROX POSITION XYZ
 92  8 21 19  3 30.0000000  0  7 20 16 12 13 03 25 24
  22006721.18506  -4566674.54006  -3558446.29709  22006589.77706  22006592.27806
  22576857.14406  -4541935.47306  -3539164.05409  22576724.99806  22576729.23506
  22360563.66806   4665807.93006   3635690.97109  22360432.34106  22360436.63606
  23936631.25506   4541225.91506   3538613.85309  23936499.51406  23936504.00006
  25010589.19606  -2676368.64306  -2085477.67909  25010457.95906  25010464.47706
  25618963.05906   -167359.90306   -130410.64209  25618831.11606  25618835.07606
  20952214.61406   2725870.71806   2124054.60909  20952082.79406  20952084.73906
 92  8 21 19  4  0.0000000  0  7 20 16 12 13 03 25 24
  21993766.10006  -4634756.12206  -3611496.86209  21993634.27206  21993636.79906
  22563821.88606  -4610435.79006  -3592540.85009  22563689.84006  22563693.89706
  22378447.43606   4759787.95806   3708922.07409  22378316.16106  22378320.49406
  23951431.41206   4619017.38306   3599230.42209  23951301.57806  23951308.36606
  24999942.81106  -2732320.45906  -2129076.45509  24999810.95706  24999816.71206
  25608480.44906   -222445.78006   -173334.72009  25608348.66606  25608352.19306
  20963502.37406   2785188.48406   2170276.22509  20963370.63506  20963372.54106
 92  8 21 19  4 30.0000000  0  7 20 16 12 13 03 25 24
  21980853.17806  -4702612.16206  -3664371.67109  21980721.56906  21980724.26106
  22550827.09206  -4678724.60506  -3645752.84109  22550694.87606  22550698.87206
  22396388.71406   4854070.05806   3782388.55109  22396257.42606  22396261.73406
  23966216.13206   4696697.50106   3659760.27509  23966085.06806  23966090.29306
  24989291.13506  -2788291.20206  -2172690.00209  24989159.83406  24989166.12206
  25598062.18806   -277196.31206   -215997.52009  25597930.00406  25597933.61106
  20974837.60206   2844754.81706   2216691.52609  20974705.76206  20974707.71506
 92  8 21 19  5  0.0000000  0  7 24 20 16 12 13 03 25
  20986218.77706   2904563.01906   2263295.29809  20986086.92906  20986088.84206
  21967982.36906  -4770249.60006  -3717076.14909  21967850.67106  21967853.23206
  22537870.71106  -4746810.09706  -3698806.40409  22537738.54306  22537742.52606
  22414385.19706   4948641.56106   3856080.53609  22414253.89506  22414258.25506
  23980975.70006   4774257.20506   3720196.30509  23980844.55206  23980849.44306
  24978634.45706  -2844291.04106  -2216326.17309  24978503.06606  24978510.06606
  25587706.60606   -331614.26206   -258401.24909  25587574.71106  25587578.27306
 92  8 21 19  5 30.0000000  0  7 24 20 16 12 13 03 25
  20997646.56006   2964617.65506   2310091.09609  20997514.91406  20997516.82106
  21955150.91706  -4837677.65606  -3769617.46909  21955019.52106  21955022.03106
  22524950.26506  -4814705.66506  -3751711.96409  22524818.36306  22524822.46206
  22432434.25806   5043487.78306   3929986.59009  22432302.75806  22432307.04106
  23995709.83706   4851684.75006   3780529.38009  23995578.42106  23995582.30506
  24967970.61906  -2900332.09406  -2259994.47209  24967839.23006  24967845.60106
  25577413.07306   -385705.66806   -300550.46809  25577281.42406  25577285.24806
 92  8 21 19  6  0.0000000  0  7 24 20 16 12 13 03 25
  21009120.48606   3024912.90506   2357074.38509  21008988.70006  21008990.63006
  21942357.10606  -4904910.45006  -3822006.65009  21942225.56906  21942228.13606
  22512063.90206  -4882422.40906  -3804478.17609  22511932.10706  22511936.31806
  22450531.15306   5138588.72706   4004091.11909  22450399.87806  22450404.36506
  24010415.40006   4928963.61006   3840746.62109  24010284.19906  24010287.97606
  24957294.64406  -2956431.79206  -2303708.48809  24957163.24706  24957169.98706
  25567181.19906   -439475.66906   -342449.20809  25567049.58606  25567053.40206
 92  8 21 19  6 30.0000000  0  7 24 20 16 12 13 03 25
  21020635.01206   3085421.90306   2404224.23009  21020503.19906  21020505.09006
  21929595.54906  -4971972.24606  -3874262.57309  21929464.03606  21929466.65706
  22499207.60306  -4949983.09506  -3857122.78509  22499075.68206  22499079.99106
  22468671.36206   5233914.70006   4078371.00509  22468539.88406  22468544.34506
  24025087.38206   5006067.23806   3900827.28009  24024956.49906  24024961.44906
  24946602.94306  -3012617.29106  -2347489.34109  24946471.36106  24946478.22506
  25557006.55706   -492943.24806   -384112.33509  25556875.01206  25556878.70006
 92  8 21 19  7  0.0000000  0  7 24 20 16 12 13 03 25
  21032179.96006   3146090.35606   2451498.32609  21032048.12206  21032050.00606
  21916857.57306  -5038910.27706  -3926422.06609  21916726.18906  21916728.77406
  22486370.62206  -5017441.10906  -3909687.39009  22486238.76106  22486242.99606
  22486844.08606   5329412.44306   4152784.72009  22486712.56506  22486716.93206
  24039717.75006   5082945.01806   3960731.94509  24039586.25306  24039591.30506
  24935884.64206  -3068939.22206  -2391376.53109  24935753.53406  24935760.81406
  25546877.92606   -546170.64206   -425588.33309  25546746.27806  25546750.18506
 92  8 21 19  7 30.0000000  0  7 24 20 16 12 13 03 25
  21043745.65506   3206868.51606   2498857.90509  21043613.86506  21043615.79706
  21904134.53306  -5105771.32706  -3978521.56109  21904002.93706  21904005.46006
  22473546.09406  -5084834.66306  -3962201.76609  22473414.15806  22473418.35706
  22505039.33306   5425029.67306   4227291.55409  22504908.02306  22504912.46606
  24054293.49806   5159548.27606   4020422.68009  24054162.60406  24054168.89006
  24925131.52906  -3125447.08406  -2435408.57709  24925000.57206  24925007.57206
  25536781.39506   -599226.97406   -466930.96609  25536649.85606  25536653.95006
 92  8 21 19  8  0.0000000  0  7 24 20 16 12 13 03 25
  21055326.51406   3267726.68706   2546279.83409  21055194.78306  21055196.69206
  21891425.36206  -5172558.18706  -4030563.26509  21891293.81606  21891296.32006
  22460733.86406  -5152163.95906  -4014666.07509  22460601.82006  22460605.97906
  22523255.82006   5520758.01906   4301884.97709  22523124.49606  22523129.03706
  24068817.02906   5235872.16606   4079895.68709  24068686.29906  24068692.87406
  24914342.81706  -3182146.76106  -2479590.09309  24914211.12206  24914217.86706
  25526713.32006   -652134.27906   -508157.47709  25526582.13606  25526586.18006
 92  8 21 19  8 30.0000000  0  7 24 20 16 12 13 03 25
  21066922.42406   3328663.12006   2593762.74709  21066790.62706  21066792.53206
  21878734.99706  -5239247.86206  -4082529.22209  21878603.25806  21878605.73406
  22447937.07806  -5219411.59606  -4067066.75409  22447804.95006  22447809.04106
  22541496.98406   5616614.89706   4376578.53609  22541365.58706  22541370.21506
  24083293.98006   5311936.34606   4139166.38409  24083162.27206  24083166.55006
  24903520.46406  -3239018.21606  -2523905.46809  24903388.98406  24903395.45306
  25516674.62306   -704887.77706   -549264.16409  25516543.23206  25516547.49006
 92  8 21 19  9  0.0000000  0  7 24 20 16 12 13 03 25
  21078537.71606   3389702.10406   2641325.56709  21078405.98106  21078407.86506
  21866069.67906  -5305804.80006  -4134391.76009  21865937.90906  21865940.29206
  22435161.49406  -5286547.23006  -4119380.16409  22435029.36206  22435033.42506
  22559768.12306   5712629.86406   4451395.28709  22559636.72106  22559641.32106
  24097724.38406   5387774.19706   4198260.79009  24097593.24806  24097597.20606
  24892670.45506  -3296029.34706  -2568329.70009  24892539.96906  24892546.38706
  25506671.32106   -757456.42906   -590226.77009  25506540.07306  25506544.29506
 92  8 21 19  9 30.0000000  0  7 24 20 16 12 03 13 25
  21090184.12306   3450903.77506   2689015.15409  21090052.26006  21090054.18906
  21853439.66306  -5372173.92206  -4186107.93909  21853308.16106  21853310.68206
  22422417.69606  -5353516.87506  -4171564.23109  22422285.63506  22422289.47606
  22578078.91506   5808852.36006   4526373.74109  22577947.40306  22577951.90406
  24881806.38106  -3353127.97706  -2612822.08009  24881674.62006  24881680.91606
  24112122.48206   5463438.36506   4257219.78509  24111991.64106  24111996.35806
  25496714.70606   -809778.15406   -630996.97909  25496583.56906  25496587.80606
 92  8 21 19 10  0.0000000  0  7 24 20 16 12 03 13 25
  21101870.35406   3512314.61406   2736867.73109  21101738.37206  21101740.36006
  21840855.48306  -5438307.26406  -4237640.40309  21840723.55106  21840725.92006
  22409712.33106  -5420282.97606  -4223589.70209  22409580.36806  22409584.18106
  22596436.83206   5905324.76906   4601546.94909  22596305.48406  22596309.97506
  24870933.09206  -3410269.00106  -2657347.51809  24870801.30406  24870807.41206
  24126497.20206   5538974.90606   4316079.33609  24126366.14306  24126371.34206
  25486817.32106   -861790.48506   -671526.09209  25486685.67806  25486689.57106
 92  8 21 19 10 30.0000000  0  7 24 20 16 12 13 03 25
  21113603.37206   3573973.59506   2784913.66509  21113471.65606  21113473.68206
  21828322.01506  -5504168.30906  -4288960.67509  21828190.39406  21828192.99406
  22397051.80106  -5486815.03206  -4275432.79509  22396919.60906  22396923.56106
  22614848.33306   6002077.94606   4676938.93209  22614717.08106  22614721.60106
  24140854.14106   5614417.44906   4374865.62609  24140723.05706  24140727.71606
  24860057.81306  -3467419.17006  -2701880.07209  24859925.84306  24859931.88906
  25476989.93606   -913438.55206   -711771.44309  25476858.09806  25476861.74906
 92  8 21 19 11  0.0000000  0  7 24 20 16 12 13 03 25
  21125388.00906   3635902.10906   2833169.62609  21125256.32106  21125258.33106
  21815844.04606  -5569741.51606  -4340056.67809  21815712.34806  21815714.87106
  22384441.24206  -5553081.57806  -4327068.99009  22384309.31106  22384313.46606
  22633315.09106   6099121.81406   4752557.42409  22633183.98206  22633188.60206
  24155194.10006   5689778.95806   4433588.78509  24155063.15806  24155068.49206
  24849181.60006  -3524565.82506  -2746409.90009  24849050.68706  24849057.01106
  25467237.06706   -964688.49706   -751706.43909  25467105.27606  25467109.31506
 92  8 21 19 11 30.0000000  0  7 24 20 16 12 13 03 25
  21137222.66206   3698092.68906   2881629.79409  21137090.81606  21137092.81306
  21803419.62406  -5635031.30006  -4390931.81709  21803288.07506  21803290.57706
  22371883.60506  -5619073.37506  -4378491.09209  22371751.45606  22371755.55106
  22651835.73206   6196446.18206   4828394.48409  22651704.34306  22651709.01706
  24169518.37606   5765052.60806   4492243.46509  24169387.17906  24169392.57106
  24838306.90306  -3581716.21006  -2790942.61009  24838175.44906  24838181.50906
  25457559.58106  -1015544.61706   -791334.62209  25457427.80406  25457431.51906
 92  8 21 19 12  0.0000000  0  7 24 20 16 12 03 13 25
  21149102.62006   3760522.03206   2930276.00909  21148970.78206  21148972.77306
  21791049.46406  -5700038.17606  -4441586.51909  21790917.65406  21790920.15906
  22359379.10406  -5684784.73206  -4429694.67309  22359247.09306  22359251.06406
  22670408.20606   6294044.87906   4904445.29909  22670276.84406  22670281.60106
  24827430.59206  -3638874.14106  -2835481.21809  24827298.63706  24827304.72406
  24183824.13206   5840235.64606   4550827.56809  24183693.38506  24183698.91806
  25447957.49106  -1066002.27106   -830652.30809  25447825.89006  25447829.69906
 92  8 21 19 10 52.0000000  4  6
3057                                                        MARKER NAME
gwf vert height friday                                      OBSERVER / AGENCY
11TurboRogue                                                REC # / TYPE / VERS
        1.6016        0.0000        0.0000                  ANTENNA: DELTA H/E/N
 -2341103.0000 -4689265.0000  3623535.0000                  APPROX POSITION XYZ
Some data from this site may preceed this header.           COMMENT
 92  8 21 19 12 30.0000000  0  7 20 16 24 12 03 13 25
  21778733.04106  -5764760.25006  -4492019.29009  21778601.48606  21778603.93406
  22346931.39206  -5750198.60106  -4480666.45409  22346799.29606  22346803.12406
  21161026.64206   3823182.58006   2979102.38609  21160894.75906  21160896.71606
  22689032.36406   6391913.87706   4980706.74909  22688900.84206  22688905.61306
  24816551.88706  -3696040.90906  -2880026.67409  24816420.26306  24816426.30006
  24198113.58006   5915327.73306   4609340.74609  24197983.15806  24197989.02406
  25438431.34506  -1116064.90706   -869662.15309  25438299.39206  25438303.39806
 92  8 21 19 13  0.0000000  0  7 20 16 24 03 12 13 25
  21766471.81906  -5829194.17506  -4542227.53509  21766340.14606  21766342.62006
  22334543.01306  -5815298.73206  -4531393.76809  22334410.98406  22334414.82506
  21172994.21106   3886072.94706   3028107.84009  21172862.44906  21172864.39206
  24805671.32306  -3753215.92606  -2924578.58109  24805539.85806  24805546.05806
  22707707.14406   6490050.82206   5057176.97609  22707575.71506  22707580.48006
  24212387.86206   5990329.73306   4667783.76209  24212256.74806  24212261.35306
  25428976.49806  -1165746.88006   -908375.38409  25428844.83706  25428849.17706
 92  8 21 19 13 30.0000000  0  7 20 16 24 03 12 13 25
  21754268.52906  -5893320.00606  -4592195.70009  21754137.28406  21754139.87806
  22322213.27806  -5880090.73106  -4581880.97609  22322081.36206  22322085.40206
  21185007.65706   3949203.87306   3077300.74309  21184875.81906  21184877.84006
  24794792.64406  -3810382.51406  -2969123.92009  24794661.40506  24794667.75806
  22726435.49906   6588469.92506   5133867.06809  22726304.26206  22726309.17706
  24226646.27706   6065259.66906   4726170.63709  24226515.10306  24226519.98706
  25419596.21906  -1215038.74206   -946784.60509  25419465.08206  25419469.27606
 92  8 21 19 14  0.0000000  0  7 20 16 24 03 12 13 25
  21742128.54106  -5957117.92106  -4641908.35109  21741997.00806  21741999.46606
  22309942.18906  -5944576.38006  -4632129.45809  22309810.03206  22309814.13906
  21197072.05506   4012602.89206   3126702.54709  21196940.30206  21196942.29506
  24783919.37706  -3867524.25006  -3013649.88109  24783787.64606  24783794.00806
  22745220.67406   6687185.01206   5210787.79709  22745089.32906  22745094.07206
  24240893.71406   6140134.44806   4784514.53109  24240762.72306  24240767.65906
  25410294.13506  -1263920.68606   -984874.40509  25410163.09506  25410167.19406
 92  8 21 19 14 30.0000000  0  7 20 16 24 12 03 13 25
  21730053.63506  -6020571.43606  -4691352.63109  21729922.15106  21729924.64806
  22297732.20606  -6008739.66306  -4682126.75909  22297600.17206  22297604.14206
  21209192.54006   4076296.69906   3176334.05509  21209060.76206  21209062.84406
  22764063.91906   6786207.01006   5287947.67809  22763932.68206  22763937.55006
  24773051.89006  -3924627.50006  -3058145.85709  24772921.10306  24772927.57706
  24255133.99406   6214968.01806   4842826.29909  24255003.23406  24255008.76606
  25401072.94806  -1312380.57606  -1022635.34009  25400941.43706  25400945.81006
 92  8 21 19 15  0.0000000  0  7 20 16 24 12 03 13 25
  21718045.54006  -6083675.01006  -4740524.24209  21717914.02906  21717916.38806
  22285582.33406  -6072587.38506  -4731878.16909  22285450.37106  22285454.22106
  21221370.29306   4140290.78706   3226199.54609  21221238.46606  21221240.59306
  22782965.52306   6885535.50306   5365346.37609  22782834.19106  22782839.36906
  24762194.75406  -3981689.63406  -3102609.79709  24762062.60706  24762068.94806
  24269368.46506   6289763.60006   4901108.47109  24269237.18306  24269242.69106
  25391934.77006  -1360399.42906  -1060052.60109  25391803.73706  25391808.12206
 92  8 21 19 15 30.0000000  0  7 20 16 24 12 03 13 25
  21706107.67006  -6146409.03806  -4789407.88509  21705976.10606  21705978.56406
  22273493.93306  -6136111.85206  -4781377.69409  22273361.99506  22273365.86306
  21233610.25106   4204612.83406   3276320.59009  21233478.51506  21233480.66006
  22801928.26806   6985184.61106   5442994.90109  22801796.87406  22801802.09406
  24751346.76106  -4038694.08406  -3147028.81209  24751214.89806  24751221.03006
  24283598.01206   6364538.68306   4959374.67809  24283466.65106  24283472.01006
  25382887.78106  -1407946.73106  -1097102.40809  25382756.08506  25382760.27806
 92  8 21 19 16  0.0000000  0  7 20 16 24 12 03 13 25
  21694243.50506  -6208755.40206  -4837989.45809  21694111.94506  21694114.32606
  22261473.74306  -6199278.43706  -4830598.34709  22261341.76206  22261345.69006
  21245916.36106   4269281.76206   3326711.92909  21245784.62606  21245786.79206
  22820954.17306   7085166.50506   5520902.72709  22820822.87906  22820828.01006
  24740511.79706  -4095625.82706  -3191391.15509  24740381.11506  24740387.64906
  24297825.93806   6439308.72506   5017636.93609  24297694.71506  24297699.95006
  25373932.58006  -1455006.93006  -1133772.70609  25373800.89606  25373804.87206
 92  8 21 19 16 30.0000000  0  7 20 16 24 12 03 13 25
  21682454.43906  -6270707.23606  -4886263.59409  21682322.90606  21682325.32106
  22249526.72606  -6262060.58706  -4879519.43809  22249394.61106  22249398.52306
  21258285.52606   4334281.66806   3377361.17509  21258153.80306  21258155.95506
  22840044.00806   7185482.23206   5599070.70409  22839912.60906  22839917.47106
  24729693.06306  -4152481.23406  -3235694.02009  24729561.83406  24729568.43406
  24312053.07806   6514078.49606   5075899.03509  24311922.33206  24311927.85506
  25365071.01006  -1501574.99106  -1170059.50609  25364939.09906  25364942.57506
 92  8 21 19 17  0.0000000  0  7 20 16 24 03 12 13 25
  21670740.30206  -6332265.87106  -4934231.35809  21670608.73606  21670611.07306
  22237651.83606  -6324463.08306  -4928144.70109  22237519.90506  22237523.78806
  21270716.81006   4399608.84906   3428265.44009  21270585.07206  21270587.25406
  24718887.36206  -4209264.40406  -3279940.59209  24718756.33506  24718762.64606
  22859195.61306   7286124.71506   5677493.30309  22859064.31406  22859069.08406
  24326281.36506   6588844.86906   5134158.42009  24326150.38306  24326155.90406
  25356301.03406  -1547660.51206  -1205970.37909  25356169.57006  25356173.43706
 92  8 21 19 17 30.0000000  0  7 20 16 24 03 12 13 25
  21659099.27406  -6393439.29306  -4981898.94609  21658967.74506  21658970.14206
  22225848.02306  -6386493.00106  -4976479.63709  22225715.96806  22225719.80806
  21283208.55206   4465252.55606   3479416.34909  21283076.72806  21283078.87006
  24708094.69006  -4265986.24106  -3324139.40109  24707962.72606  24707968.96306
  22878407.07906   7387080.39206   5756159.94409  22878275.73006  22878280.58506
  24340507.01006   6663597.32706   5192407.01009  24340375.58606  24340381.02006
  25347616.70606  -1593293.76106  -1241528.69409  25347485.44506  25347489.74206
 92  8 21 19 18  0.0000000  0  7 20 16 24 03 12 13 25
  21647530.08806  -6454236.26606  -5029273.21309  21647398.47906  21647400.86606
  22214116.80206  -6448140.51506  -5024516.60209  22213984.73306  22213988.47706
  21295754.83906   4531184.25606   3530791.66909  21295623.16006  21295625.32006
  24697309.43406  -4322658.77706  -3368299.75809  24697178.11606  24697184.53306
  22897674.82106   7488334.61706   5835059.21209  22897543.63906  22897548.78006
  24354726.79206   6738324.64606   5250636.01209  24354595.75606  24354601.22906
  25339016.41506  -1638492.09906  -1276748.21009  25338884.91906  25338888.26206
 92  8 21 19 18 30.0000000  0  7 20 16 24 03 12 13 25
  21636033.56406  -6514651.40906  -5076349.93509  21635901.88306  21635904.23806
  22202460.89906  -6509392.30506  -5072245.20609  22202328.87706  22202332.52306
  21308354.33506   4597394.88006   3582384.33209  21308222.62806  21308224.78106
  24686534.84106  -4379279.52906  -3412419.77109  24686403.45406  24686410.05406
  22917000.03906   7589887.08206   5914190.86609  22916868.63106  22916873.82706
  24368943.30606   6813029.74906   5308847.68609  24368811.80906  24368817.43206
  25330498.07806  -1683256.12606  -1311629.35209  25330366.18506  25330370.43606
 92  8 21 19 19  0.0000000  0  7 20 16 24 03 12 13 25
  21624610.20606  -6574680.74906  -5123126.04309  21624478.64206  21624481.07006
  22190879.58806  -6570252.00006  -5119668.29109  22190747.64906  22190751.16406
  21321008.37806   4663892.08006   3634200.30509  21320876.62206  21320878.76906
  24675770.91706  -4435847.47706  -3456498.63109  24675638.97606  24675645.81206
  22936381.14106   7691735.91806   5993553.44609  22936249.88706  22936255.02606
  24383154.63106   6887714.43006   5367043.43609  24383023.58606  24383029.21506
  25322063.32906  -1727583.80006  -1346170.36509  25321931.28106  25321935.21806
 92  8 21 19 19 30.0000000  0  7 20 16 24 03 12 13 25
  21613262.21006  -6634314.34806  -5169593.76909  21613130.72906  21613133.13806
  22179375.94406  -6630704.91706  -5166774.41009  22179243.77906  22179247.40706
  21333716.77306   4730674.33906   3686238.40109  21333584.92306  21333587.03006
  24665017.38606  -4492355.70206  -3500530.95609  24664886.20006  24664892.25706
  22955819.75306   7793885.34406   6073150.26909  22955688.37706  22955693.73606
  24397364.28306   6962386.94506   5425229.74509  24397233.45006  24397238.83706
  25313714.80406  -1771454.54806  -1380355.38809  25313583.09406  25313587.30506
 92  8 21 19 20  0.0000000  0  7 20 16 24 03 12 13 25
  21602025.10806  -6693366.27206  -5215608.25809  21601893.50706  21601895.92706
  22167984.94206  -6690564.74606  -5213418.38809  22167852.84306  22167856.43506
  21346513.35206   4797920.65006   3738638.08809  21346381.52706  21346383.66006
  24654310.85506  -4548621.36206  -3544374.28609  24654178.81606  24654185.04806
  22975349.81706   7896515.30706   6153121.52309  22975218.26606  22975223.39206
  24411607.55306   7037230.58006   5483549.37209  24411476.38806  24411481.43806
  25305490.03406  -1814674.44906  -1414033.24109  25305358.53806  25305362.67406
 92  8 21 19 20 30.0000000  0  7 20 16 24 03 12 13 25
  21590891.57706  -6751873.70206  -5261198.45309  21590759.88406  21590762.32506
  22156696.52406  -6749884.46906  -5259641.49309  22156564.60306  22156568.28306
  21359391.24406   4865594.08406   3791370.60509  21359259.44506  21359261.53906
  24643642.18906  -4604684.69506  -3588059.94409  24643510.48306  24643516.69306
  22994962.60506   7999582.84706   6233433.76409  22994831.35206  22994836.83506
  24425874.50706   7112205.84406   5541971.57409  24425743.12006  24425748.95506
  25297383.01106  -1857278.06906  -1447230.90909  25297251.31906  25297255.09406
 92  8 21 19 21  0.0000000  0  7 20 16 24 03 12 13 25
  21579835.68606  -6809971.83406  -5306469.71809  21579704.15806  21579706.63406
  22145482.78006  -6808812.96706  -5305559.74009  22145350.80706  22145354.48406
  21372326.78106   4933570.76806   3844339.42009  21372194.90206  21372197.06106
  24632984.86706  -4660683.72906  -3631695.51109  24632853.83006  24632859.88406
  23014632.54506   8102947.11106   6313977.19109  23014501.19106  23014506.52306
  24440141.27106   7187174.80506   5600388.84209  24440009.77406  24440015.92506
  25289370.20706  -1899385.72606  -1480042.09209  25289238.55906  25289242.64206
 92  8 21 19 21 30.0000000  0  7 20 16 24 03 12 13 25
  21568801.19406  -6867959.29306  -5351654.73609  21568669.54406  21568671.96006
  22134285.28406  -6867656.43506  -5351411.72809  22134153.24506  22134156.91606
  21385260.66306   5001539.14606   3897301.76809  21385128.85206  21385131.04806
  24622284.32606  -4716920.45706  -3675516.27609  24622152.58306  24622158.53906
  23034300.61906   8206303.66906   6394514.64009  23034169.34306  23034174.96806
  24454347.55706   7261837.01106   5658567.08009  24454216.77706  24454223.20006
  25281393.86406  -1941301.80506  -1512703.97709  25281261.96106  25281266.25106
 92  8 21 19 22  0.0000000  0  7 20 16 24 03 12 13 25
  21557834.66306  -6925587.08206  -5396559.50409  21557703.30106  21557705.82606
  22123150.41706  -6926170.79506  -5397007.27709  22123018.24806  22123021.89206
  21398238.07006   5069736.61706   3950442.62209  21398106.38206  21398108.59406
  24611583.59806  -4773148.29606  -3719330.13109  24611452.65506  24611458.70906
  23054013.64406   8309895.95606   6475235.73109  23053882.45806  23053888.04006
  24468543.25806   7336439.53506   5716698.76209  24468412.75306  24468418.92206
  25273499.97606  -1982779.88906  -1545024.58209  25273368.62406  25273372.97306
 92  8 21 19 22 30.0000000  0  7 20 16 24 03 12 13 25
  21546946.31906  -6982806.25706  -5441145.86309  21546814.86206  21546817.36806
  22112088.72606  -6984298.73706  -5442301.72509  22111956.81606  22111960.42306
  21411266.92706   5138203.31206   4003793.26309  21411135.21506  21411137.44806
  24600894.06206  -4829321.92006  -3763101.74609  24600762.77306  24600769.17906
  23073779.66306   8413766.77006   6556173.89509  23073648.61006  23073654.32306
  24482739.63506   7411029.18906   5774820.51309  24482608.43406  24482613.53006
  25265699.61406  -2023773.49106  -1576967.62309  25265568.15506  25265572.51306
 92  8 21 19 23  0.0000000  0  7 20 16 24 03 12 13 25
  21536139.68406  -7039596.03706  -5485397.63409  21536008.06706  21536010.62506
  22101105.18906  -7042018.81906  -5487278.35909  22100973.01106  22100976.59106
  21424349.20706   5206951.29706   4057363.09109  21424217.60506  21424219.77706
  24590218.46606  -4885422.95506  -3806816.76609  24590087.19806  24590093.54306
  23093601.79206   8517931.48906   6637341.03809  23093470.57306  23093476.06006
  24496935.08206   7485624.17406   5832946.38809  24496803.59806  24496809.00006
  25257995.85006  -2064259.05506  -1608514.84509  25257864.08306  25257867.50506
 92  8 21 19 23 30.0000000  0  7 20 16 24 03 12 13 25
  21525414.09406  -7095958.92606  -5529316.75609  21525282.50906  21525285.09806
  22090199.60106  -7099327.23506  -5531934.21809  22090067.58506  22090071.08006
  21437480.26806   5275954.80806   4111132.03209  21437348.56406  21437350.74006
  24579555.69206  -4941456.86906  -3850479.49509  24579424.26706  24579430.60506
  23113478.04506   8622381.79406   6718730.75109  23113346.85006  23113352.53906
  24511128.53706   7560220.73206   5891073.48709  24510997.87006  24511003.43906
  25250385.12106  -2104251.72306  -1639678.02609  25250253.46506  25250257.74406
 92  8 21 19 24  0.0000000  0  7 20 16 24 03 12 13 25
  21514770.76006  -7151889.42106  -5572898.95209  21514639.36906  21514641.94706
  22079376.52206  -7156202.79406  -5576252.78509  22079244.44306  22079248.00806
  21450661.49506   5345221.63206   4165106.14809  21450529.62006  21450531.86606
  24568905.92306  -4997421.65506  -3894088.36609  24568774.83006  24568780.80106
  23133408.55706   8727116.85506   6800342.32209  23133277.36206  23133282.78906
  24525325.29006   7634821.36106   5949203.78609  24525194.03306  24525199.10006
  25242871.15406  -2143742.03106  -1670449.69509  25242739.37606  25242742.73306
 92  8 21 19 24 30.0000000  0  7 20 16 24 03 12 13 25
  21504210.36206  -7207385.76906  -5616142.84909  21504078.72006  21504081.23906
  22068637.14306  -7212638.20406  -5620228.38009  22068505.11006  22068508.72106
  21463893.61406   5414756.91106   4219289.45109  21463761.75106  21463763.97406
  24558269.62506  -5053318.00506  -3937643.92009  24558137.94906  24558144.01106
  23153392.92306   8832133.24106   6882173.12509  23153261.52806  23153267.00106
  24539522.30906   7709425.79706   6007337.06909  24539391.09806  24539397.14306
  25235451.24306  -2182730.22006  -1700830.15009  25235319.83206  25235323.70106
 92  8 21 19 25  0.0000000  0  7 20 16 24 03 12 13 25
  21493731.15306  -7262454.50006  -5659053.54309  21493599.53206  21493602.05106
  22057977.99206  -7268652.10306  -5663875.52209  22057846.00606  22057849.62106
  21477175.66306   5484554.86106   4273677.43109  21477043.90506  21477046.13506
  24547643.11606  -5109155.25006  -3981153.40409  24547512.36606  24547518.40606
  23173428.21206   8937418.50806   6964213.44709  23173296.77906  23173302.19606
  24553716.84906   7784025.24506   6065466.35909  24553585.94806  24553593.24206
  25228128.00706  -2221219.17106  -1730821.52509  25227996.36606  25227999.98606
 92  8 21 19 25 30.0000000  0  8 20 16 24 03 12 13 25 17
  21483333.36906  -7317095.34906  -5701630.82109  21483201.69206  21483204.23506
  22047400.00406  -7324238.71506  -5707189.71509  22047268.14506  22047271.76606
  21490509.03206   5554622.88006   4328275.85609  21490377.39806  21490379.64806
  24537028.10906  -5164936.45006  -4024619.22909  24536897.46906  24536903.51006
  23193513.59806   9042967.21006   7046459.04509  23193382.21206  23193387.76506
  24567912.30606   7858618.25406   6123590.67309  24567781.35006  24567786.39106
  25220897.23606  -2259211.88606  -1760426.26109  25220765.66506  25220770.05906
  25825068.46916        -0.57916        -0.09619  25824936.59416  25824947.11416
 92  8 21 19 26  0.0000000  0  8 20 16 24 03 12 13 25 17
  21473016.18806  -7371312.50206  -5743877.94309  21472884.48706  21472887.05006
  22036903.72406  -7379398.14206  -5750171.03709  22036771.57506  22036775.20906
  21503897.18206   5624977.00706   4383097.22109  21503765.44106  21503767.68406
  24526423.85506  -5220668.61806  -4068046.82609  24526292.12206  24526298.16006
  23213646.75406   9148769.43606   7128902.16309  23213515.52006  23213521.57606
  24582105.52506   7933198.05906   6181704.79609  24581974.09506  24581979.33706
  25213763.72206  -2296704.57406  -1789641.27909  25213631.57506  25213634.89306
  25807202.45606    -93887.78006    -73158.80009  25807070.34306  25807080.96606
 92  8 21 19 26 30.0000000  0  8 20 16 24 12 03 13 25 17
  21462780.41506  -7425100.42806  -5785790.60709  21462648.99206  21462651.46306
  22026487.56306  -7434135.54406  -5792823.51209  22026355.52906  22026359.04506
  21517341.10506   5695625.47806   4438147.94609  21517209.37606  21517211.60306
  23233828.30606   9254824.70906   7211542.47609  23233697.29506  23233703.38806
  24515827.45906  -5276349.16006  -4111434.20909  24515696.54006  24515702.36706
  24596295.32206   8007768.43706   6239811.48209  24596164.21306  24596170.57906
  25206723.32006  -2333696.54106  -1818466.14109  25206591.41506  25206595.86306
  25789354.57906   -187677.25706   -146241.33109  25789222.30206  25789233.20406
 92  8 21 19 27  0.0000000  0  8 20 16 24 12 03 13 25 17
  21452627.08806  -7478457.15206  -5827367.27009  21452495.53106  21452498.03806
  22016152.95306  -7488443.32506  -5835141.22309  22016021.01706  22016024.51506
  21530841.68006   5766571.01706   4493430.15209  21530709.86406  21530712.15206
  23254057.75206   9361129.23606   7294376.97409  23253926.67706  23253932.55406
  24505241.30606  -5331979.08306  -4154782.13509  24505110.32406  24505116.42106
  24610484.06106   8082329.04706   6297910.53209  24610352.93006  24610358.74306
  25199779.22506  -2370195.28406  -1846906.68409  25199647.09706  25199649.20406
  25771521.06506   -281393.04206   -219266.46009  25771388.87706  25771399.65406
 92  8 21 19 27 30.0000000  0  8 20 16 24 12 03 13 25 17
  21442551.94306  -7531402.98506  -5868623.75409  21442420.32606  21442422.75906
  22005898.62006  -7542329.84206  -5877130.66709  22005766.53706  22005770.09906
  21544394.30106   5837790.60906   4548925.90409  21544262.51106  21544264.77406
  23274329.55406   9467657.24906   7377385.66609  23274198.43806  23274204.35306
  24494660.72606  -5387581.49806  -4198108.63309  24494529.41606  24494535.63906
  24624665.13106   8156857.17806   6355984.34309  24624534.47406  24624540.25106
  25192921.47106  -2406223.73806  -1874980.85709  25192790.03606  25192794.05806
  25753695.73106   -375064.89806   -292257.35909  25753563.92506  25753574.04906
 92  8 21 19 28  0.0000000  0  8 20 16 24 03 12 13 25 17
  21432547.65206  -7583975.15206  -5909589.07209  21432416.16206  21432418.57706
  21995716.07906  -7595839.91106  -5918826.77709  21995583.99306  21995587.47606
  21557989.12706   5909231.50106   4604594.09609  21557857.31606  21557859.63306
  24484077.05606  -5443196.57206  -4241444.98609  24483946.15006  24483952.40106
  23294635.51406   9574365.53606   7460534.79409  23294504.56206  23294510.45206
  24638834.47706   8231313.93906   6414002.51209  24638703.65106  24638709.38606
  25186147.81606  -2441825.79506  -1902722.69709  25186016.15406  25186019.29206
  25735873.50806   -468718.68806   -365234.17209  25735742.04406  25735752.27806
 92  8 21 19 28 30.0000000  0  8 20 16 24 03 12 13 25 17
  21422616.89506  -7636161.86506  -5950254.03909  21422485.36806  21422487.74706
  21985605.42206  -7648971.01906  -5960227.60009  21985473.51806  21985476.86806
  21571622.07306   5980873.59406   4660419.07009  21571490.38506  21571492.62906
  24473493.65706  -5498815.29006  -4284784.18709  24473362.15406  24473368.32806
  23314977.30406   9681260.35906   7543829.31309  23314846.11506  23314851.87306
  24652992.17206   8305709.40506   6471972.90809  24652861.12606  24652867.05406
  25179453.64806  -2477002.10706  -1930132.89509  25179321.78606  25179324.85406
  25718058.39306   -562339.92606   -438185.60209  25717926.41006  25717936.60006
 92  8 21 19 29  0.0000000  0  8 20 16 24 03 12 13 25 17
  21412766.20406  -7687928.10206  -5990591.36009  21412634.57406  21412636.96006
  21975574.27406  -7701685.12006  -6001303.48509  21975442.25206  21975445.62606
  21585296.69006   6052733.82106   4716414.01509  21585164.95906  21585167.24806
  24462915.15506  -5554405.39606  -4328101.09509  24462783.67006  24462789.77206
  23335360.00806   9788370.91706   7627291.89409  23335228.66506  23335234.74306
  24667143.53606   8380076.74406   6529921.41109  24667012.45306  24667017.43206
  25172848.52506  -2511714.66006  -1957181.67609  25172716.57906  25172720.18906
  25700255.19006   -655896.67906   -511086.81909  25700123.30206  25700133.29006
 92  8 21 19 29 30.0000000  0  8 20 16 24 03 12 13 25 17
  21403001.65406  -7739240.31506  -6030574.90309  21402870.16106  21402872.57006
  21965628.59106  -7753950.21206  -6042029.49009  21965496.48706  21965499.98906
  21599016.71806   6124833.44506   4772595.50509  21598885.05606  21598887.37006
  24452348.11306  -5609936.60006  -4371372.10209  24452216.38606  24452222.46306
  23355788.72806   9895724.91706   7710944.18509  23355657.51006  23355663.67006
  24681294.90206   8454446.98006   6587872.22509  24681164.03006  24681169.41306
  25166337.73106  -2545921.70706  -1983836.50209  25166206.57106  25166210.89006
  25682475.85106   -749327.38906   -583889.86109  25682343.89406  25682353.71506
 92  8 21 19 30  0.0000000  0  8 20 16 24 03 12 13 25 17
  21393328.04906  -7790075.72806  -6070186.91109  21393196.51306  21393198.91206
  21955772.41406  -7805743.77806  -6082388.07009  21955640.43606  21955643.94306
  21612785.44806   6197188.52206   4828976.05009  21612653.72906  21612656.11006
  24441795.72106  -5665388.38106  -4414581.21209  24441664.14806  24441669.90106
  23376267.51406  10003339.88506   7794799.81909  23376136.11206  23376142.23006
  24695451.95406   8528840.83706   6645841.37609  24695320.89906  24695327.03406
  25159928.34006  -2579606.54906  -2010084.43409  25159796.82906  25159800.43806
  25664724.65606   -842610.48306   -656577.89509  25664592.66406  25664602.36306
 92  8 21 19 30 30.0000000  0  8 20 16 24 03 12 13 25 17
  21383748.12906  -7840417.60906  -6109414.35109  21383616.74606  21383619.21706
  21946010.57006  -7857042.98706  -6122361.43909  21945878.54206  21945882.01006
  21626605.56306   6269813.39806   4885566.82409  21626473.83206  21626476.21806
  24431261.42906  -5720746.95906  -4457717.70609  24431129.77306  24431135.39606
  23396798.10506  10111226.70706   7878867.26409  23396666.51606  23396672.82406
  24709616.06306   8603273.45906   6703840.67009  24709485.06606  24709491.55206
  25153619.98406  -2612749.09006  -2035909.70609  25153489.17206  25153494.36206
  25647004.61206   -935729.26006   -729137.89609  25646872.31806  25646882.11406
 92  8 21 19 31  0.0000000  0  8 20 16 24 03 12 13 25 17
  21374263.50006  -7890260.76606  -6148253.16909  21374131.88906  21374134.44106
  21936344.39306  -7907839.67406  -6161943.23609  21936212.24906  21936215.65006
  21640481.43106   6342731.45306   4942386.05409  21640349.74906  21640352.07506
  24420744.78606  -5776010.19406  -4500779.91009  24420613.37206  24420619.08606
  23417379.73306  10219384.58406   7963145.95109  23417248.26006  23417254.25006
  24723789.02406   8677747.42506   6761872.21209  24723657.73806  24723662.29106
  25147419.51906  -2645341.65006  -2061306.54709  25147288.07906  25147291.66306
  25629316.68906  -1028677.53906   -801565.02109  25629184.78806  25629194.78606
 92  8 21 19 31 30.0000000  0  8 20 16 24 03 12 13 25 17
  21364873.30006  -7939605.71806  -6186703.78109  21364741.89106  21364744.35506
  21926771.15506  -7958146.75406  -6201143.51909  21926639.06506  21926642.47306
  21654414.01606   6415947.49406   4999437.48009  21654282.31106  21654284.67806
  24410245.20406  -5831181.29406  -4543770.31209  24410114.62306  24410120.51206
  23438012.47306  10327807.42206   8047631.09509  23437880.86706  23437887.03106
  24737968.48406   8752260.65806   6819934.50309  24737837.21906  24737842.51306
  25141320.57606  -2677391.58706  -2086280.56509  25141189.00806  25141192.69306
  25611659.78606  -1121463.70306   -873865.79209  25611528.09606  25611538.15506
 92  8 21 19 32  0.0000000  0  8 20 16 24 03 12 13 25 17
  21355577.72106  -7988455.26006  -6224768.35809  21355446.14806  21355448.58806
  21917287.45006  -8007983.41706  -6239977.23809  21917155.45206  21917158.91506
  21668402.24706   6489454.98306   5056716.01109  21668270.39206  21668272.72506
  24399763.86906  -5886265.98406  -4586693.38909  24399632.35506  24399638.17506
  23458692.93006  10436486.89006   8132316.20109  23458561.70606  23458567.69206
  24752154.65306   8826808.75006   6878023.80909  24752022.97706  24752029.66106
  25135322.16706  -2708915.50506  -2110844.68109  25135190.49206  25135194.98106
  25594027.43506  -1214121.00506   -946066.10409  25593895.90906  25593905.95506
 92  8 21 19 32 30.0000000  0  8 20 16 24 03 12 13 25 17
  21346376.39406  -8036808.15006  -6262445.93109  21346244.87706  21346247.30406
  21907893.19506  -8057350.07306  -6278444.71409  21907761.20506  21907764.61906
  21682444.59206   6563248.18206   5114217.17709  21682312.78806  21682315.19006
  24389298.25706  -5941265.37506  -4629550.00209  24389166.44906  24389172.04106
  23479422.02106  10545418.75206   8217197.98209  23479290.83306  23479297.46306
  24766346.19506   8901391.23006   6936139.85609  24766215.36106  24766221.49706
  25129422.26006  -2739916.60806  -2135001.35409  25129290.85506  25129293.91406
  25576419.28306  -1306653.91806  -1018169.54109  25576287.49106  25576297.36906
 92  8 21 19 33  0.0000000  0  8 20 16 24 03 12 13 25 17
  21337269.57706  -8084664.19606  -6299736.35309  21337138.21306  21337140.67506
  21898588.38306  -8106247.52006  -6316546.57709  21898456.30206  21898459.57806
  21696539.44706   6637317.28706   5171933.32809  21696407.70406  21696410.06706
  24378846.55706  -5996182.23406  -4672342.30309  24378715.94806  24378721.86706
  23500198.29906  10654597.23606   8302271.91409  23500067.16206  23500073.19006
  24780545.43106   8976006.10106   6994281.24209  24780414.17706  24780418.87206
  25123623.90506  -2770391.11606  -2158747.91709  25123492.13606  25123495.13606
  25558832.66106  -1399071.74806  -1090183.33509  25558700.93706  25558710.64606
 92  8 21 19 33 30.0000000  4  1
 -2341103.0000 -4689265.0000  3623535.0000                  APPROX POSITION XYZ
 92  8 21 19 33 30.0000000  0  7 20 16 24 03 12 25 17
  21328255.41206  -8132035.25906  -6336648.86509  21328123.84006  21328126.24206
  21889370.44706  -8154687.16706  -6354291.71509  21889238.53706  21889241.80906
  21710679.60006   6711624.65006   5229835.14009  21710547.94506  21710550.27706
  24368409.99306  -6051031.48406  -4715081.91109  24368278.40206  24368284.58106
  23521017.76606  10764004.73606   8387524.29509  23520886.90106  23520893.58706
  25117923.00806  -2800347.38706  -2182090.38209  25117791.01106  25117795.63406
  25541267.05706  -1491380.02406  -1162111.74409  25541135.05106  25541144.77906
 92  8 21 19 34  0.0000000  0  7 20 16 24 03 12 25 17
  21319333.15006  -8178922.27606  -6373184.19309  21319201.49006  21319203.93806
  21880241.52606  -8202660.50206  -6391673.49209  21880109.47606  21880112.77306
  21724862.78006   6786156.96606   5287912.23909  21724731.04106  21724733.30106
  24357984.06506  -6105816.84106  -4757771.72809  24357853.04206  24357859.10106
  23541879.85806  10873634.63506   8472949.98909  23541748.87206  23541755.12906
  25112321.65406  -2829776.87206  -2205022.51609  25112190.45706  25112194.30406
  25523724.94606  -1583563.67606  -1233943.03909  25523592.89206  25523602.91006
 92  8 21 19 34 30.0000000  0  7 20 16 24 03 12 25 17
  21310499.49206  -8225343.35706  -6409356.45509  21310367.88206  21310370.28406
  21871201.14606  -8250168.49906  -6428692.67009  21871069.03306  21871072.34606
  21739084.68006   6860892.88006   5346147.99109  21738952.81506  21738955.06206
  24347566.88706  -6160558.94706  -4800427.85409  24347435.90606  24347441.92406
  23562780.42006  10983463.07506   8558530.37509  23562648.94106  23562655.45206
  25106821.95006  -2858679.27306  -2227543.81909  25106690.43206  25106695.47206
  25506208.41506  -1675611.30306  -1305668.32109  25506076.63106  25506086.61806
 92  8 21 19 35  0.0000000  0  7 20 16 24 03 12 25 17
  21301749.48006  -8271324.66706  -6445186.03709  21301617.88006  21301620.35706
  21862243.33606  -8297241.68706  -6465373.03509  21862111.32806  21862114.67906
  21753340.20906   6935806.90306   5404522.53009  21753208.45606  21753210.73506
  24337152.14506  -6215286.98206  -4843073.00309  24337021.45006  24337027.39506
  23583711.29006  11093458.36306   8644240.77909  23583580.10106  23583586.45706
  25101420.67106  -2887069.73906  -2249666.24709  25101288.90706  25101292.66206
  25488714.81606  -1767540.54006  -1377301.34009  25488583.12606  25488592.99406
 92  8 21 19 35 30.0000000  0  7 20 16 24 03 12 25 17
  21293079.87606  -8316883.51006  -6480686.42409  21292948.30606  21292950.74006
  21853365.49506  -8343893.48206  -6501725.04009  21853233.63606  21853236.97706
  21767629.80206   7010899.48006   5463036.19709  21767498.14006  21767500.40806
  24326737.14906  -6270020.77406  -4885722.63709  24326606.01106  24326611.97206
  23604671.08306  11203598.01406   8730063.69809  23604539.55106  23604546.11006
  25096109.85906  -2914978.58306  -2271413.47509  25095978.08206  25095981.72106
  25471240.83606  -1859369.00006  -1448855.86509  25471108.99506  25471118.54706
 92  8 21 19 36  0.0000000  0  7 20 16 24 03 12 25 17
  21284489.49206  -8362025.89406  -6515862.30109  21284357.98906  21284360.42206
  21844569.68506  -8390115.93606  -6537742.49009  21844437.72906  21844441.09406
  21781954.44706   7086175.91206   5521693.13009  21781822.80906  21781825.08506
  24316319.88906  -6324769.06306  -4928383.57509  24316187.96406  24316193.61306
  23625655.04506  11313869.86306   8815989.56809  23625523.45506  23625529.74206
  25090887.87506  -2942420.71506  -2292796.94509  25090755.96106  25090760.70206
  25453781.70006  -1951116.32606  -1520347.21409  25453649.79906  25453659.42806
 92  8 21 19 36 30.0000000  0  8 20 16 24 03 12 13 25 17
  21275980.32906  -8406741.55806  -6550705.66909  21275848.87906  21275851.30406
  21835858.84506  -8435893.08806  -6573412.95509  21835726.66406  21835729.89306
  21796316.32306   7161647.75406   5580502.32909  21796184.58706  21796186.94006
  24305899.25006  -6379524.14806  -4971049.81609  24305768.25406  24305773.92106
  23646665.39306  11424278.61806   8902022.21909  23646533.78406  23646540.45606
  24879888.15016         0.10116        -0.19919  24879757.28116  24879763.83216
  25085752.91906  -2969399.23706  -2313819.14409  25085621.47906  25085625.72706
  25436335.97406  -2042793.63706  -1591783.99209  25436203.90906  25436213.62206
 92  8 21 19 37  0.0000000  0  8 20 16 24 03 12 13 25 17
  21267554.35206  -8451020.52206  -6585208.75209  21267422.87606  21267425.28606
  21827234.80806  -8481211.03006  -6608725.59309  21827102.86806  21827106.18806
  21810716.84006   7237322.13806   5639469.35309  21810585.02806  21810587.35806
  24295480.17806  -6434278.59406  -5013715.54909  24295348.59806  24295354.32806
  23667702.54106  11534829.24706   8988165.29109  23667571.02806  23667577.74906
  24894047.74506     74405.98806     57978.30409  24893916.55706  24893922.44506
  25080708.55906  -2995911.21406  -2334477.91309  25080577.01506  25080580.52206
  25418901.93306  -2134409.28006  -1663172.73309  25418770.00406  25418779.75506
 92  8 21 19 37 30.0000000  0  8 20 16 24 03 12 13 25 17
  21259214.26706  -8494849.29506  -6619361.03609  21259082.52606  21259084.97406
  21818701.74906  -8526052.63106  -6643667.05209  21818569.71206  21818573.05306
  21825156.07506   7313200.33006   5698595.19109  21825024.17206  21825026.53106
  24285062.60806  -6489021.69806  -5056372.44009  24284931.26906  24284937.06106
  23688768.09206  11645529.18106   9074424.80509  23688636.64206  23688643.54806
  24908200.73406    148780.70906    115932.56209  24908069.51806  24908074.78306
  25075752.08306  -3021948.67206  -2354766.81409  25075621.01206  25075626.55706
  25401480.73006  -2225960.67706  -1734511.44209  25401348.41906  25401358.10506
 92  8 21 19 38  0.0000000  0  8 20 16 24 03 12 13 25 17
  21250960.24606  -8538224.09906  -6653159.58409  21250828.57006  21250831.07606
  21810259.81706  -8570415.86006  -6678235.76109  21810127.78106  21810130.95006
  21839629.87206   7389261.13906   5757863.32509  21839498.03206  21839500.41606
  24274647.64806  -6543752.28506  -5099019.58609  24274516.31006  24274522.20906
  23709862.24406  11756376.72306   9160799.25609  23709730.58106  23709737.66606
  24922347.28306    223126.59306    173864.35109  24922216.24106  24922223.08106
  25070891.60506  -3047503.60206  -2374679.78709  25070759.52106  25070762.47106
  25384071.70706  -2317443.98706  -1805797.12909  25383939.79406  25383949.28406
 92  8 21 19 38 30.0000000  0  8 20 16 24 03 12 13 25 17
  21242792.72406  -8581143.49906  -6686603.27009  21242661.26206  21242663.74106
  21801906.41106  -8614312.41806  -6712440.83109  21801774.40006  21801777.67906
  21854135.91506   7465491.60406   5817263.65709  21854004.19306  21854006.67306
  24264234.47606  -6598471.64106  -5141657.98209  24264103.54006  24264109.38606
  23730982.81506  11867367.77406   9247285.57309  23730851.51306  23730858.29806
  24936488.74506    297443.12706    231773.18109  24936357.92006  24936365.45306
  25066120.48006  -3072568.96306  -2394211.25809  25065988.74506  25065993.60406
  25366676.31806  -2408858.29706  -1877029.03009  25366544.13406  25366553.85906
 92  8 21 19 39  0.0000000  0  8 20 16 24 03 12 13 25 17
  21234711.05606  -8623612.75506  -6719696.19709  21234579.62506  21234582.07806
  21793639.24106  -8657757.53706  -6746294.12809  21793507.13406  21793510.37606
  21868672.33606   7541881.00206   5876787.82809  21868540.69306  21868543.12606
  24253823.34406  -6653187.71306  -5184293.81809  24253691.40206  24253697.17106
  23752129.23306  11978491.59806   9333875.34109  23751997.94706  23752005.18906
  24950624.96206    371723.51006    289653.83009  24950494.08106  24950500.57706
  25061443.45806  -3097154.32806  -2413368.66009  25061311.20206  25061314.51806
  25349293.33606  -2500209.21806  -1948211.49209  25349160.63706  25349170.46706
 92  8 21 19 39 30.0000000  0  8 20 16 24 03 12 13 25 17
  21226716.43806  -8665625.25406  -6752433.21009  21226584.93106  21226587.32306
  21785456.54206  -8700757.07606  -6779800.22209  21785324.49106  21785327.75006
  21883240.13106   7618434.18506   5936439.62809  21883108.36506  21883110.74306
  24243412.18006  -6707896.00006  -5226923.59609  24243280.68806  24243286.48006
  23773300.53906  12089749.47606   9420569.50709  23773169.39006  23773176.60906
  24964755.02206    445972.62006    347510.23509  24964623.58106  24964629.22706
  25056853.63606  -3121269.24406  -2432159.55409  25056722.19906  25056725.76706
  25331923.45706  -2591484.29106  -2019334.85309  25331791.47706  25331800.84406
 92  8 21 19 40  0.0000000  0  8 20 16 24 03 12 13 25 17
  21218810.32606  -8707172.17906  -6784807.43809  21218678.81106  21218681.21106
  21777359.12806  -8743309.01706  -6812957.53909  21777227.14506  21777230.33706
  21897842.60306   7695171.14706   5996234.63409  21897710.94106  21897713.38106
  24233003.72506  -6762590.65206  -5269542.73709  24232872.56806  24232878.43206
  23794498.92306  12201144.32306   9507370.48909  23794367.49706  23794374.66706
  24978878.30006    520197.52206    405347.74109  24978747.38706  24978754.12606
  25052355.63206  -3144910.47206  -2450581.27209  25052223.79406  25052227.56106
  25314571.97106  -2682668.46006  -2090387.46509  25314439.90106  25314447.91406
 92  8 21 19 40 30.0000000  0  8 20 16 24 03 12 13 25 17
  21210993.83906  -8748248.05006  -6816814.61209  21210862.34106  21210864.74406
  21769345.38606  -8785421.41206  -6845772.35009  21769213.36306  21769216.58406
  21912481.37406   7772098.38306   6056177.90109  21912349.72906  21912352.21306
  24222599.12706  -6817268.57606  -5312148.83509  24222467.54206  24222473.63306
  23815722.66006  12312676.47406   9594278.36409  23815591.77406  23815598.58206
  24992999.57206    594402.37006    463169.53109  24992868.34306  24992875.38806
  25047947.16506  -3168070.54006  -2468628.11009  25047815.72206  25047820.87306
  25297239.50806  -2773750.75106  -2161360.84809  25297107.67506  25297116.35706
 92  8 21 19 41  0.0000000  0  8 20 16 24 03 12 13 25 17
  21203268.91806  -8788843.16306  -6848447.16709  21203137.34206  21203139.77806
  21761416.48406  -8827087.95306  -6878239.74409  21761284.48006  21761287.67606
  21927159.52606   7849232.05206   6116282.02609  21927027.83606  21927030.27706
  24212199.05906  -6871922.86406  -5354736.51909  24212067.47306  24212073.12506
  23836973.70206  12424349.87506   9681296.43409  23836842.54606  23836849.37106
  25007117.70306    668594.44106    520981.38709  25006986.71206  25006993.55006
  25043633.16606  -3190741.24906  -2486293.62009  25043501.90006  25043505.91106
  25279932.36906  -2864699.75306  -2232230.22809  25279800.46806  25279810.03006
 92  8 21 19 41 30.0000000  0  7 20 16 24 03 12 13 25
  21195636.33506  -8828952.61206  -6879701.28509  21195504.77606  21195507.21206
  21753573.95506  -8868301.09906  -6910353.84409  21753441.89906  21753445.05706
  21941875.47806   7926565.49606   6176541.81909  21941743.85806  21941746.27006
  24201803.32906  -6926550.88706  -5397303.73509  24201672.08206  24201677.59806
  23858252.03706  12536164.17406   9768424.18909  23858120.62906  23858127.69706
  25021234.39206    742776.88506    578785.77609  25021103.42306  25021108.98806
  25039413.42306  -3212908.95706  -2503567.23709  25039282.85106  25039287.89306
 92  8 21 19 42  0.0000000  0  7 20 16 24 03 12 13 25
  21188098.50306  -8868564.84206  -6910567.95509  21187966.82106  21187969.25406
  21745820.35206  -8909045.94306  -6942103.03609  21745688.31806  21745691.55106
  21956630.17606   8004102.18906   6236959.98209  21956498.60806  21956501.10706
  24191414.36406  -6981143.74706  -5439843.55009  24191283.04606  24191288.80806
  23879557.33006  12648125.29806   9855666.41909  23879426.00506  23879433.15206
  25035351.70606    816959.94006    636590.75709  25035220.36406  25035225.94706
  25035297.14206  -3234548.11006  -2520428.94509  25035165.60306  25035169.92606
 92  8 21 19 42 30.0000000  0  8 20 16 24 03 12 13 25 17
  21180654.68406  -8907681.74806  -6941048.65909  21180523.11306  21180525.55906
  21738157.75906  -8949312.60206  -6973479.61409  21738025.78406  21738029.00006
  21971419.71506   8081820.33206   6297519.53709  21971287.86906  21971290.33906
  24181031.65206  -7035705.89606  -5482359.43109  24180900.03206  24180905.88606
  23900889.79506  12760225.98506   9943017.34209  23900758.42106  23900765.88306
  25049467.74706    891139.97706    694393.27609  25049336.64406  25049342.85506
  25031281.08006  -3255658.19306  -2536878.40809  25031148.95906  25031153.10606
  25228186.97216        -0.22016         0.15319  25228054.92916  25228063.96116
 92  8 21 19 43  0.0000000  0  8 20 16 24 03 12 13 25 17
  21173303.60406  -8946311.70206  -6971149.91909  21173172.02206  21173174.51906
  21730587.26206  -8989095.97406  -7004479.60509  21730455.28206  21730458.48606
  21986240.84106   8159705.88606   6358209.54709  21986109.05406  21986111.53906
  24170651.93206  -7090247.92706  -5524859.62909  24170521.12306  24170526.92706
  23922245.70106  12872452.41806  10030466.25809  23922114.05506  23922121.94506
  25063580.50306    965307.30506    752185.86409  25063449.65506  25063456.67406
  25027359.90106  -3276261.52106  -2552933.05109  25027228.35706  25027232.20806
  25210992.32306    -90358.25706    -70408.76809  25210860.16706  25210868.98706
 92  8 21 19 43 30.0000000  0  8 20 16 24 03 12 13 25 17
  21166043.97806  -8984460.86006  -7000876.53409  21165912.49906  21165914.94606
  21723109.86706  -9028390.18606  -7035098.43509  21722977.84806  21722981.02306
  22001091.44606   8237747.05006   6419020.81109  22000959.84006  22000962.37806
  24160275.33206  -7144778.58706  -5567350.98309  24160144.39206  24160149.92906
  23943623.95706  12984793.38306  10118004.38609  23943492.48606  23943499.93006
  25077689.99706   1039454.44206    809962.68809  25077559.11306  25077566.31806
  25023532.54306  -3296375.55006  -2568606.33309  25023400.65206  25023404.93306
  25193816.09806   -180618.09406   -140741.17509  25193683.97406  25193693.64106
 92  8 21 19 44  0.0000000  0  8 20 16 24 03 12 13 25 17
  21158875.77106  -9022129.83006  -7030228.97409  21158744.32406  21158746.76206
  21715726.70306  -9067188.80506  -7065331.08609  21715594.57006  21715597.79906
  22015972.37906   8315946.56906   6479955.46209  22015840.79406  22015843.36606
  24149900.57306  -7199301.14106  -5609836.01509  24149769.05706  24149774.60606
  23965021.71106  13097242.33606  10205626.67809  23964890.59906  23964898.60606
  25091795.60206   1113578.58306    867721.63609  25091664.61806  25091671.30506
  25019798.28106  -3316000.63106  -2583898.59709  25019666.59606  25019670.60006
  25176657.04806   -270789.94906   -211004.85709  25176524.77706  25176534.89506
 92  8 21 19 44 30.0000000  0  8 20 16 24 03 12 13 25 17
  21151798.09806  -9059324.04206  -7059211.47009  21151666.53406  21151668.95606
  21708436.46606  -9105498.56506  -7095182.80409  21708304.36906  21708307.70306
  22030882.91906   8394301.09006   6541010.89909  22030751.18206  22030753.68906
  24139525.44706  -7253823.06706  -5652320.55409  24139393.73806  24139399.31306
  23986439.63306  13209788.79106  10293324.92509  23986308.24306  23986315.33406
  25105895.72506   1187672.90106    925457.37109  25105764.88706  25105771.51006
  25016152.24206  -3335155.03906  -2598824.15909  25016021.40606  25016025.23206
  25159515.20006   -360872.08906   -281198.67409  25159383.08506  25159392.78506
 92  8 21 19 45  0.0000000  0  8 20 16 24 03 12 13 25 17
  21144810.35906  -9096045.56706  -7087825.63909  21144678.68406  21144681.08206
  21701237.66506  -9143327.16106  -7124659.59009  21701105.75306  21701109.02506
  22045823.12506   8472812.19706   6602188.35209  22045691.41706  22045693.95606
  24129148.82406  -7308348.92706  -5694808.15909  24129017.82706  24129023.14806
  24007873.56306  13322425.17506  10381093.32609  24007742.04006  24007749.96706
  25119989.84006   1261733.66106    983166.90409  25119858.72706  25119865.04906
  25012597.56606  -3353838.02206  -2613382.33609  25012466.16506  25012470.14106
  25142389.59006   -450868.03706   -351325.36109  25142257.60606  25142267.12606
 92  8 21 19 45 30.0000000  0  8 20 16 24 03 12 13 25 17
  21137911.34506  -9132299.17406  -7116075.20109  21137779.86506  21137782.25706
  21694130.16906  -9180679.06106  -7153764.92909  21693998.10406  21694001.21506
  22060792.37206   8551475.19406   6663484.16209  22060660.57506  22060663.05806
  24118771.53206  -7362886.31206  -5737304.74709  24118639.75206  24118645.12206
  24029323.22806  13435141.22006  10468923.68909  24029191.77806  24029199.26706
  25134075.53406   1335754.72906   1040845.52709  25133944.44106  25133950.88606
  25009134.80206  -3372041.17606  -2627566.62409  25009002.85706  25009006.90606
  25125279.69906   -540780.14206   -421386.72209  25125147.68206  25125157.06106
 92  8 21 19 46  0.0000000  0  8 20 16 24 03 12 13 25 17
  21131099.83606  -9168094.73606  -7143967.84209  21130968.20406  21130970.56706
  21687108.85906  -9217576.04206  -7182515.78609  21686976.81106  21686979.90506
  22075787.02706   8630272.23606   6724884.42209  22075655.20706  22075657.69106
  24108388.21306  -7417447.02506  -5779819.50409  24108256.90106  24108262.53506
  24050784.84306  13547921.99506  10556804.62209  24050653.35106  24050660.79606
  25148150.40306   1409724.61506   1098484.42209  25148019.41606  25148025.99706
  25005758.82206  -3389774.60206  -2641384.90409  25005627.50906  25005631.50306
  25108184.91706   -630612.84606   -491386.22209  25108053.06406  25108062.29706
 92  8 21 19 46 30.0000000  0  8 20 16 24 03 12 13 25 17
  21124372.93206  -9203445.04706  -7171513.54009  21124241.26506  21124243.61806
  21680169.05706  -9254044.49706  -7210932.72309  21680037.09006  21680040.14006
  22090803.82106   8709187.77306   6786377.01509  22090672.23106  22090674.71206
  24097998.27506  -7472046.05606  -5822364.12609  24097867.03406  24097872.61006
  24072254.97006  13660749.46306  10644721.82109  24072123.63206  24072132.02506
  25162215.00806   1483629.49906   1156072.42009  25162083.72006  25162090.30406
  25002471.01106  -3407056.01006  -2654850.97209  25002339.25506  25002343.07706
  25091101.80906   -720382.19206   -561336.32409  25090970.09106  25090980.08106
 92  8 21 19 47  0.0000000  0  8 20 16 24 03 12 13 25 17
  21117730.73206  -9238349.42806  -7198711.75909  21117599.20506  21117601.54206
  21673310.78006  -9290085.32706  -7239016.44809  21673178.73206  21673181.78506
  22105841.89106   8788212.90206   6847955.00609  22105710.30306  22105712.75906
  24087600.78906  -7526685.29706  -5864940.08309  24087469.49106  24087474.91706
  24093733.90206  13773619.16006  10732671.96209  24093602.50406  24093610.23506
  25176266.63306   1557468.27306   1213609.04109  25176135.43006  25176142.11906
  24999267.91406  -3423883.05606  -2667962.97009  24999136.76706  24999141.10806
  25074031.20906   -810087.60706   -631236.55509  25073899.38206  25073909.48006
 92  8 21 19 47 30.0000000  0  8 20 16 24 03 12 13 25 17
  21111177.16006  -9272788.98706  -7225547.78009  21111045.54006  21111047.92706
  21666535.94806  -9325686.40006  -7266757.50209  21666403.92306  21666407.00406
  22120904.22006   8867365.42506   6909632.26609  22120772.49906  22120775.01506
  24077198.50606  -7581347.84706  -5907534.19209  24077067.42906  24077072.81606
  24115222.39006  13886544.74806  10820665.64109  24115091.17906  24115099.53706
  25190308.49506   1631259.05506   1271108.23609  25190177.25706  25190184.07906
  24996151.31706  -3440261.60406  -2680725.46609  24996019.60306  24996024.15106
  25056975.78206   -899714.40606   -701075.51309  25056843.52106  25056853.60506
 92  8 21 19 48  0.0000000  0  7 20 16 24 03 12 25 17
  21104716.69806  -9306739.51906  -7252002.74309  21104584.98106  21104587.33606
  21659848.88806  -9360826.65806  -7294139.48209  21659716.92006  21659719.92606
  22135993.32606   8946659.28906   6971419.65809  22135861.58106  22135864.12406
  24066796.58206  -7636012.18806  -5950129.69409  24066665.10806  24066670.59206
  24136726.55206  13999544.88506  10908717.39009  24136595.19906  24136603.48906
  24993122.81906  -3456172.57206  -2693123.62909  24992991.87606  24992996.98206
  25039941.78006   -989234.11206   -770831.11109  25039809.48806  25039818.55506
 92  8 21 19 48 30.0000000  0  7 20 16 24 03 12 25 17
  21098350.41806  -9340193.76606  -7278070.99209  21098218.85606  21098221.25406
  21653253.47206  -9395486.14606  -7321146.84009  21653121.50206  21653124.45006
  22151109.60706   9026095.07506   7033317.63809  22150977.65906  22150980.25606
  24056395.16606  -7690673.31906  -5992722.70109  24056263.54606  24056268.86806
  24158243.80506  14112621.68506  10996828.85909  24158112.60506  24158121.25906
  24990189.16406  -3471600.44206  -2705145.37409  24990057.22206  24990061.22606
  25022929.20506  -1078629.99706   -840490.23409  25022797.81406  25022807.25906
 92  8 21 19 49  0.0000000  0  8 20 16 24 03 12 13 25 17
  21092077.95906  -9373156.09706  -7303755.92909  21091946.30206  21091948.73206
  21646752.64006  -9429648.94806  -7347767.17209  21646620.50406  21646623.45306
  22166249.88206   9105658.12906   7095314.78809  22166118.03206  22166120.61306
  24045992.55506  -7745337.65306  -6035318.20909  24045861.22206  24045866.46606
  24179775.72806  14225765.49706  11084992.58009  24179644.16106  24179652.11206
  25232406.60016        -0.04416        -0.67719  25232275.59416  25232282.55316
  24987344.49806  -3486547.16206  -2716792.24309  24987212.84206  24987215.79806
  25005941.03606  -1167903.15606   -910053.57709  25005809.07906  25005819.13706
 92  8 21 19 49 30.0000000  0  8 20 16 24 03 12 13 25 17
  21085897.59506  -9405633.96706  -7329063.36209  21085765.96406  21085768.42206
  21640346.95206  -9463309.45406  -7373996.10009  21640215.05506  21640218.10806
  22181411.90706   9185335.16006   7157400.75109  22181280.15606  22181282.73306
  24035587.86606  -7800014.72006  -6077923.64509  24035456.25506  24035461.81606
  24201316.39406  14338963.78906  11173198.75009  24201184.93206  24201193.70206
  25246427.84506     73684.99006     57416.11709  25246296.61306  25246304.79706
  24984593.72406  -3501006.06406  -2728059.02909  24984461.75806  24984465.09706
  24988974.92606  -1257065.50406   -979530.65209  24988842.72506  24988851.48806
 92  8 21 19 50  0.0000000  0  8 20 16 24 03 12 13 25 17
  21079812.71006  -9437609.26806  -7353979.18309  21079681.27906  21079683.69006
  21634041.51506  -9496444.46706  -7399815.55109  21633909.59106  21633912.74906
  22196597.47906   9265135.24106   7219582.60109  22196465.69206  22196468.22006
  24025184.06106  -7854688.69106  -6120526.65909  24025052.18206  24025057.65406
  24222870.50906  14452229.50106  11261457.39009  24222738.98106  24222747.28706
  25260446.21706    147352.19106    114819.00709  25260315.20506  25260322.77906
  24981942.76106  -3514930.78306  -2738909.48809  24981810.94606  24981815.33806
  24972031.56106  -1346099.67106  -1048907.95409  24971900.05706  24971908.16006
 92  8 21 19 50 30.0000000  0  8 20 16 24 03 12 13 25 17
  21073826.25006  -9469068.72206  -7378493.04409  21073694.73206  21073697.15206
  21627838.67706  -9529041.14406  -7425215.52109  21627706.60406  21627709.71206
  22211810.21206   9345078.33306   7281875.88409  22211678.39306  22211680.99406
  24014781.91006  -7909348.64606  -6163118.75909  24014650.81906  24014656.07406
  24244438.87006  14565570.60806  11349774.90909  24244307.48106  24244315.56506
  25274464.43306    221013.25406    172217.13509  25274333.62806  25274340.23506
  24979397.46106  -3528314.50006  -2749338.37109  24979264.87906  24979268.35306
  24955113.41706  -1435004.70806  -1118184.54509  24954981.47106  24954991.12506
 92  8 21 19 51  0.0000000  0  8 20 16 24 03 12 13 25 17
  21067937.09706  -9500017.26306  -7402608.78809  21067805.46306  21067807.87706
  21621735.48806  -9561113.27506  -7450206.75509  21621603.48706  21621606.57806
  22227048.84906   9425158.24306   7344275.77609  22226917.12106  22226919.71306
  24004382.08906  -7964001.99006  -6205705.69909  24004250.49906  24004255.61206
  24266019.25906  14678976.97206  11438143.18209  24265887.81306  24265896.87806
  25288479.84706    294662.34806    229605.96009  25288348.63806  25288355.00906
  24976948.35006  -3541176.94006  -2759361.08309  24976816.78606  24976820.74206
  24938217.01006  -1523796.57706  -1187372.88509  24938085.13006  24938094.47506
 92  8 21 19 51 30.0000000  0  8 20 16 24 03 12 13 25 17
  21062144.66706  -9530456.81206  -7426327.91509  21062013.02506  21062015.43306
  21615729.38906  -9592675.71506  -7474800.83209  21615597.42006  21615600.36906
  22242314.12506   9505377.84606   7406784.52109  22242182.38306  22242184.98706
  23993982.04906  -8018652.46906  -6248290.41509  23993850.67706  23993855.84106
  24287611.44306  14792441.71706  11526556.92209  24287480.04406  24287488.50806
  25302491.91306    368296.06006    286982.85509  25302360.69006  25302367.21506
  24974595.97406  -3553539.65506  -2768994.36009  24974464.26406  24974468.78106
  24921342.21406  -1612474.23306  -1256472.29209  24921210.28806  24921219.16406
 92  8 21 19 52  0.0000000  0  8 20 16 24 03 12 13 25 17
  21056446.55406  -9560400.04806  -7449660.30709  21056314.99906  21056317.43806
  21609815.46106  -9623752.91406  -7499016.80009  21609683.48406  21609686.49606
  22257604.50406   9585728.51706   7469395.39609  22257472.68606  22257475.26706
  23983580.32906  -8073314.61006  -6290884.21209  23983448.77306  23983454.00806
  24309210.49306  14905947.29806  11615002.57009  24309079.28806  24309087.86606
  25316497.76606    441900.76506    344337.05509  25316366.68006  25316373.97406
  24972333.79806  -3565430.65506  -2778260.09809  24972201.84906  24972206.83506
  24904487.47906  -1701040.66406  -1325484.98809  24904355.73806  24904365.61206
 92  8 21 19 52 30.0000000  0  7 20 16 24 03 12 25 17
  21050840.39606  -9589860.41906  -7472616.44009  21050708.86506  21050711.29106
  21603992.01406  -9654355.42706  -7522862.88009  21603859.92906  21603862.92906
  22272915.83806   9666189.25506   7532092.03609  22272783.89806  22272786.51906
  23973172.77806  -8128003.74806  -6333499.03409  23973041.54006  23973046.87906
  24330814.38906  15019475.34806  11703465.63809  24330683.38506  24330692.35006
  24970154.70306  -3576881.47606  -2787182.83609  24970023.05606  24970027.36106
  24887655.45406  -1789496.12306  -1394411.16609  24887523.99806  24887533.39506
 92  8 21 19 53  0.0000000  0  7 20 16 24 03 12 25 17
  21045324.93706  -9618845.19606  -7495201.98009  21045193.24106  21045195.67706
  21598256.54106  -9684496.05806  -7546349.05509  21598124.47406  21598127.44306
  22288243.33706   9746736.58206   7594856.15109  22288111.53606  22288114.19606
  23962758.66706  -8182729.63606  -6376142.49909  23962627.53506  23962632.66106
  24352420.66606  15133013.14606  11791936.31809  24352289.41306  24352298.18506
  24968057.75106  -3587899.21306  -2795768.12309  24967926.32206  24967929.99506
  24870845.84406  -1877834.12306  -1463245.86809  24870713.97806  24870722.95806
 92  8 21 19 53 30.0000000  0  8 20 16 24 03 12 13 25 17
  21039901.99006  -9647342.20806  -7517407.44009  21039770.43206  21039772.87906
  21592610.32906  -9714167.03206  -7569469.27109  21592478.28606  21592481.21906
  22303589.81706   9827382.17006   7657696.83309  22303457.90706  22303460.56006
  23952339.46306  -8237482.19006  -6418806.75009  23952208.36106  23952213.48806
  24374029.69106  15246567.99506  11880420.30309  24373898.19106  24373906.96906
  25358464.36516        -0.22516        -0.80819  25358333.56216  25358340.05516
  24966048.79706  -3598457.63906  -2803995.55209  24965916.95906  24965920.73606
  24854060.43506  -1966038.04406  -1531976.08009  24853928.94406  24853937.75806
 92  8 21 19 54  0.0000000  0  8 20 16 24 03 12 13 25 17
  21034574.71406  -9675337.53506  -7539221.97909  21034443.08606  21034445.51806
  21587056.97606  -9743349.86706  -7592209.11409  21586924.96206  21586927.95506
  22318956.17906   9908133.46006   7720619.87909  22318824.33606  22318827.05606
  23941917.63906  -8292249.38706  -6461482.40209  23941786.25206  23941791.57606
  24395643.92706  15360148.55106  11968924.32109  24395512.35906  24395521.29706
  25372439.53606     73437.57206     57223.36409  25372308.54506  25372315.34506
  24964131.47306  -3608524.22006  -2811839.66109  24964000.59006  24964005.95306
  24837302.60906  -2054103.92506  -1600598.76109  24837170.82906  24837179.37606
 92  8 21 19 54 30.0000000  0  8 20 16 24 03 12 13 25 17
  21029346.55506  -9702810.93106  -7560629.81909  21029215.06506  21029217.46506
  21581600.71006  -9772021.93006  -7614550.95109  21581468.74606  21581471.85106
  22334345.66206   9989005.63306   7783637.11709  22334213.89506  22334216.56706
  23931496.65306  -8347013.06606  -6504155.31109  23931365.18006  23931370.24506
  24417265.69306  15473770.34806  12057460.45909  24417134.01406  24417143.30706
  25386412.02106    146865.72306    114440.08109  25386281.02806  25386288.78706
  24962313.89906  -3618078.04106  -2819284.22409  24962182.78906  24962187.22406
  24820570.84306  -2142027.04706  -1669110.17409  24820439.18006  24820448.56506
 92  8 21 19 55  0.0000000  0  8 20 16 24 03 12 13 25 17
  21024217.95006  -9729762.10006  -7581630.72909  21024086.41606  21024088.82806
  21576241.49506  -9800185.01506  -7636496.18209  21576109.49906  21576112.54306
  22349760.43906  10070010.97606   7846758.12309  22349628.77806  22349631.45406
  23921076.14106  -8401774.65206  -6546826.59609  23920944.50906  23920949.53306
  24438894.20006  15587428.80806  12146025.12509  24438762.47506  24438771.84906
  25400383.37506    220283.55006    171648.56409  25400252.22506  25400259.65906
  24960594.85906  -3627114.27706  -2826325.48509  24960463.36306  24960467.38806
  24803862.31306  -2229828.33706  -1737526.60309  24803731.03206  24803740.32006
 92  8 21 19 55 30.0000000  0  8 20 16 24 03 12 13 25 17
  21019190.32806  -9756182.77206  -7602218.26609  21019058.72506  21019061.12506
  21570980.97606  -9827828.74206  -7658036.72109  21570849.04706  21570852.01506
  22365203.63606  10151165.32106   7909995.23609  22365071.90306  22365074.61106
  23910657.27006  -8456527.87906  -6589491.37909  23910525.43806  23910530.17906
  24460530.20906  15701127.03906  12234620.82909  24460398.98806  24460407.93906
  25414354.51006    293698.19806    228854.68009  25414223.29606  25414230.71406
  24958976.26006  -3635626.81006  -2832958.69609  24958844.10106  24958847.92906
  24787175.81406  -2317519.15506  -1805856.98909  24787043.92406  24787052.85506
 92  8 21 19 56  0.0000000  0  8 20 16 24 03 12 13 25 17
  21014268.98806  -9782044.52206  -7622370.27909  21014137.38506  21014139.81706
  21565827.72106  -9854910.55106  -7679139.40809  21565695.58106  21565698.48906
  22380680.12406  10232494.05606   7973368.24009  22380548.29706  22380550.98406
  23900243.99906  -8511246.39706  -6632129.10709  23900112.61206  23900117.48606
  24482178.56506  15814888.66106  12323265.95209  24482047.10806  24482056.56106
  25428329.23806    367136.73706    286079.43009  25428198.07406  25428205.55206
  24957456.48606  -3643602.86206  -2839173.80909  24957325.60206  24957330.95306
  24770514.51306  -2405075.06706  -1874082.25209  24770382.44306  24770391.61606
 92  8 21 19 56 30.0000000  0  8 20 16 24 03 12 13 25 17
  21009456.00306  -9807336.39906  -7642078.23909  21009324.48406  21009326.94806
  21560781.54306  -9881427.92406  -7699802.27209  21560649.45806  21560652.41906
  22396190.28606  10314000.06006   8036879.37409  22396058.44006  22396061.13106
  23889839.68006  -8565921.14206  -6674732.72609  23889708.25406  23889713.03806
  24503839.98206  15928719.87806  12411965.22109  24503708.71306  24503718.46806
  25442310.66806    440609.21106    343330.57709  25442179.33506  25442186.62206
  24956041.65106  -3651046.87206  -2844974.38009  24955909.58806  24955914.63106
  24753882.03406  -2492478.42706  -1942188.61009  24753750.02706  24753759.13306
 92  8 21 19 57  0.0000000  0  7 20 16 24 03 12 25 17
  21004754.18606  -9832044.80106  -7661331.54209  21004622.65406  21004625.10206
  21555843.61406  -9907375.90206  -7720021.44809  21555711.68206  21555714.63106
  22411735.45306  10395689.32606   8100533.31109  22411603.34806  22411606.08006
  23879445.92206  -8620540.59406  -6717293.25909  23879314.53106  23879319.21406
  24525516.97406  16042629.29706  12500725.44909  24525385.53206  24525394.81106
  24954728.38706  -3657947.21606  -2850351.29209  24954596.40206  24954601.51006
  24737283.04606  -2579705.91006  -2010157.94009  24737150.86106  24737160.09106
 92  8 21 19 57 30.0000000  0  7 20 16 24 03 12 25 17
  21000166.36506  -9856154.28506  -7680118.15709  21000034.78006  21000037.23906
  21551018.58006  -9932732.38606  -7739779.71709  21550886.58006  21550889.47306
  22427315.19506  10477561.82906   8164330.02709  22427183.20906  22427185.91006
  23869065.10706  -8675090.74506  -6759799.79209  23868933.91706  23868938.75406
  24547210.05406  16156627.43206  12589554.87809  24547078.59106  24547088.02506
  24953521.26606  -3664289.44006  -2855293.31309  24953389.52906  24953394.24806
  24720723.98706  -2666724.77406  -2077964.65209  24720591.75806  24720601.03206
 92  8 21 19 58  0.0000000  0  7 20 16 24 03 12 25 17
  20995693.76406  -9879657.89006  -7698432.65909  20995562.19506  20995564.66106
  21546308.35206  -9957483.96106  -7759066.63409  21546176.41406  21546179.30806
  22442929.66406  10559616.67106   8228268.82809  22442797.74706  22442800.48406
  23858698.74906  -8729566.45606  -6802248.31509  23858567.33806  23858572.50406
  24568920.49006  16270716.56006  12678455.13209  24568789.31406  24568799.08306
  24952422.68906  -3670065.73006  -2859794.33309  24952290.20806  24952294.88606
  24704209.88406  -2753509.30306  -2145588.81509  24704077.70406  24704086.32006
 92  8 21 19 58 30.0000000  0  7 20 16 24 03 12 25 17
  20991341.03306  -9902531.51906  -7716256.27309  20991209.48106  20991211.94006
  21541714.76806  -9981623.38306  -7777876.55009  21541582.76306  21541585.71506
  22458582.27606  10641871.85606   8292363.74409  22458450.45806  22458453.17206
  23848351.11406  -8783945.74506  -6844621.70409  23848219.45006  23848224.36606
  24590652.54806  16384915.86106  12767441.23809  24590521.35306  24590530.80406
  24951436.29806  -3675247.91206  -2863832.45509  24951304.07906  24951309.38206
  24687742.31706  -2840040.52406  -2213015.62309  24687610.67206  24687619.47006
 92  8 21 19 59  0.0000000  0  8 16 24 03 12 20 13 25 17
  21537241.82306 -10005128.74606  -7796192.38809  21537109.86506  21537112.79506
  22474274.30306  10724335.34306   8356620.96709  22474142.72106  22474145.50806
  23838022.07606  -8838225.16506  -6886917.27009  23837890.37806  23837895.05606
  24612405.25506  16499225.59806  12856513.43509  24612273.85006  24612283.42806
  20987109.08206  -9924770.26706  -7733585.17309  20986977.60506  20986980.08006
  25512397.67816        -0.31716        -0.86919  25512266.79716  25512274.48916
  24950564.66606  -3679818.47606  -2867393.92109  24950433.70606  24950439.39706
  24671323.50606  -2926323.47206  -2280248.88809  24671191.52406  24671200.52606
 92  8 21 19 59 30.0000000  0  8 16 24 03 12 20 13 25 17
  21532893.23006 -10027981.36306  -7813999.59809  21532761.16006  21532764.02106
  22490004.03906  10806995.43806   8421031.39009  22489872.43006  22489875.25906
  23827710.51806  -8892411.07706  -6929139.97209  23827579.01906  23827583.95406
  24634176.94606  16613636.79906  12945664.69909  24634045.74706  24634055.62806
  20982997.28306  -9946378.29906  -7750422.60509  20982865.76206  20982868.24606
  25526464.53106     73917.63706     57597.42209  25526333.21806  25526340.42606
  24949809.67006  -3683787.82106  -2870486.96209  24949678.71606  24949683.75306
  24654951.52606  -3012361.63806  -2347291.46009  24654819.42806  24654827.88106
 92  8 21 20  0  0.0000000  0  8 16 24 03 12 13 20 25 17
  21528664.20106 -10050205.03906  -7831316.72509  21528532.16106  21528535.00906
  22505769.22106  10889841.15806   8485586.45809  22505637.50206  22505640.27606
  23817414.21606  -8946515.43806  -6971299.13009  23817283.10506  23817288.20206
  24655965.56306  16728134.13606  13034883.05309  24655834.40006  24655844.44306
  25540544.80406    147912.20306    115255.43709  25540413.84106  25540420.41506
  20979003.53006  -9967366.09006  -7766776.73409  20978871.94006  20978874.41706
  24949167.14706  -3687176.14906  -2873127.23209  24949034.70206  24949038.76706
  24638620.70206  -3098172.64106  -2414157.00909  24638489.30106  24638497.80206
 92  8 21 20  0 30.0000000  0  8 16 24 03 12 13 20 25 17
  21524550.26306 -10071823.70506  -7848162.41409  21524418.19806  21524421.09006
  22521566.85306  10972859.48006   8550276.02009  22521435.37406  22521438.15206
  23807131.23706  -9000553.99506  -7013407.01609  23806999.82506  23807004.86606
  24677766.79806  16842698.97306  13124153.98709  24677635.65306  24677645.79306
  25554637.37606    221968.87006    172961.85809  25554506.25706  25554513.19906
  20975125.10906  -9987747.78606  -7782658.58109  20974993.43806  20974995.87006
  24948629.81306  -3690001.07506  -2875328.52609  24948497.46806  24948500.96706
  24622330.69906  -3183780.83606  -2480864.53409  24622198.73806  24622207.37406
 92  8 21 20  1  0.0000000  0  8 16 24 03 12 13 20 25 17
  21520550.63206 -10092841.67606  -7864540.02609  21520418.57006  21520421.50106
  22537394.87706  11056035.56406   8615088.51609  22537263.28306  22537266.06806
  23796857.50906  -9054541.73206  -7055475.29909  23796726.16306  23796731.11306
  24699577.01306  16957313.35006  13213463.50409  24699446.07806  24699456.31706
  25568739.05206    296073.58806    230705.75309  25568608.18206  25568615.02306
  20971359.36706 -10007536.58306  -7798078.43109  20971227.77906  20971230.18906
  24948193.81706  -3692288.52506  -2877111.02809  24948061.87406  24948065.63706
  24606078.27406  -3269187.18706  -2547414.74909  24605945.92606  24605955.34006
 92  8 21 20  1 30.0000000  0  8 16 24 03 12 13 20 25 17
  21516656.89006 -10113303.15406  -7880484.00309  21516524.85806  21516527.77106
  22553249.89206  11139353.95606   8680011.89609  22553118.32706  22553121.07606
  23786589.14006  -9108500.74306  -7097521.20309  23786458.10706  23786462.88606
  24721392.31306  17071952.17406  13302792.07109  24721261.43806  24721271.61506
  25582846.06606    370204.74406    288470.21709  25582714.93706  25582722.46006
  20967702.59006 -10026753.05306  -7813052.30909  20967571.03506  20967573.39306
  24947849.94206  -3694084.71106  -2878510.68409  24947719.41906  24947724.46706
  24589860.97306  -3354407.43706  -2613819.90609  24589729.08306  24589737.62106
 92  8 21 20  2  0.0000000  0  8 16 24 03 12 13 20 25 17
  21512861.31006 -10133249.12206  -7896026.28509  21512729.27106  21512732.20606
  22569130.27506  11222806.05306   8745039.46209  22568998.80206  22569001.59306
  23776323.32106  -9162448.94206  -7139558.69309  23776192.11906  23776196.70706
  24743208.65506  17186594.46406  13392123.38409  24743077.64806  24743087.90506
  25596954.69306    444345.59506    346242.19009  25596823.53606  25596831.09206
  20964151.58006 -10045413.45906  -7827592.89009  20964020.04406  20964022.42806
  24947599.09706  -3695405.91606  -2879540.24709  24947468.31006  24947473.51206
  24573674.00406  -3439472.16606  -2680104.00709  24573541.95906  24573549.76806
 92  8 21 20  2 30.0000000  0  8 16 24 03 12 13 20 25 17
  21509162.07206 -10152688.42106  -7911173.76409  21509030.08806  21509032.98606
  22585032.06006  11306370.56706   8810154.63009  22584900.62606  22584903.41006
  23766056.92406  -9216402.49206  -7181600.36109  23765925.21406  23765929.54406
  24765021.81306  17301221.04706  13481442.42409  24764890.53806  24764901.07506
  25611062.07606    518480.41306    404009.48809  25610930.98706  25610938.75906
  20960703.70306 -10063532.38106  -7841711.53709  20960572.10106  20960574.53706
  24947437.53806  -3696263.64706  -2880208.65009  24947305.37006  24947310.34706
  24557513.06606  -3524395.06306  -2746277.53309  24557381.42806  24557390.28406
 92  8 21 20  3  0.0000000  0  8 16 24 03 12 13 20 25 17
  21505559.09106 -10171622.44506  -7925927.52109  21505426.98106  21505429.84006
  22600949.14006  11390014.02506   8875331.30609  22600817.45106  22600820.29606
  23755784.82606  -9270380.85206  -7223661.35809  23755653.36506  23755657.82406
  24786827.42206  17415809.50806  13570731.70909  24786696.09006  24786706.99106
  25625164.36006    592590.37006    461757.41509  25625033.68406  25625041.27806
  20957355.32406 -10081128.00106  -7855422.41509  20957223.78906  20957226.23806
  24947361.13706  -3696668.62506  -2880524.28009  24947228.94306  24947232.93906
  24541377.20006  -3609188.31706  -2812350.00109  24541245.69906  24541254.30106
 92  8 21 20  3 30.0000000  4  1
 -2341103.0000 -4689265.0000  3623535.0000                  APPROX POSITION XYZ
 92  8 21 20  3 30.0000000  0  7 16 24 03 12 25 17 20
  21502048.21106 -10190071.26106  -7940303.19309  21501916.22406  21501919.13106
  22616876.16906  11473709.83606   8940548.77809  22616744.37806  22616747.15306
  23745504.64506  -9324402.48706  -7265756.06909  23745373.33006  23745377.88706
  24808621.89206  17530338.47306  13659974.63709  24808490.68706  24808501.38006
  24947369.25306  -3696618.14006  -2880485.00309  24947237.93306  24947242.58406
  24525260.01906  -3693884.70806  -2878347.02309  24525128.49606  24525136.38206
  20954103.39206 -10098217.07506  -7868738.58309  20953971.85106  20953974.29006
 92  8 21 20  4  0.0000000  0  7 16 24 03 12 25 17 20
  21498633.23106 -10208017.16406  -7954286.98609  21498501.26406  21498504.14106
  22632811.58806  11557450.40006   9005801.12009  22632679.68806  22632682.55206
  23735217.21906  -9378463.28406  -7307881.29709  23735085.82306  23735090.47006
  24830405.15906  17644808.91806  13749172.03209  24830274.11906  24830284.40106
  24947470.80406  -3696080.18606  -2880065.84209  24947340.00206  24947344.60906
  24509161.99306  -3778480.07406  -2944265.35309  24509030.58006  24509038.63206
  20950948.93506 -10114794.17806  -7881655.81109  20950817.34306  20950819.76306
 92  8 21 20  4 30.0000000  0  7 16 24 03 12 25 17 20
  21495320.89906 -10225423.50706  -7967850.34309  21495188.94306  21495191.81106
  22648754.78306  11641233.29706   9071086.46009  22648623.10906  22648625.92306
  23724923.97506  -9432552.27306  -7350028.49909  23724792.88606  23724797.64106
  24852178.57406  17759228.83106  13838330.04709  24852047.74006  24852058.34206
  24947669.93306  -3695037.90206  -2879253.73309  24947538.45806  24947543.28006
  24493086.73306  -3862954.75506  -3010089.58309  24492954.89606  24492963.53206
  20947894.20106 -10130846.71206  -7894164.28809  20947762.62806  20947765.10306
 92  8 21 20  5  0.0000000  0  7 16 24 03 12 25 17 20
  21492115.92006 -10242266.58806  -7980974.79309  21491983.85906  21491986.68406
  22664710.01706  11725078.45006   9136420.30109  22664578.25306  22664581.14506
  23714629.13406  -9486651.49906  -7392183.67209  23714498.03506  23714502.77706
  24873945.48706  17873613.27506  13927460.36409  24873814.51106  24873825.65206
  24947966.95206  -3693473.76406  -2878034.99209  24947836.29906  24947840.55806
  24477036.38606  -3947300.45106  -3075813.34609  24476904.42306  24476912.79606
  20944943.07806 -10146355.00306  -7906248.68009  20944811.51806  20944814.03406
 92  8 21 20  5 30.0000000  0  7 16 24 03 12 25 17 20
  21489016.28306 -10258554.41706  -7993666.57709  21488884.26906  21488887.16506
  22680681.38706  11809009.23106   9201820.87709  22680549.74606  22680552.65406
  23704333.91306  -9540755.39006  -7434342.48409  23704202.39406  23704207.06806
  24895706.34606  17987964.64806  14016564.90409  24895575.28206  24895586.39106
  24948365.63306  -3691391.33606  -2876412.43109  24948233.23506  24948237.05806
  24461010.90206  -4031512.20306  -3141432.72009  24460879.04206  24460887.74806
  20942096.84906 -10161312.35106  -7917903.76409  20941965.26506  20941967.73706
 92  8 21 20  6  0.0000000  0  7 16 24 03 12 25 17 20
  21486021.19306 -10274293.30006  -8005930.60909  21485889.24206  21485892.14506
  22696667.94906  11893018.93006   9267282.93509  22696536.36206  22696539.26106
  23694036.11806  -9594870.51206  -7476510.04609  23693904.65206  23693909.34006
  24917458.87606  18102273.57006  14105636.38209  24917327.79406  24917338.90506
  24948856.48406  -3688816.40506  -2874406.06109  24948723.80406  24948727.86906
  24445014.65106  -4115577.14606  -3206937.69309  24444882.51506  24444890.57106
  20939354.50406 -10175723.88306  -7929133.54109  20939222.83306  20939225.32406
 92  8 21 20  6 30.0000000  0  7 16 24 03 12 25 17 20
  21483130.10706 -10289486.46806  -8017769.41109  21482998.00606  21483000.87606
  22712669.24106  11977105.63506   9332805.00209  22712537.47506  22712540.42606
  23683736.32706  -9648995.84706  -7518685.56509  23683605.00406  23683609.57106
  24939202.95906  18216537.93806  14194673.16109  24939071.90806  24939082.91306
  24949438.00006  -3685759.15906  -2872023.86509  24949305.84606  24949309.49106
  24429046.95506  -4199485.99906  -3272321.06209  24428914.72906  24428923.11406
  20936716.26906 -10189587.11706  -7939936.07009  20936584.73106  20936587.21106
 92  8 21 20  7  0.0000000  0  7 16 24 03 12 25 17 20
  21480338.40806 -10304156.94606  -8029200.92409  21480206.34106  21480209.16806
  22728688.89006  12061289.66006   9398402.90309  22728557.24606  22728560.17506
  23673435.51406  -9703128.25606  -7560866.60909  23673304.01806  23673308.36106
  24960938.44506  18330757.77206  14283675.24809  24960807.32806  24960818.63406
  24950111.26906  -3682224.19206  -2869269.43709  24949978.70806  24949982.02006
  24413110.01006  -4283235.77206  -3337580.45109  24412977.91906  24412985.78306
  20934183.17906 -10202897.98006  -7950308.18509  20934051.72306  20934054.24106
 92  8 21 20  7 30.0000000  0  7 16 24 03 12 25 17 20
  21477645.94406 -10318305.16206  -8040225.48309  21477513.96506  21477516.82006
  22744729.92206  12145583.34906   9464086.25009  22744597.87706  22744600.69906
  23663133.96606  -9757261.54406  -7603048.34109  23663002.63206  23663006.93106
  24982666.24106  18444936.42306  14372645.20609  24982535.20906  24982546.69106
  24950875.16206  -3678209.45806  -2866141.14709  24950742.58606  24950746.33206
  24397206.96306  -4366805.96306  -3402699.95209  24397075.07806  24397083.10706
  20931756.85106 -10215648.84006  -7960243.93209  20931625.34706  20931627.83006
 92  8 21 20  8  0.0000000  0  7 16 24 03 12 25 17 20
  21475057.13206 -10331909.30706  -8050826.09009  21474925.12306  21474927.99806
  22760790.69706  12229984.45806   9529853.31609  22760658.80606  22760661.79506
  23652834.82806  -9811382.49606  -7645220.44809  23652703.46806  23652708.00906
  25004388.54006  18559084.14406  14461591.05509  25004257.37706  25004268.87806
  24951731.61906  -3673702.41606  -2862629.23109  24951599.64706  24951604.10706
  24381339.60406  -4450186.76306  -3467671.81409  24381207.80406  24381216.09606
  20929439.87306 -10227824.84406  -7969731.74209  20929308.36806  20929310.88306
 92  8 21 20  8 30.0000000  0  7 16 24 03 12 25 17 20
  21472574.67806 -10344954.45806  -8060991.11609  21472442.70906  21472445.60906
  22776875.40506  12314509.55206   9595716.97709  22776743.38006  22776746.37906
  23642539.77306  -9865483.68406  -7687377.15909  23642408.32806  23642412.94906
  25026105.24806  18673205.11606  14550516.08109  25025974.19206  25025985.65306
  24952685.42306  -3668689.75206  -2858723.29809  24952552.90706  24952558.17606
  24365507.40506  -4533383.37006  -3532500.18609  24365375.91906  24365383.96506
  20927233.94506 -10239417.59106  -7978765.06309  20927102.37206  20927104.83806
 92  8 21 20  9  0.0000000  0  7 16 24 03 12 25 17 20
  21470202.33106 -10357421.63306  -8070705.76909  21470070.30606  21470073.19806
  22792985.11506  12399167.03306   9661683.80609  22792853.20706  22792856.36506
  23632250.52806  -9919555.77206  -7729511.19109  23632118.84106  23632123.42006
  25047818.27006  18787305.69506  14639425.20409  25047686.98406  25047698.69306
  24953734.47306  -3663171.29206  -2854423.25509  24953602.95606  24953608.27906
  24349710.62306  -4616394.53506  -3597184.01809  24349578.98006  24349587.11206
  20925140.92406 -10250416.70206  -7987335.81109  20925009.32606  20925011.79906
 92  8 21 20  9 30.0000000  0  7 16 24 03 12 25 17 20
  21467945.16306 -10369282.97306  -8079948.34509  21467813.16506  21467815.97706
  22809115.43906  12483933.12106   9727735.25209  22808983.64906  22808986.69506
  23621967.83606  -9973590.28406  -7771615.94209  23621836.37906  23621841.04106
  25069528.49206  18901391.66006  14728322.91709  25069397.01306  25069408.90406
  24954883.11306  -3657132.21906  -2849717.53209  24954751.88106  24954757.65906
  24333951.69206  -4699207.37706  -3661713.32309  24333820.25506  24333828.11406
  20923162.65906 -10260812.43306  -7995436.39209  20923031.11406  20923033.58906
 92  8 21 20 10  0.0000000  0  7 16 24 03 12 25 17 20
  21465802.04406 -10380544.85006  -8088723.80609  21465670.09806  21465672.90906
  22825260.57706  12568774.01106   9793844.99509  22825128.48806  22825131.42706
  23611690.03206 -10027598.61306  -7813700.30309  23611558.83706  23611563.49706
  25091232.80706  19015448.29006  14817197.78709  25091101.48106  25091113.39406
  24956129.19506  -3650583.48606  -2844614.70309  24955998.23606  24956003.85406
  24318227.08906  -4781841.04206  -3726103.01409  24318095.30606  24318102.99706
  20921297.26506 -10270615.35206  -8003075.04109  20921165.68406  20921168.18106
 92  8 21 20 10 30.0000000  0  7 16 24 03 12 25 17 20
  21463770.37206 -10391221.23606  -8097043.04109  21463638.46606  21463641.25906
  22841415.94606  12653673.06006   9860000.05009  22841284.21806  22841287.14506
  23601414.80306 -10081595.27906  -7855775.57009  23601283.40306  23601288.11406
  25112928.64906  19129458.18606  14906036.24609  25112797.11006  25112809.36406
  24957471.71906  -3643533.02506  -2839120.95009  24957340.37206  24957345.22206
  24302535.05806  -4864305.26906  -3790360.68109  24302402.99206  24302410.72106
  20919542.27106 -10279838.14506  -8010261.64409  20919410.61206  20919413.12706
 92  8 21 20 11  0.0000000  0  7 16 24 03 12 25 17 20
  21461847.10006 -10401328.55106  -8104918.84709  21461715.01706  21461717.83306
  22857577.53906  12738603.09006   9926179.27109  22857445.91806  22857448.83406
  23591139.40006 -10135594.47706  -7897852.80209  23591007.93006  23591012.31806
  25134612.02906  19243404.16806  14994824.89809  25134480.75906  25134492.93806
  24958906.53906  -3635991.21106  -2833244.28009  24958775.41406  24958780.36306
  24286871.54806  -4946615.54606  -3854498.38509  24286739.83106  24286747.11706
  20917894.80606 -10288494.31306  -8017006.72009  20917763.36706  20917765.94206
 92  8 21 20 11 30.0000000  0  7 16 24 03 12 25 17 20
  21460029.32006 -10410880.30906  -8112361.74909  21459897.39406  21459900.21706
  22873744.10906  12823558.78506   9992378.46209  22873612.35906  22873615.52206
  23580861.40506 -10189607.81706  -7939941.05409  23580729.63806  23580734.05106
  25156280.39706  19357271.45706  15083552.22509  25156149.30806  25156161.65406
  24960435.17406  -3627956.22106  -2826983.30809  24960304.06406  24960309.70606
  24271236.73006  -5028776.22406  -3918519.52609  24271104.72006  24271112.54606
  20916353.49306 -10296594.43206  -8023318.51409  20916221.97806  20916224.54406
 92  8 21 20 12  0.0000000  0  7 16 24 03 12 25 17 20
  21458315.85206 -10419884.67606  -8119378.11309  21458183.94506  21458186.71506
  22889920.86706  12908568.06206  10058619.41309  22889789.10906  22889792.31506
  23570580.72806 -10243632.54806  -7982038.19009  23570449.04606  23570453.51506
  25177933.96906  19471060.08806  15172218.25009  25177802.89206  25177815.35706
  24962058.81506  -3619422.23906  -2820333.55909  24961928.01106  24961933.86406
  24255632.22606  -5110778.69806  -3982417.36309  24255500.31106  24255508.17406
  20914918.69206 -10304134.59906  -8029193.98109  20914787.19006  20914789.70506
 92  8 21 20 12 30.0000000  0  7 16 24 03 12 25 17 20
  21456707.98106 -10428334.53606  -8125962.39209  21456575.98906  21456578.74606
  22906113.28406  12993659.18006  10124924.12709  22905981.53406  22905984.69406
  23560299.22806 -10297660.98006  -8024138.21309  23560167.63206  23560172.08906
  25199573.65406  19584774.36806  15260826.33109  25199442.36706  25199454.88106
  24963777.73706  -3610384.93506  -2813291.58109  24963647.52006  24963653.83006
  24240059.16006  -5192613.61506  -4046184.64009  24239927.40806  24239935.09006
  20913592.16306 -10311106.28006  -8034626.47009  20913460.58406  20913463.05206
 92  8 21 20 13  0.0000000  0  7 16 24 03 12 25 17 20
  21455204.16906 -10436236.87906  -8132120.03809  21455072.14106  21455074.85906
  22922322.86506  13078840.90406  10191299.45909  22922191.16906  22922194.21306
  23550016.88306 -10351692.67206  -8066240.76209  23549885.53206  23549889.98106
  25221198.44106  19698412.10006  15349374.76409  25221067.22606  25221079.84606
  24965591.52306  -3600862.64506  -2805871.68809  24965460.15006  24965465.97206
  24224519.29706  -5274277.07906  -4109818.32609  24224387.47006  24224395.15306
  20912374.01906 -10317507.68606  -8039614.59009  20912242.43206  20912244.88306
 92  8 21 20 13 30.0000000  0  7 16 24 03 12 25 17 20
  21453804.95306 -10443590.30806  -8137849.96009  21453672.85806  21453675.64506
  22938551.77006  13164126.31706  10257755.56809  22938420.40006  22938423.64406
  23539735.74906 -10405720.77706  -8108340.51609  23539604.31406  23539608.56006
  25242809.42406  19811976.48306  15437866.09109  25242678.18206  25242690.78106
  24967495.57806  -3590858.26606  -2798076.16809  24967364.32606  24967370.08706
  24209015.79406  -5355744.51906  -4173299.22709  24208884.04306  24208892.04306
  20911265.70806 -10323331.81906  -8044152.88709  20911134.09806  20911136.61806
 92  8 21 20 14  0.0000000  0  7 16 24 03 12 25 17 20
  21452509.29206 -10450397.89806  -8143154.55109  21452377.33806  21452380.10106
  22954797.90806  13249499.09106  10324279.77009  22954666.20806  22954669.54106
  23529455.04506 -10459746.89206  -8150438.72109  23529323.47706  23529327.74906
  25264406.13406  19925463.65106  15526297.24309  25264274.55506  25264287.09006
  24969486.63706  -3580395.84406  -2789923.71009  24969355.10206  24969360.71606
  24193549.58306  -5437020.44206  -4236630.93009  24193417.79206  24193425.32906
  20910267.12306 -10328578.76006  -8048241.42809  20910135.61806  20910138.17306
 92  8 21 20 14 30.0000000  0  7 16 03 24 12 25 17 20
  21451322.37006 -10456635.13106  -8148014.70609  21451190.32306  21451193.12706
  23519175.67806 -10513764.62806  -8192530.39809  23519044.11106  23519048.58906
  22971059.24506  13334952.31306  10390866.64309  22970927.71106  22970930.55306
  25285987.70506  20038876.29706  15614670.31409  25285856.45606  25285869.33606
  24971562.49406  -3569485.00906  -2781421.82309  24971431.18106  24971437.19906
  24178119.98606  -5518104.20006  -4299812.88009  24177987.78606  24177995.66106
  20909379.89506 -10333241.83106  -8051875.00609  20909248.29106  20909250.82706
 92  8 21 20 15  0.0000000  0  7 16 03 24 12 25 17 20
  21450246.42406 -10462288.79506  -8152420.13309  21450114.49506  21450117.23106
  23508898.73206 -10567768.10206  -8234610.95809  23508767.48906  23508772.15406
  22987334.58506  13420478.81906  10457510.63009  22987202.77606  22987205.98806
  25307555.91806  20152217.85106  15702987.96309  25307424.98306  25307437.98406
  24973726.44406  -3558110.47306  -2772558.60409  24973595.52406  24973601.77606
  24162729.47506  -5598982.19606  -4362834.50809  24162597.48106  24162604.65606
  20908605.13106 -10337313.81906  -8055048.00109  20908473.48706  20908475.99006
 92  8 21 20 15 30.0000000  0  7 16 03 24 12 25 17 20
  21449284.71106 -10467342.74106  -8156358.25409  21449152.77406  21449155.50206
  23498625.22006 -10621756.03606  -8276679.40109  23498493.84206  23498498.41506
  23003622.20406  13506067.43306  10524203.01309  23003489.86106  23003492.78506
  25329110.59706  20265486.65306  15791248.89109  25328979.46306  25328992.81906
  24975983.19806  -3546256.53206  -2763321.83209  24975851.51306  24975857.23006
  24147376.85506  -5679658.60506  -4425699.07009  24147244.98106  24147252.25106
  20907943.17106 -10340792.54006  -8057758.71209  20907811.55606  20907814.00506
 92  8 21 20 16  0.0000000  0  7 16 03 24 12 25 17 20
  21448437.96606 -10471792.10306  -8159825.26809  21448306.02606  21448308.81706
  23488353.44706 -10675736.36306  -8318741.92009  23488221.81106  23488226.32606
  23019916.74606  13591699.93306  10590929.58809  23019785.23406  23019788.23506
  25350649.56106  20378671.24006  15879444.15909  25350518.06106  25350531.55606
  24978329.65606  -3533927.76106  -2753715.06809  24978197.65306  24978203.17206
  24132057.72106  -5760160.95706  -4488427.99609  24131925.86806  24131933.10406
  20907392.53006 -10343685.77406  -8060013.19709  20907260.93406  20907263.43806
 92  8 21 20 16 30.0000000  0  7 16 03 24 12 25 17 20
  21447706.13406 -10475638.74406  -8162822.62709  21447574.09006  21447576.84206
  23478083.63106 -10729704.67906  -8360795.08809  23477952.05306  23477956.35106
  23036225.82006  13677400.36106  10657709.09909  23036093.55906  23036096.33206
  25372172.58006  20491773.08306  15967574.97909  25372041.16906  25372054.55106
  24980770.10206  -3521096.79006  -2743717.00709  24980639.29306  24980644.91906
  24116773.09006  -5840479.65106  -4551013.80409  24116641.28306  24116648.38006
  20906954.38706 -10345988.01606  -8061807.16909  20906822.85606  20906825.33906
 92  8 21 20 17  0.0000000  0  7 16 03 24 12 25 17 20
  21447082.73106 -10478914.88706  -8165375.44509  21446950.67506  21446953.37406
  23467814.24906 -10783668.43706  -8402844.70809  23467682.96306  23467687.22606
  23052547.11506  13763171.36506  10724543.61209  23052415.21006  23052418.15806
  25393678.07006  20604782.01806  16055633.41609  25393546.50306  25393559.97906
  24983307.39406  -3507763.18806  -2733327.26409  24983176.28706  24983182.26906
  24101522.35106  -5920621.62106  -4613461.91809  24101390.55706  24101398.05306
  20906627.52906 -10347705.88406  -8063145.78509  20906495.96906  20906498.47206
 92  8 21 20 17 30.0000000  0  7 16 03 24 12 25 17 20
  21446563.31106 -10481643.73906  -8167501.80309  21446431.31806  21446433.99806
  23457543.12306 -10837643.47406  -8444903.11509  23457411.73406  23457416.07806
  23068879.13606  13848995.79406  10791419.73809  23068747.19006  23068750.19606
  25415161.72806  20717678.90706  16143604.56009  25415030.47806  25415043.96506
  24985935.43206  -3493949.79006  -2722563.64009  24985805.03706  24985811.46806
  24086301.02906  -6000612.37106  -4675792.18209  24086169.03706  24086175.90106
  20906408.90806 -10348855.05406  -8064041.26009  20906277.30406  20906279.79906
 92  8 21 20 18  0.0000000  0  7 16 03 24 12 25 17 20
  21446143.25106 -10483851.04106  -8169221.75909  21446011.24406  21446013.92006
  23447267.85406 -10891639.27506  -8486977.69809  23447136.61306  23447140.94606
  23085221.25006  13934873.22306  10858337.17609  23085089.23306  23085092.18606
  25436621.94006  20830451.50606  16231478.87309  25436490.65206  25436504.42206
  24988656.55606  -3479662.13106  -2711430.48809  24988525.06806  24988530.76806
  24071107.20006  -6080453.29706  -4738005.73009  24070975.28306  24070982.73106
  20906296.90306 -10349443.96306  -8064500.16609  20906165.28406  20906167.74506
 92  8 21 20 18 30.0000000  0  7 16 03 24 12 25 17 20
  21445822.40006 -10485537.50706  -8170535.87009  21445690.30906  21445692.99506
  23436990.78906 -10945645.28706  -8529060.24109  23436859.55106  23436863.93406
  23101576.23206  14020819.85006  10925308.51709  23101444.29306  23101447.46006
  25458060.19206  20943107.05606  16319261.97509  25457928.71306  25457942.38706
  24991467.54106  -3464892.97406  -2699922.13009  24991335.76206  24991341.22406
  24055946.36606  -6160126.67206  -4800088.68709  24055814.37706  24055821.21006
  20906293.53306 -10349461.67206  -8064513.98009  20906161.94506  20906164.37906
 92  8 21 20 19  0.0000000  0  7 16 03 24 12 25 17 20
  21445605.27206 -10486678.53006  -8171424.95909  21445473.23306  21445475.86106
  23426712.63206 -10999656.49506  -8571146.83809  23426581.45206  23426585.97106
  23117941.12106  14106820.02106  10992321.59409  23117809.51006  23117812.61706
  25479476.16206  21055647.57506  16406955.43009  25479344.77206  25479358.53206
  24994370.20006  -3449644.89606  -2688040.59709  24994238.05706  24994243.31406
  24040815.29806  -6239635.99306  -4862043.84009  24040683.52806  24040690.84906
  20906399.88006 -10348902.62106  -8064078.37009  20906268.27606  20906270.78006
 92  8 21 20 19 30.0000000  0  7 16 03 24 12 25 17 20
  21445497.02006 -10487247.57206  -8171868.35009  21445364.95906  21445367.57006
  23416435.25406 -11053663.09406  -8613229.84609  23416304.26706  23416308.87806
  23134316.69306  14192871.64306  11059374.76109  23134184.66206  23134187.83906
  25500872.01606  21168079.94806  16494564.59009  25500740.26806  25500754.23906
  24997365.08306  -3433907.98006  -2675778.15209  24997232.91806  24997237.76706
  24025719.18606  -6318968.52106  -4923861.21109  24025587.26706  24025594.31006
  20906617.86306 -10347756.64406  -8063185.41409  20906486.30606  20906488.84606
 92  8 21 20 20  0.0000000  0  7 16 03 24 12 25 17 20
  21445500.84906 -10487226.82106  -8171852.16209  21445368.82306  21445371.46206
  23406161.34506 -11107653.94006  -8655300.57209  23406030.06006  23406034.84506
  23150704.15706  14278990.60806  11126480.39409  23150572.44406  23150575.64606
  25522248.79006  21280412.29806  16582095.79809  25522116.63606  25522130.88606
  25000451.94806  -3417681.02906  -2663133.84309  25000320.01706  25000325.76306
  24010658.71706  -6398110.55306  -4985530.15909  24010527.02606  24010533.74206
  20906949.86506 -10346011.84406  -8061825.84509  20906818.35206  20906820.90406
 92  8 21 20 20 30.0000000  0  7 16 03 24 12 25 20 17
  21445620.97406 -10486595.46506  -8171360.17909  21445488.94906  21445491.58306
  23395891.90106 -11161620.77906  -8697352.59309  23395760.47806  23395765.15306
  23167106.33206  14365181.20506  11193641.85909  23166974.23906  23166977.07806
  25543606.56606  21392649.84106  16669553.13009  25543475.35206  25543489.60506
  25003631.39106  -3400968.00306  -2650110.78009  25003499.75206  25003505.69806
  20907397.72306 -10343658.99906  -8059992.47609  20907266.10206  20907268.67206
  23995634.54406  -6477062.96806  -5047051.35109  23995502.89706  23995509.56206
 92  8 21 20 21  0.0000000  0  7 16 03 24 12 25 17 20
  21445857.08706 -10485354.06406  -8170392.84009  21445725.13106  21445727.75306
  23385626.27306 -11215565.13306  -8739387.09609  23385495.14506  23385499.83906
  23183520.62006  14451440.56406  11260856.89309  23183388.76206  23183391.76106
  25564946.32506  21504788.21606  16756933.19209  25564814.78806  25564829.26906
  25006903.89106  -3383764.21606  -2636705.31809  25006773.31506  25006779.29706
  23980647.90606  -6555816.34306  -5108417.47409  23980516.23306  23980523.03306
  20907960.81506 -10340699.77806  -8057686.60709  20907829.25406  20907831.82906
 92  8 21 20 21 30.0000000  0  7 16 03 24 12 25 17 20
  21446206.49506 -10483518.86006  -8168962.79709  21446074.36606  21446077.01606
  23375365.21206 -11269489.47606  -8781406.00809  23375233.76306  23375238.25606
  23199951.09806  14537781.57106  11328135.56709  23199819.03306  23199821.89806
  25586265.86406  21616821.43606  16844231.31309  25586134.59206  25586148.94606
  25010267.59506  -3366081.45206  -2622926.61409  25010137.90706  25010144.21006
  23965700.45706  -6634365.23506  -5169624.19909  23965568.52006  23965575.89406
  20908638.88906 -10337136.47406  -8054910.02209  20908507.33806  20908509.94206
 92  8 21 20 22  0.0000000  0  7 16 03 24 12 25 20 17
  21446664.98706 -10481109.15706  -8167085.09209  21446532.90006  21446535.50806
  23365105.51306 -11323405.65706  -8823418.55809  23364973.95406  23364978.21406
  23216395.64206  14624198.93606  11395473.73009  23216263.66806  23216266.81206
  25607562.72606  21728734.91706  16931436.12409  25607431.36306  25607445.78806
  25013723.82006  -3347929.19406  -2608782.08109  25013592.45506  25013598.70306
  20909429.87006 -10332980.20306  -8051671.38609  20909298.25606  20909300.86206
  23950791.04206  -6712715.85306  -5230676.45909  23950658.81606  23950665.70806
 92  8 21 20 22 30.0000000  0  7 16 03 24 12 25 20 17
  21447231.18006 -10478133.45706  -8164766.35309  21447099.20406  21447101.81306
  23354845.71806 -11377320.11406  -8865429.77809  23354714.31906  23354718.43006
  23232853.59206  14710686.66606  11462866.72809  23232721.75706  23232724.83306
  25628834.78906  21840519.21206  17018540.27809  25628703.48206  25628718.18906
  25017271.40406  -3329298.10306  -2594264.45409  25017138.85306  25017144.40006
  20910332.27206 -10328237.33906  -8047975.66509  20910200.78806  20910203.39006
  23935920.94906  -6790857.00706  -5291565.49709  23935788.81106  23935795.81306
 92  8 21 20 23  0.0000000  0  7 16 03 24 12 25 20 17
  21447905.00606 -10474592.18006  -8162006.90509  21447773.08306  21447775.70606
  23344586.53806 -11431232.23106  -8907439.17409  23344455.04706  23344459.16506
  23249324.88906  14797242.09106  11530312.46309  23249192.72106  23249195.89506
  25650081.73906  21952172.04206  17105541.98609  25649950.76306  25649965.50606
  25020909.20306  -3310185.16506  -2579371.31309  25020776.55706  25020781.84406
  20911346.73806 -10322906.78506  -8043822.00509  20911215.16206  20911217.78806
  23921093.47406  -6868775.85706  -5352281.30909  23920961.71506  23920968.17206
 92  8 21 20 23 30.0000000  0  7 16 03 24 12 25 20 17
  21448688.83906 -10470472.97606  -8158797.12309  21448556.87306  21448559.56206
  23334328.56806 -11485136.63106  -8949442.55309  23334197.36406  23334201.34406
  23265806.57306  14883856.48706  11597804.16509  23265674.89006  23265678.03606
  25671304.58106  22063695.69806  17192443.03009  25671173.37006  25671188.25106
  25024636.14606  -3290599.49606  -2564109.82309  25024503.56206  25024508.56206
  20912474.00306 -10316983.07606  -8039206.14609  20912342.42006  20912345.06206
  23906308.35306  -6946470.49906  -5412822.44309  23906176.59706  23906183.23406
 92  8 21 20 24  0.0000000  0  7 16 03 24 12 25 20 17
  21449584.03306 -10465768.58406  -8155131.35009  21449452.05906  21449454.76606
  23324072.30206 -11539033.66906  -8991440.18209  23323941.10806  23323945.05306
  23282296.36006  14970508.09906  11665324.85609  23282164.12506  23282167.44806
  25692501.90706  22175086.79306  17279240.78409  25692370.65406  25692385.76706
  25028452.53306  -3270535.80206  -2548475.85509  25028320.91406  25028326.81106
  20913714.18406 -10310466.11506  -8034128.01209  20913582.61206  20913585.20906
  23891565.13806  -7023945.83506  -5473192.64609  23891433.38206  23891439.91306
 92  8 21 20 24 30.0000000  0  7 16 03 24 12 25 20 17
  21450591.67106 -10460473.64506  -8151005.41009  21450459.63506  21450462.35506
  23313816.69606 -11592928.58906  -9033436.16409  23313685.28306  23313689.09506
  23298788.39106  15057176.68106  11732858.77309  23298656.69906  23298660.03706
  25713672.59106  22286336.76906  17365928.57209  25713541.31806  25713556.36906
  25032356.52506  -3250014.55506  -2532485.37609  25032225.43106  25032231.93506
  20915066.27206 -10303361.01006  -8028591.58109  20914934.68006  20914937.26406
  23876860.74406  -7101218.11006  -5533404.67009  23876728.84706  23876735.28206
 92  8 21 20 25  0.0000000  0  7 16 03 24 12 25 20 17
  21451710.35006 -10454595.04106  -8146424.66709  21451578.32706  21451580.95906
  23303560.87506 -11646823.80806  -9075432.39209  23303429.44206  23303433.21406
  23315280.12706  15143839.56506  11800388.23809  23315148.17706  23315151.64906
  25734815.31206  22397440.34706  17452502.28209  25734683.89506  25734699.25406
  25036345.16906  -3229057.47306  -2516155.27609  25036213.73906  25036219.98306
  20916529.75906 -10295670.24506  -8022598.79309  20916398.18906  20916400.81906
  23862190.60706  -7178310.81906  -5593476.75109  23862058.71006  23862065.17706
 92  8 21 20 25 30.0000000  0  7 16 03 24 12 25 17 20
  21452938.53906 -10448141.06406  -8141395.58209  21452806.49906  21452809.10606
  23293303.96906 -11700724.32406  -9117432.74609  23293172.40806  23293176.39606
  23331768.38706  15230487.46306  11867906.02809  23331636.70806  23331640.03806
  25755928.66806  22508389.54106  17538955.69709  25755797.30306  25755812.76806
  25040414.78506  -3207672.52006  -2499491.77209  25040283.42306  25040289.51006
  23847550.65806  -7255241.74106  -5653422.74809  23847418.72606  23847425.51606
  20918103.81806 -10287398.62106  -8016153.38809  20917972.24706  20917974.86006
 92  8 21 20 26  0.0000000  0  7 16 03 24 12 25 20 17
  21454270.60906 -10441141.55406  -8135941.40409  21454138.48806  21454141.07506
  23283042.31806 -11754648.55106  -9159451.57709  23282910.93206  23282915.12506
  23348252.74106  15317112.91106  11935406.34409  23348120.89606  23348124.20606
  25777008.63506  22619162.98106  17625272.16709  25776877.15806  25776892.76106
  25044564.37006  -3185871.63306  -2482504.15209  25044432.57306  25044437.80906
  20919784.94406 -10278564.41006  -8009269.60409  20919653.36706  20919655.98206
  23832938.37606  -7332030.66806  -5713258.15009  23832806.48306  23832812.54206
 92  8 21 20 26 30.0000000  0  7 16 03 24 12 25 20 17
  21455701.28806 -10433622.23906  -8130082.18309  21455569.34106  21455571.97906
  23272773.90506 -11808606.91706  -9201497.00509  23272642.77706  23272647.18406
  23364733.23806  15403716.24906  12002889.41009  23364601.17806  23364604.38606
  25798052.41206  22729747.03506  17711441.06409  25797920.99806  25797936.60506
  25048789.89606  -3163671.05506  -2465205.09109  25048657.63206  25048662.63606
  20921571.18406 -10269178.13306  -8001955.63909  20921439.47206  20921442.16506
  23818351.93506  -7408678.97606  -5772983.95309  23818220.28606  23818226.99106
 92  8 21 20 27  0.0000000  0  7 16 03 24 12 25 20 17
  21457226.60706 -10425607.05106  -8123836.56409  21457094.52906  21457097.23306
  23262496.99906 -11862613.36206  -9243579.89609  23262365.57106  23262370.03406
  23381207.10206  15490289.43906  12070349.00909  23381075.43306  23381078.55306
  25819057.01206  22840124.89406  17797449.28209  25818925.58706  25818941.33006
  25053090.35006  -3141071.00506  -2447594.77809  25052958.27906  25052963.16806
  20923459.71806 -10259253.68806  -7994222.32209  20923328.08806  20923330.77406
  23803791.26106  -7485197.92906  -5832608.93209  23803659.14106  23803665.75706
 92  8 21 20 27 30.0000000  0  7 16 03 24 12 25 20 17
  21458847.82506 -10417087.24906  -8117197.74109  21458715.82706  21458718.46006
  23252211.08406 -11916665.24806  -9285698.19909  23252079.82406  23252084.27106
  23397678.22006  15576843.63406  12137793.78809  23397546.28206  23397549.67106
  25840022.12506  22950296.19806  17883296.56309  25839890.80006  25839906.53106
  25057468.37706  -3118057.22406  -2429662.07909  25057336.81206  25057342.80906
  20925451.03006 -10248788.80906  -7986067.88909  20925319.47406  20925322.15506
  23789255.85006  -7561579.88706  -5892127.20009  23789124.01806  23789130.74906
 92  8 21 20 28  0.0000000  0  7 16 03 24 12 25 17 20
  21460566.42606 -10408054.98506  -8110159.59909  21460434.53106  21460437.15606
  23241918.32306 -11970754.65206  -9327845.73709  23241786.97106  23241791.24606
  23414146.08706  15663384.96006  12205228.53709  23414014.30506  23414017.84306
  25860948.62006  23060265.93006  17968986.79109  25860817.69506  25860833.75606
  25061928.05506  -3094623.98006  -2411402.55109  25061796.27906  25061802.34406
  23774750.68106  -7637806.25206  -5951524.21809  23774618.81106  23774624.98606
  20927546.85006 -10237775.32506  -7977485.97209  20927415.27206  20927417.93906
 92  8 21 20 28 30.0000000  0  7 16 03 24 25 12 17 20
  21462388.34306 -10398480.83106  -8102699.20409  21462256.36206  21462258.99206
  23231622.17606 -12024862.28506  -9370007.47709  23231490.66006  23231494.69506
  23430615.75906  15749931.78406  12272667.57909  23430483.92106  23430487.36106
  25066469.68906  -3070754.69106  -2392803.21409  25066338.56606  25066344.58506
  25881840.56506  23170049.93406  18054532.29709  25881709.03006  25881725.36506
  23760276.10006  -7713870.29506  -6010794.75209  23760144.26306  23760150.61306
  20929750.76806 -10226194.12206  -7968461.67509  20929619.16606  20929621.80806
 92  8 21 20 29  0.0000000  0  7 16 03 24 12 25 17 20
  21464320.65606 -10388327.08306  -8094787.17709  21464188.55706  21464191.17906
  23221325.34206 -12078971.32606  -9412170.31309  23221193.96606  23221198.06206
  23447089.44306  15836500.40806  12340123.59109  23446957.18306  23446960.93406
  25902699.71906  23279662.32306  18139944.07409  25902568.03006  25902584.57606
  25071099.58106  -3046432.22706  -2373850.76609  25070967.73506  25070973.36706
  23745832.66906  -7789766.94006  -6069934.85209  23745701.18806  23745707.77606
  20932065.85306 -10214028.40506  -7958981.91209  20931934.24106  20931936.86706
 92  8 21 20 29 30.0000000  0  7 16 03 24 25 12 17 20
  21466365.46306 -10377581.76006  -8086414.18409  21466233.30706  21466235.93906
  23211029.87106 -12133073.79806  -9454328.02909  23210898.60406  23210902.67206
  23463570.90106  15923109.71506  12407611.30809  23463438.76806  23463442.00506
  25075814.36206  -3021652.49406  -2354541.98209  25075683.08606  25075688.97606
  25923526.52806  23389107.97606  18225225.93609  25923395.14006  25923411.76006
  23731426.31506  -7865474.81706  -6128927.84909  23731294.48606  23731300.79806
  20934493.58606 -10201270.45406  -7949040.66909  20934362.01906  20934364.66806
 92  8 21 20 30  0.0000000  0  7 16 03 24 25 12 17 20
  21468522.29306 -10366247.09506  -8077581.96109  21468390.22006  21468392.83606
  23200736.81606 -12187164.65906  -9496476.69709  23200605.36106  23200609.47606
  23480063.21206  16009781.34006  12475147.59609  23479931.62706  23479935.10306
  25080617.86606  -2996410.26106  -2334872.78809  25080486.39406  25080492.49206
  25944322.47706  23498388.66706  18310379.24709  25944191.04806  25944207.58106
  23717058.59206  -7940979.60006  -6187762.59809  23716926.37406  23716932.26106
  20937034.94306 -10187915.43706  -7938634.18009  20936903.39406  20936906.07106
 92  8 21 20 30 30.0000000  0  7 16 03 24 25 12 17 20
  21470792.42506 -10354317.61106  -8068286.24709  21470660.33206  21470662.96506
  23190446.21106 -12241242.12006  -9538614.92709  23190314.75606  23190318.76406
  23496572.28606  16096532.36906  12542745.74609  23496440.04206  23496443.30506
  25085511.01506  -2970702.55906  -2314840.92709  25085378.56806  25085384.03006
  25965087.00006  23607503.76006  18395403.53809  25964955.37506  25964971.95206
  23702729.01606  -8016278.90606  -6246437.24509  23702597.16206  23702603.44106
  20939690.34506 -10173961.62206  -7927761.09609  20939558.69906  20939561.39906
 92  8 21 20 31  0.0000000  0  6 16 03 24 25 17 20
  21473172.47806 -10341810.36006  -8058540.32409  21473040.44806  21473043.05306
  23180156.43206 -12295313.60006  -9580748.49709  23180025.14006  23180029.26306
  23513093.14806  16183351.76206  12610397.18609  23512961.18806  23512964.40706
  25090490.44906  -2944528.93306  -2294445.99809  25090358.98206  25090364.28406
  23688442.56306  -8091355.00306  -6304937.95609  23688310.65406  23688316.55506
  20942457.97406 -10159417.09506  -7916427.71909  20942326.40206  20942329.12706
 92  8 21 20 31 30.0000000  0  6 16 03 24 25 17 20
  21475659.71906 -10328739.37006  -8048355.12209  21475527.71106  21475530.34206
  23169866.80206 -12349384.83506  -9622881.86909  23169735.70306  23169739.69706
  23529626.08506  16270233.10406  12678096.89509  23529494.12006  23529497.45606
  25095558.18506  -2917899.37006  -2273695.77809  25095426.46106  25095431.96206
  23674197.89406  -8166210.84906  -6363267.05009  23674065.86906  23674071.91106
  20945336.97706 -10144287.76906  -7904638.65509  20945205.44706  20945208.17706
 92  8 21 20 32  0.0000000  0  6 16 03 24 25 17 20
  21478254.34806 -10315104.42206  -8037730.47309  21478122.31706  21478124.98206
  23159577.78606 -12403456.75606  -9665015.78109  23159446.23106  23159450.14606
  23546166.66706  16357154.81706  12745828.03909  23546034.89906  23546038.28506
  25100708.70006  -2890830.37506  -2252603.16309  25100577.22106  25100583.39706
  23659992.96406  -8240857.74706  -6421433.29909  23659860.88406  23659867.07106
  20948327.33006 -10128574.58706  -7892394.63909  20948195.65806  20948198.35206
 92  8 21 20 32 30.0000000  0  6 16 03 24 25 17 20
  21480958.82106 -10300891.85706  -8026655.73009  21480826.87606  21480829.51306
  23149289.55106 -12457522.26906  -9707144.69809  23149157.94906  23149161.78006
  23562710.40306  16444092.68506  12813571.78409  23562578.56306  23562581.88506
  25105942.38606  -2863325.19406  -2231170.69909  25105811.18306  25105817.88806
  23645828.10106  -8315294.62206  -6479435.91909  23645696.04706  23645702.03806
  20951429.75106 -10112271.30706  -7879690.80809  20951298.11006  20951300.79306
 92  8 21 20 33  0.0000000  0  6 16 03 24 25 17 20
  21483773.33706 -10286101.75306  -8015130.95709  21483641.34006  21483644.03006
  23139001.88306 -12511581.99906  -9749269.11009  23138870.55706  23138874.47106
  23579251.05906  16531013.87006  12881302.53809  23579119.17806  23579122.57806
  25111261.14706  -2835384.36806  -2209398.74609  25111129.29206  25111135.24206
  23631701.33606  -8389529.47806  -6537281.11409  23631569.43406  23631575.33306
  20954644.27006 -10095378.88606  -7866527.90409  20954512.62906  20954515.32406
 92  8 21 20 33 30.0000000  4  1
 -2341103.0000 -4689265.0000  3623535.0000                  APPROX POSITION XYZ
 92  8 21 20 33 30.0000000  0  6 16 03 24 25 17 20
  21486699.06906 -10270727.42306  -8003150.94609  21486566.98806  21486569.62806
  23128715.05906 -12565638.42706  -9791390.94709  23128583.77006  23128587.83506
  23595784.80906  16617900.57906  12949006.42009  23595653.27806  23595656.66806
  25116655.46406  -2807040.43806  -2187312.67209  25116523.21206  25116529.06406
  23617609.58006  -8463582.11206  -6594984.32709  23617477.51906  23617483.32606
  20957970.36106 -10077900.41606  -7852908.34109  20957838.72606  20957841.37206
 92  8 21 20 34  0.0000000  0  6 16 03 24 25 17 20
  21489733.70506 -10254779.98706  -7990724.35609  21489601.62306  21489604.26206
  23118429.08106 -12619692.41506  -9833510.87909  23118297.62506  23118301.55506
  23612310.33806  16704742.61606  13016675.47709  23612178.75006  23612182.32606
  25122123.48606  -2778299.87806  -2164917.52109  25121991.81806  25121997.72406
  23603553.27006  -8537446.93406  -6652541.18809  23603421.47306  23603427.72806
  20961407.77906 -10059836.99106  -7838832.96309  20961276.08306  20961278.75806
 92  8 21 20 34 30.0000000  0  6 16 03 24 25 17 20
  21492874.37506 -10238275.26406  -7977863.51909  21492742.39406  21492744.99506
  23108143.08606 -12673745.08006  -9875629.78309  23108011.75406  23108015.67806
  23628829.37206  16791548.98406  13084316.75809  23628697.59806  23628700.99906
  25127668.12506  -2749159.05506  -2142210.48409  25127537.15906  25127543.13206
  23589532.92506  -8611125.92506  -6709953.25309  23589400.84906  23589406.44406
  20964955.89106 -10041190.62506  -7824303.34709  20964824.34006  20964827.07506
 92  8 21 20 35  0.0000000  0  6 16 03 24 25 17 20
  21496121.55306 -10221211.51706  -7964567.07709  21495989.54306  21495992.18006
  23097859.92806 -12727782.41306  -9917736.74109  23097728.72306  23097732.76506
  23645347.81906  16878357.36806  13151959.60109  23645216.52606  23645220.38806
  25133291.05506  -2719610.02106  -2119185.39309  25133159.98706  25133166.55306
  23575550.22606  -8684604.91906  -6767209.47109  23575418.19806  23575423.89506
  20968617.69306 -10021947.50806  -7809308.73209  20968486.19706  20968488.94706
 92  8 21 20 35 30.0000000  0  6 16 03 24 17 25 20
  21499475.68506 -10203586.34306  -7950833.16209  21499343.60106  21499346.16006
  23087580.93806 -12781798.47506  -9959827.13309  23087449.72506  23087453.73306
  23661875.99306  16965210.08006  13219636.97509  23661744.37706  23661747.65506
  23561605.96006  -8757880.39506  -6824307.10409  23561474.00106  23561479.96206
  25138991.63806  -2689659.80406  -2095847.69309  25138859.70406  25138866.10706
  20972394.09906 -10002102.58806  -7793845.17709  20972262.52306  20972265.30806
 92  8 21 20 36  0.0000000  0  6 16 03 24 17 25 20
  21502931.75006 -10185424.20906  -7936680.83709  21502799.67706  21502802.21206
  23077304.03106 -12835803.58106 -10001908.98909  23077172.85906  23077176.88006
  23678412.92306  17052114.78006  13287354.88809  23678281.47206  23678285.07306
  23547700.70406  -8830951.38006  -6881245.39209  23547568.94106  23547574.64006
  25144771.60206  -2659284.81006  -2072178.98309  25144640.21406  25144646.56706
  20976282.92506  -9981666.79206  -7777921.19909  20976151.35306  20976154.14006
 92  8 21 20 36 30.0000000  0  6 16 03 24 17 25 20
  21506487.42106 -10166738.76306  -7922120.73809  21506355.35706  21506357.92406
  23067025.31506 -12889818.06806 -10043998.15509  23066894.27606  23066898.23406
  23694959.05406  17139062.20306  13355106.05709  23694827.27706  23694831.15906
  23533830.25806  -8903840.82806  -6938042.23909  23533698.23306  23533704.08706
  25150631.44906  -2628500.31906  -2048191.19009  25150499.03106  25150505.06806
  20980280.30706  -9960660.84106  -7761552.94709  20980148.67306  20980151.46906
 92  8 21 20 37  0.0000000  0  6 20 16 03 24 17 25
  20984383.16906  -9939100.13806  -7744752.42009  20984251.57606  20984254.32406
  21510144.44406 -10147520.56906  -7907145.50709  21510012.43506  21510015.02106
  23056742.36006 -12943856.46506 -10086105.95109  23056611.10406  23056615.01106
  23711509.93706  17226038.49406  13422879.73209  23711378.20606  23711381.66406
  23519992.86506  -8976557.22006  -6994704.21609  23519860.90106  23519866.51906
  25156565.75906  -2597316.80906  -2023892.47109  25156433.24906  25156439.15006
 92  8 21 20 37 30.0000000  0  6 20 16 03 24 17 25
  20988591.73806  -9916983.89406  -7727519.00409  20988460.15206  20988462.96206
  21513905.02806 -10127758.99706  -7891746.86409  21513772.93906  21513775.50006
  23046454.93806 -12997917.23306 -10128231.18109  23046323.70906  23046327.49806
  23728063.57706  17313028.08306  13490663.79209  23727931.84306  23727935.45006
  23506188.05606  -9049099.66006  -7051230.65609  23506056.33206  23506062.05606
  25162577.00706  -2565721.99106  -1999273.25009  25162445.13606  25162451.64806
 92  8 21 20 38  0.0000000  0  6 20 16 03 24 17 25
  20992907.85406  -9894302.95206  -7709845.56509  20992776.23106  20992778.99506
  21517768.68906 -10107455.24806  -7875925.74609  21517636.61106  21517639.16006
  23036165.50406 -13051990.07606 -10170365.81509  23036034.05506  23036037.68806
  23744617.24106  17400016.49906  13558446.94009  23744485.30406  23744489.29806
  23492420.10706  -9121451.27406  -7107608.42309  23492288.29406  23492293.95306
  25168670.53206  -2533698.78906  -1974320.23909  25168538.93406  25168545.60906
 92  8 21 20 38 30.0000000  0  6 20 16 03 24 17 25
  20997333.19706  -9871047.62206  -7691724.54909  20997201.61406  20997204.32906
  21521739.60906 -10086587.54806  -7859665.19009  21521607.53606  21521610.08506
  23025875.73906 -13106064.63706 -10212501.79709  23025744.04706  23025747.56006
  23761168.82806  17486996.37106  13626223.39009  23761036.96306  23761040.47206
  23478688.82906  -9193611.67506  -7163837.15909  23478556.55206  23478562.26706
  25174842.73306  -2501264.34806  -1949046.75309  25174710.92506  25174717.79606
 92  8 21 20 39  0.0000000  0  6 20 16 03 24 17 25
  21001867.84006  -9847217.96906  -7673156.01109  21001736.22706  21001738.97006
  21525818.01906 -10065155.09206  -7842964.56209  21525685.91606  21525688.45906
  23015584.98106 -13160140.16806 -10254638.53509  23015453.72106  23015457.29006
  23777715.30706  17573945.19706  13693975.68309  23777583.05006  23777586.33606
  23464993.37406  -9265579.83306  -7219916.10509  23464861.29606  23464867.08206
  25181092.18906  -2468417.02506  -1923451.56009  25180960.93606  25180967.46806
 92  8 21 20 39 30.0000000  0  6 20 16 03 24 25 17
  21006512.16406  -9822811.61606  -7654138.09509  21006380.57606  21006383.39506
  21529999.95806 -10043178.66606  -7825840.06409  21529867.97606  21529870.50106
  23005295.35906 -13214213.51506 -10296773.57409  23005163.88406  23005167.48606
  23794252.04206  17660851.55806  13761694.85409  23794120.46606  23794124.65106
  25187420.58606  -2435166.36506  -1897542.07109  25187288.96906  25187294.83306
  23451333.35006  -9337361.98306  -7275850.12909  23451201.56106  23451206.84406
 92  8 21 20 40  0.0000000  0  6 20 16 03 24 17 25
  21011267.37906  -9797823.16906  -7634666.60409  21011135.76106  21011138.57906
  21534285.70406 -10020656.81806  -7808290.56109  21534153.76206  21534156.27306
  22995007.41306 -13268277.91006 -10338901.63609  22994875.78506  22994879.42006
  23810784.32506  17747724.66406  13829388.10709  23810652.25706  23810655.79706
  23437711.19506  -9408946.56006  -7331630.20609  23437579.45106  23437584.95106
  25193823.67306  -2401523.00506  -1871326.56309  25193691.72706  25193697.43906
 92  8 21 20 40 30.0000000  0  7 20 16 03 24 17 26 25
  21016134.23606  -9772247.50006  -7614737.53609  21016002.73806  21016005.51406
  21538678.83406  -9997571.09406  -7790301.67709  21538546.84306  21538549.33506
  22984722.08106 -13322327.58006 -10381018.21909  22984590.40706  22984594.20506
  23827311.79906  17834579.58706  13897067.25909  23827179.98706  23827183.59906
  23424129.53506  -9480318.12706  -7387244.29809  23423997.62006  23424003.04206
  25577210.65716        -0.31516        -0.36619  25577079.22116  25577092.33916
  25200300.88606  -2367485.99106  -1844804.30709  25200168.63806  25200175.31506
 92  8 21 20 41  0.0000000  0  7 20 16 03 24 17 26 25
  21021112.17206  -9746089.09606  -7594354.38809  21020980.52806  21020983.31006
  21543178.75506  -9973923.79906  -7771875.20509  21543046.69606  21543049.20906
  22974438.45006 -13376365.97506 -10423126.01609  22974307.09606  22974311.03306
  23843839.45606  17921431.83706  13964744.24909  23843707.60606  23843711.65506
  23410587.22106  -9551484.45706  -7442698.44609  23410455.03506  23410460.46006
  25564316.43406    -67759.28706    -52799.26909  25564184.84906  25564198.04006
  25206851.94506  -2333058.02306  -1817977.45309  25206719.78006  25206727.24806
 92  8 21 20 41 30.0000000  0  7 20 16 03 24 17 26 25
  21026201.64806  -9719343.69606  -7573513.84209  21026070.01306  21026072.80506
  21547787.53506  -9949704.73106  -7753003.19509  21547655.45806  21547657.93806
  22964158.14706 -13430387.69406 -10465220.81509  22964026.86306  22964031.00006
  23860371.76306  18008308.95606  14032440.64809  23860239.84906  23860243.21206
  23397083.96506  -9622441.84806  -7497989.81009  23396952.31506  23396957.85006
  25551400.98506   -135631.53006   -105686.41109  25551268.72706  25551282.00106
  25213476.99506  -2298240.68306  -1790847.21809  25213345.16806  25213352.57806
 92  8 21 20 42  0.0000000  0  7 20 16 03 24 17 26 25
  21031401.56506  -9692017.90706  -7552221.04609  21031269.95006  21031272.74906
  21552506.20906  -9924907.82006  -7733680.92009  21552374.14606  21552376.61306
  22953880.20206 -13484398.14706 -10507306.82709  22953749.00106  22953753.01106
  23876907.85606  18095209.81206  14100155.57509  23876776.25706  23876779.92106
  23383623.53406  -9693178.12806  -7553108.89109  23383491.61806  23383496.87006
  25538461.48406   -203623.94906   -158667.20109  25538330.04206  25538343.21206
  25220177.06306  -2263029.00006  -1763409.68209  25220045.38306  25220052.60106
 92  8 21 20 42 30.0000000  0  7 20 16 03 24 17 26 25
  21036710.89306  -9664117.16306  -7530480.23209  21036579.33306  21036582.08006
  21557336.90106  -9899522.39106  -7713900.05809  21557204.81606  21557207.30306
  22943604.11306 -13538401.58706 -10549387.37609  22943472.62906  22943476.27406
  23893447.47506  18182120.22206  14167877.88609  23893315.29306  23893319.15306
  23370201.97606  -9763709.10506  -7608067.97209  23370069.93206  23370075.33506
  25525497.18606   -271749.37906   -211751.63609  25525365.98306  25525379.08706
  25226954.56106  -2227417.70206  -1735660.78509  25226822.89306  25226828.73406
 92  8 21 20 43  0.0000000  0  7 20 16 03 24 17 26 25
  21042130.41306  -9635637.71006  -7508288.47609  21041998.80706  21042001.53606
  21562278.38406  -9873554.56306  -7693665.38209  21562146.35206  21562148.80906
  22933329.86306 -13592393.52806 -10591458.97309  22933198.35606  22933201.77406
  23909985.27906  18269028.25306  14235598.33809  23909853.20406  23909857.01206
  23356816.86906  -9834047.62306  -7662877.09709  23356684.82106  23356690.10706
  25512508.45406   -340005.52806   -264937.88109  25512377.03406  25512389.97706
  25233807.32306  -2191406.35006  -1707600.10109  25233675.99406  25233682.15106
 92  8 21 20 43 30.0000000  0  7 20 16 03 24 17 26 25
  21047661.72306  -9606570.13006  -7485638.43809  21047530.18506  21047532.96706
  21567328.94006  -9847013.73106  -7672984.21209  21567196.87206  21567199.38106
  22923059.84306 -13646362.91806 -10633512.99809  22922928.29506  22922931.56906
  23926519.70406  18355920.32806  14303306.40909  23926388.18406  23926391.67106
  23343473.12606  -9904168.66006  -7717516.75509  23343341.12806  23343346.27306
  25499496.67606   -408383.97206   -318219.42609  25499364.73506  25499377.36906
  25240739.31606  -2154981.59206  -1679217.27309  25240607.58306  25240614.06006
 92  8 21 20 44  0.0000000  0  7 20 16 03 24 17 26 25
  21053302.31206  -9576928.84706  -7462541.35809  21053170.75006  21053173.52806
  21572482.81906  -9819929.97406  -7651879.98309  21572350.67706  21572353.24506
  22912791.40706 -13700323.09406 -10675559.84809  22912659.93206  22912663.31606
  23943047.71106  18442770.58206  14370981.92109  23942915.74106  23942919.64806
  23330168.05806  -9974086.54706  -7771998.11709  23330036.16406  23330041.38006
  25486459.24706   -476894.78306   -371604.07409  25486327.29606  25486340.01106
  25247744.21406  -2118166.41706  -1650530.24809  25247613.06106  25247619.44906
 92  8 21 20 44 30.0000000  0  7 20 16 03 24 17 26 25
  21059051.84506  -9546715.05106  -7438998.16509  21058920.24306  21058923.06106
  21577737.88106  -9792313.90906  -7630360.96909  21577605.90206  21577608.48806
  22902524.70506 -13754273.48806 -10717599.07409  22902393.40506  22902396.94506
  23959567.60806  18529588.08306  14438631.84109  23959436.10806  23959440.23306
  23316896.87406 -10043826.56806  -7826340.89309  23316764.88406  23316770.24606
  25473398.03706   -545527.77606   -425083.97109  25473266.43606  25473279.04206
  25254821.86406  -2080977.97706  -1621552.35009  25254689.59006  25254696.65206
 92  8 21 20 45  0.0000000  0  7 20 16 03 24 17 26 25
  21064908.44406  -9515938.19006  -7415016.22209  21064776.92906  21064779.75106
  21583088.56006  -9764195.92906  -7608450.85109  21582956.55406  21582959.15406
  22892258.07906 -13808222.74406 -10759637.41109  22892126.98806  22892130.85906
  23976084.01706  18616377.63606  14506259.97509  23975951.96306  23975954.60506
  23303660.31906 -10113385.57206  -7880542.58009  23303528.14406  23303533.53406
  25460313.09606   -614288.36406   -478663.26209  25460181.61506  25460194.05306
  25261964.32406  -2043433.15406  -1592296.80009  25261833.30906  25261841.15506
 92  8 21 20 45 30.0000000  0  7 20 16 03 24 17 26 25
  21070872.54006  -9484596.89006  -7390594.45509  21070741.04206  21070743.80806
  21588536.92606  -9735564.56406  -7586140.69709  21588404.92106  21588407.42806
  22881992.65906 -13862167.65806 -10801672.35409  22881861.54206  22881865.48506
  23992596.66406  18703153.22306  14573877.29809  23992464.73406  23992468.67406
  23290461.68306 -10182744.24106  -7934588.17009  23290329.62406  23290334.98406
  25447204.69006   -683171.11806   -532337.73609  25447073.29906  25447085.78806
  25269180.42206  -2005525.58006  -1562758.57409  25269047.87206  25269054.85406
 92  8 21 20 46  0.0000000  0  7 20 16 03 24 17 26 25
  21076943.75106  -9452693.05506  -7365734.34809  21076812.11806  21076814.92906
  21594086.58106  -9706400.84606  -7563415.72409  21593954.62606  21593957.08606
  22871728.38006 -13916109.42906 -10843704.84509  22871596.95406  22871600.62306
  24009109.74906  18789935.41406  14641499.68809  24008978.34906  24008983.37206
  23277299.74606 -10251909.00706  -7988482.68509  23277167.93306  23277172.96406
  25434074.42506   -752170.71606   -586103.25609  25433942.78106  25433955.18906
  25276464.07506  -1967251.15506  -1532934.46109  25276331.92406  25276338.30906
 92  8 21 20 46 30.0000000  0  7 20 16 03 24 17 26 25
  21083121.43806  -9420229.08306  -7340437.77109  21082989.82606  21082992.61906
  21599739.15706  -9676696.66806  -7540269.61309  21599607.12806  21599609.59906
  22861464.79806 -13970048.19306 -10885735.00609  22861332.93406  22861336.25006
  24025626.65806  18876725.78206  14709128.49909  24025494.71806  24025497.72606
  23264177.05206 -10320867.55206  -8042216.49409  23264045.45206  23264050.46706
  25420921.17106   -821290.10106   -639962.12409  25420789.50506  25420801.98906
  25283817.10406  -1928602.78606  -1502818.97709  25283685.53806  25283692.68606
 92  8 21 20 47  0.0000000  0  7 20 16 03 24 17 26 25
  21089404.46306  -9387211.03406  -7314709.44509  21089272.92506  21089275.77706
  21605494.41006  -9646453.01806  -7516703.13309  21605362.33306  21605364.80006
  22851199.95906 -14023989.28906 -10927766.99309  22851068.25706  22851071.43306
  24042139.51906  18963506.25506  14776749.61009  24042007.87506  24042012.09706
  23251098.36506 -10389597.14606  -8095771.90509  23250966.49306  23250971.58506
  25407744.65806   -890530.64006   -693915.37309  25407613.16206  25407625.42306
  25291245.02906  -1889578.45206  -1472410.61709  25291112.67306  25291119.26206
 92  8 21 20 47 30.0000000  0  7 20 16 03 24 17 26 25
  21095792.07906  -9353643.92906  -7288553.28409  21095660.53706  21095663.42606
  21611352.50006  -9615667.92706  -7492714.75209  21611220.53806  21611223.00506
  22840933.53506 -14077936.34606 -10969803.62209  22840802.27106  22840805.64706
  24058650.40006  19050264.69006  14844353.49109  24058518.27006  24058522.60406
  23238061.84206 -10458103.52206  -8149153.39009  23237930.06906  23237935.19206
  25394545.52406   -959890.38306   -747961.53609  25394414.18706  25394426.38006
  25298742.17106  -1850183.73506  -1441713.54409  25298610.19706  25298616.02706
 92  8 21 20 48  0.0000000  0  7 20 16 03 24 17 26 25
  21102282.26906  -9319538.14106  -7261977.37109  21102150.69306  21102153.59006
  21617310.32306  -9584359.60406  -7468318.65909  21617178.36806  21617180.84506
  22830664.87106 -14131897.70506 -11011851.38909  22830533.64006  22830537.26406
  24075152.93606  19136981.74406  14911925.15609  24075020.39106  24075023.40206
  23225064.60406 -10526405.15606  -8202375.30809  23224932.68706  23224937.77306
  25381324.15906  -1029369.50906   -802100.70209  25381192.56906  25381204.29406
  25306303.65106  -1810440.44606  -1410744.86009  25306171.92106  25306178.01806
 92  8 21 20 48 30.0000000  0  7 20 16 03 17 24 26 25
  21108873.95706  -9284899.30606  -7234986.09809  21108742.30606  21108745.11006
  21623364.59006  -9552545.39606  -7443528.36909  21623232.42906  21623234.90906
  22820392.92606 -14185877.31206 -11053913.36809  22820261.57306  22820265.37906
  23212104.20906 -10594511.23906  -8255444.86209  23211972.40806  23211977.49706
  24091640.28706  19223631.33606  14979444.22209  24091508.39306  24091512.41606
  25368077.05606  -1098983.88306   -856345.26909  25367944.86506  25367956.79106
  25313930.37706  -1770364.96806  -1379517.30909  25313798.76006  25313805.13806
 92  8 21 20 49  0.0000000  0  7 20 16 03 17 24 26 25
  21115567.91706  -9249722.87006  -7207575.91209  21115436.20706  21115438.98706
  21629515.29906  -9520222.03506  -7418341.33209  21629383.32706  21629385.84206
  22810118.60706 -14239868.98606 -11095984.74909  22809987.25106  22809991.12906
  23199179.36606 -10662430.72206  -8308369.02209  23199047.59806  23199052.59806
  24108117.08506  19310214.52206  15046911.61409  24107985.08506  24107989.07806
  25354804.09706  -1168731.69106   -910693.81809  25354672.12106  25354683.87606
  25321618.91706  -1729955.22806  -1348029.37609  25321487.96906  25321495.73806
 92  8 21 20 49 30.0000000  0  7 20 16 03 17 24 26 25
  21122364.39306  -9214007.04206  -7179745.42209  21122232.70606  21122235.55606
  21635763.63606  -9487386.80006  -7392755.43109  21635631.63506  21635634.14306
  22799842.95606 -14293869.35706 -11138062.91209  22799711.44806  22799715.14506
  23186287.73706 -10730177.37606  -8361158.49209  23186155.70306  23186160.75006
  24124583.64406  19396747.65906  15114339.95809  24124451.66906  24124455.38206
  25341507.34306  -1238602.61606   -965138.27109  25341375.74406  25341387.52206
  25329371.35306  -1689209.87706  -1316279.90809  25329240.85706  25329248.76106
 92  8 21 20 50  0.0000000  0  7 20 16 03 24 17 26 25
  21129263.35006  -9177752.44606  -7151495.11709  21129131.71706  21129134.59906
  21642109.44906  -9454039.21106  -7366770.29409  21641977.48506  21641979.99506
  22789565.86306 -14347877.66206 -11180147.26009  22789434.12806  22789437.59206
  24141040.74406  19483233.82606  15181731.68409  24140909.17406  24140912.78906
  23173425.13406 -10797769.90506  -8413827.87509  23173293.30706  23173298.32506
  25328188.03406  -1308593.13106  -1019675.94209  25328056.57206  25328068.28106
  25337191.65506  -1648128.89406  -1284268.90409  25337059.82006  25337066.48206
 92  8 21 20 50 30.0000000  0  7 20 16 03 24 17 26 25
  21136265.29306  -9140957.26406  -7122823.57609  21136133.64606  21136136.49806
  21648553.84106  -9420174.18206  -7340381.95709  21648421.78106  21648424.32206
  22779287.44006 -14401890.09106 -11222234.82509  22779155.81006  22779159.16206
  24157492.85106  19569684.66806  15249095.98109  24157360.75306  24157364.73206
  23160591.43206 -10865210.85306  -8466379.15609  23160459.50406  23160464.63806
  25314847.02406  -1378701.92106  -1074305.73609  25314715.32006  25314726.48006
  25345074.09106  -1606706.22006  -1251991.62909  25344942.73606  25344948.89306
 92  8 21 20 51  0.0000000  0  7 20 16 03 17 24 26 25
  21143370.49106  -9103619.29806  -7093729.08609  21143238.87106  21143241.69406
  21655097.53506  -9385786.29606  -7313586.19909  21654965.56906  21654968.12806
  22769008.73606 -14455902.65306 -11264322.49209  22768877.35206  22768880.68006
  23147787.39306 -10932495.91606  -8518808.96209  23147655.58006  23147660.46706
  24173940.47706  19656116.52906  15316445.39109  24173808.31006  24173812.46606
  25301488.02806  -1448900.03206  -1129005.16209  25301356.69606  25301367.91106
  25353020.50106  -1564945.99206  -1219451.29909  25352889.08606  25352894.84606
 92  8 21 20 51 30.0000000  0  7 20 16 03 17 24 26 25
  21150579.21106  -9065737.79506  -7064211.06109  21150447.49506  21150450.35406
  21661740.83506  -9350875.38406  -7286382.88609  21661608.91706  21661611.46306
  22758730.72106 -14509912.92406 -11306408.37509  22758599.44506  22758602.76606
  23135012.80406 -10999625.62306  -8571117.70009  23134881.06806  23134886.17406
  24190383.22306  19742526.93106  15383778.07709  24190251.28406  24190255.36606
  25288114.85106  -1519174.79606  -1183764.31709  25287983.46606  25287994.68406
  25361031.14806  -1522853.66506  -1186652.16209  25360899.12706  25360905.05906
 92  8 21 20 52  0.0000000  0  7 20 16 03 17 24 26 25
  21157890.31506  -9027317.97306  -7034273.56709  21157758.64006  21157761.46806
  21668481.74006  -9315452.86306  -7258780.91909  21668349.67206  21668352.21806
  22748452.92406 -14563924.07906 -11348494.94809  22748321.50006  22748324.75206
  23122269.10606 -11066594.37906  -8623301.03109  23122137.26806  23122142.27706
  24206818.36506  19828892.41206  15451075.80809  24206686.48506  24206690.00206
  25274724.88006  -1589539.36506  -1238593.42809  25274593.13006  25274604.30406
  25369100.70306  -1480444.46106  -1153606.13509  25368969.35806  25368976.01906
 92  8 21 20 52 30.0000000  0  7 20 16 03 17 24 26 25
  21165304.37106  -8988357.02406  -7003914.41509  21165172.66306  21165175.52706
  21675320.86506  -9279512.78706  -7230775.66209  21675188.74906  21675191.24306
  22738175.51906 -14617931.58206 -11390578.67509  22738044.16606  22738047.55006
  23109561.39206 -11133374.15806  -8675337.10509  23109429.41006  23109434.28506
  24223244.00406  19915211.79106  15518337.57909  24223112.28906  24223116.81206
  25261317.86506  -1659989.63006  -1293489.33009  25261186.33306  25261197.76806
  25377232.15406  -1437714.47306  -1120310.14609  25377100.42806  25377107.72806
 92  8 21 20 53  0.0000000  0  7 20 16 03 17 24 26 25
  21172820.81106  -8948856.96606  -6973135.17909  21172689.19806  21172692.15506
  21682259.64406  -9243049.18706  -7202362.46409  21682127.54006  21682130.01006
  22727898.94906 -14671935.95706 -11432659.95809  22727767.45006  22727770.97206
  23096891.90006 -11199952.78906  -8727216.42909  23096759.93106  23096764.68506
  24239661.01106  20001484.75506  15585563.17909  24239529.46706  24239534.11306
  25247895.92606  -1730521.81006  -1348449.05809  25247764.48106  25247775.52406
  25385425.12806  -1394654.80206  -1086757.32009  25385293.43706  25385302.35406
 92  8 21 20 53 30.0000000  0  7 20 16 03 17 24 26 25
  21180439.01206  -8908823.14106  -6941940.02309  21180307.44306  21180310.36806
  21689298.54906  -9206058.58106  -7173538.61109  21689166.58606  21689169.11406
  22717622.63206 -14725940.11906 -11474741.07709  22717490.91006  22717494.25706
  23084261.69506 -11266323.68806  -8778933.89009  23084129.80206  23084134.64306
  24256068.21806  20087698.53306  15652742.64809  24255936.28206  24255939.48806
  25234454.93606  -1801154.16806  -1403486.85009  25234323.31606  25234334.15406
  25393683.99206  -1351258.30106  -1052942.04409  25393551.78706  25393560.43106
 92  8 21 20 54  0.0000000  0  8 20 16 03 17 24 26 23 25
  21188158.92706  -8868255.80806  -6910329.14009  21188027.25106  21188030.08006
  21696438.22406  -9168539.94606  -7144303.30909  21696306.18206  21696308.70206
  22707346.04306 -14779942.42606 -11516820.75609  22707214.52106  22707217.85006
  23071674.05006 -11332472.29106  -8830478.14909  23071542.11806  23071546.86406
  24272463.52306  20173859.26106  15719880.83109  24272331.65006  24272334.89306
  25220993.59306  -1871892.50506  -1458607.23109  25220861.87306  25220872.81306
  25761297.66216        -0.99416        -0.55619  25761165.09316  25761181.07916
  25402006.82506  -1307526.16206  -1018865.21609  25401875.36606  25401882.33906
 92  8 21 20 54 30.0000000  0  8 20 16 03 17 24 26 23 25
  21195980.75006  -8827152.04406  -6878300.26009  21195849.02206  21195851.90906
  21703680.17906  -9130482.58406  -7114648.21809  21703548.18806  21703550.68806
  22697070.63606 -14833938.18706 -11558895.32909  22696939.34206  22696942.88706
  23059128.16706 -11398401.08006  -8881851.10309  23058996.18606  23059000.91306
  24288850.12806  20259975.56706  15786984.43009  24288718.73606  24288723.36006
  25207514.99206  -1942720.32706  -1513797.35009  25207383.49806  25207394.10606
  25741552.09106   -103761.91806    -80852.78009  25741419.85206  25741435.50406
  25410395.05906  -1263450.23606   -984520.45109  25410263.18206  25410270.08206
 92  8 21 20 55  0.0000000  0  8 20 16 03 17 24 26 23 25
  21203903.40506  -8785517.60906  -6845857.87109  21203771.78806  21203774.70206
  21711020.59806  -9091908.29206  -7084590.32609  21710888.65206  21710891.15306
  22686796.05106 -14887931.14706 -11600967.71809  22686664.78206  22686668.38606
  23046622.91106 -11464115.39606  -8933056.93909  23046491.05406  23046495.74506
  24305229.26406  20346038.96406  15854046.67709  24305097.01806  24305100.45306
  25194020.65706  -2013634.79806  -1569054.98709  25193888.69806  25193899.27806
  25721794.85506   -207582.62806   -161751.55409  25721663.10306  25721678.56306
  25418843.97406  -1219048.55706   -949921.82109  25418712.37506  25418718.44806
 92  8 21 20 55 30.0000000  0  8 20 16 03 17 24 26 23 25
  21211927.44706  -8743350.66006  -6813000.53609  21211795.87506  21211798.84606
  21718455.63506  -9052836.79406  -7054145.00309  21718323.69706  21718326.18406
  22676523.01406 -14941916.67206 -11643034.31209  22676391.69206  22676395.23406
  23034159.07406 -11529613.39606  -8984094.22709  23034027.11606  23034031.85906
  24321594.59306  20432043.26006  15921063.00809  24321462.51206  24321466.24806
  25180509.45306  -2084635.20706  -1624379.58709  25180377.54706  25180388.07506
  25702027.36806   -311459.82506   -242694.33809  25701895.68606  25701910.96506
  25427351.25906  -1174341.05406   -915084.90509  25427219.58306  25427226.02506
 92  8 21 20 56  0.0000000  0  8 20 03 16 17 24 26 23 25
  21220051.74806  -8700657.33106  -6779733.03809  21219920.16106  21219923.14306
  22666250.66206 -14995899.03106 -11685098.44009  22666119.20106  22666122.68906
  21725980.83206  -9013292.24806  -7023331.07009  21725848.85706  21725851.33806
  23021733.01106 -11594912.79306  -9034976.76009  23021601.12706  23021605.65506
  24337948.65006  20517986.88906  15988032.05109  24337816.80106  24337821.00906
  25166982.43606  -2155716.53506  -1679767.26109  25166850.86906  25166861.22206
  25682250.10706   -415388.36206   -323677.11509  25682118.25706  25682133.56906
  25435912.41406  -1129345.73006   -880023.74909  25435781.40206  25435788.20306
 92  8 21 20 56 30.0000000  0  8 20 03 16 17 24 26 23 25
  21228276.16406  -8657438.45106  -6746056.01909  21228144.50006  21228147.45006
  22655979.32406 -15049877.00806 -11727159.15609  22655847.58506  22655850.96506
  21733593.84806  -8973286.16106  -6992157.49709  21733461.69706  21733464.19306
  23009343.40806 -11660021.09906  -9085710.37809  23009211.33306  23009215.84806
  24354293.34306  20603872.26806  16054955.59309  24354161.04306  24354165.63506
  25153442.10806  -2226869.08306  -1735210.41609  25153310.61506  25153320.81906
  25662464.05306   -519362.95906   -404695.77809  25662331.91106  25662347.10806
  25444532.83006  -1084053.57606   -844731.25809  25444400.80406  25444407.40406
 92  8 21 20 57  0.0000000  0  8 20 03 16 17 24 26 23 25
  21236599.95706  -8613696.23106  -6711971.20409  21236468.41606  21236471.36506
  22645708.16706 -15103850.54506 -11769216.41509  22645576.67306  22645579.96306
  21741292.84106  -8932827.45206  -6960631.23609  21741160.83006  21741163.29206
  22996988.65006 -11724943.66406  -9136299.27109  22996856.75006  22996861.39806
  24370625.70606  20689705.47106  16121838.51809  24370493.96806  24370498.55506
  25139886.57306  -2298104.85306  -1790718.43709  25139754.77706  25139765.02806
  25642669.84606   -623380.27406   -485747.74209  25642537.91706  25642552.97606
  25453206.40906  -1038472.88206   -809213.94009  25453074.20806  25453081.29906
 92  8 21 20 57 30.0000000  0  8 20 03 16 17 24 26 23 25
  21245023.83106  -8569429.73506  -6677477.86209  21244892.08506  21244895.03506
  22635438.87306 -15157816.46606 -11811267.74409  22635307.29106  22635310.58306
  21749082.20406  -8891894.47906  -6928735.42009  21748950.08906  21748952.50006
  22984666.02406 -11789699.00006  -9186757.85209  22984534.03706  22984538.64406
  24386951.54006  20775494.66306  16188687.19609  24386819.66306  24386822.47706
  25126314.94606  -2369422.68806  -1846290.40809  25126183.08706  25126193.44506
  25622867.77506   -727438.10306   -566831.25009  25622735.87406  25622750.81706
  25461936.26306   -992591.63906   -773462.45709  25461805.66806  25461813.04006
 92  8 21 20 58  0.0000000  0  8 20 03 16 17 24 26 23 25
  21253546.20106  -8524643.66906  -6642579.66209  21253414.63306  21253417.59206
  22625170.48506 -15211777.30406 -11853315.11209  22625038.93706  22625042.17106
  21756963.58606  -8850477.29306  -6896462.29709  21756831.48106  21756833.93506
  22972371.41406 -11854308.19706  -9237102.55609  22972239.37406  22972243.80906
  24403267.44806  20861235.46906  16255498.20909  24403135.57006  24403139.85906
  25112728.52706  -2440817.41806  -1901922.30509  25112596.93106  25112606.86706
  25603059.17206   -831531.35706   -647942.36709  25602927.26606  25602942.03706
  25470729.01906   -946395.89806   -737465.89109  25470596.97106  25470604.00006
 92  8 21 20 58 30.0000000  0  8 20 03 16 17 24 26 23 25
  21262168.06106  -8479335.64506  -6607274.74109  21262036.46606  21262039.39906
  22614903.82506 -15265728.45106 -11895354.92509  22614772.26206  22614775.60306
  21764939.89606  -8808561.67006  -6863800.77909  21764807.80806  21764810.25506
  22960106.69706 -11918758.26406  -9287323.26409  22959974.86106  22959979.18806
  24419572.17606  20946921.24506  16322266.24109  24419440.45906  24419445.74306
  25099129.47606  -2512277.84706  -1957605.39109  25098998.01706  25099007.91106
  25583245.04306   -935654.76506   -729076.99309  25583112.91806  25583127.60506
  25479579.37106   -899884.25306   -701223.15009  25479447.81906  25479455.14106
 92  8 21 20 59  0.0000000  0  8 20 03 16 17 24 26 23 25
  21270888.96306  -8433507.46306  -6571564.50109  21270757.30006  21270760.18206
  22604638.81906 -15319669.57406 -11937386.93109  22604507.52906  22604510.85306
  21773013.47306  -8766134.85006  -6830740.92509  21772881.39906  21772883.85906
  22947871.97006 -11983051.85406  -9337422.05609  22947740.14606  22947744.47006
  24435866.30106  21032537.86906  16388980.43709  24435734.02006  24435736.73006
  25085521.07706  -2583790.54506  -2013329.20609  25085389.50106  25085399.32406
  25563423.74406  -1039812.91906   -810238.70809  25563291.99406  25563306.44506
  25488488.48206   -853068.08506   -664743.09309  25488356.67906  25488363.57006
 92  8 21 20 59 30.0000000  0  8 20 03 16 17 24 26 23 25
  21279708.50406  -8387160.07506  -6535449.68009  21279576.90706  21279579.84406
  22594376.64006 -15373598.92406 -11979409.76409  22594245.14006  22594248.44406
  21781183.23206  -8723202.41006  -6797287.08009  21781051.15606  21781053.59806
  22935670.89706 -12047170.31506  -9387384.38109  22935538.70606  22935543.04706
  24452141.69306  21118078.71506  16455635.56109  24452010.41106  24452016.16906
  25071906.01506  -2655337.82606  -2069079.97109  25071774.19406  25071784.03506
  25543597.01006  -1144001.48306   -891424.09909  25543465.20206  25543479.62206
  25497455.48806   -805940.10206   -628020.11109  25497324.19406  25497331.56106
 92  8 21 21  0  0.0000000  0  8 03 20 16 24 26 23 25 17
  22584116.21006 -15427517.49806 -12021424.20109  22583984.73206  22583988.03706
  21288626.14706  -8340296.98806  -6498933.02309  21288494.66806  21288497.70906
  21789445.68406  -8679782.80606  -6763453.62809  21789313.61706  21789316.04206
  24468405.62206  21203539.35406  16522228.21509  24468273.74706  24468277.84706
  25058286.10406  -2726909.26406  -2124849.55509  25058154.28806  25058164.01006
  25523767.11706  -1248205.97706   -972621.90009  25523635.38806  25523649.61406
  25506478.37506   -758520.45706   -591069.84109  25506347.39506  25506355.36406
  22923508.79906 -12111080.31106  -9437184.26809  22923376.93206  22923381.25706
 92  8 21 21  0 30.0000000  0  8 20 03 16 17 24 26 23 25
  21297640.49206  -8292927.23306  -6462021.56109  21297508.88206  21297511.87506
  22573856.54306 -15481431.93506 -12063435.41209  22573725.09506  22573728.50606
  21797799.28706  -8635884.13906  -6729246.88409  21797667.29106  21797669.69806
  22911389.07706 -12174768.05506  -9486810.97109  22911257.43306  22911261.78306
  24484654.41806  21288926.64706  16588763.64809  24484522.53306  24484526.94406
  25044660.70106  -2798506.95606  -2180639.59309  25044529.34606  25044538.89006
  25503932.79706  -1352434.59206  -1053838.47809  25503800.78906  25503815.12806
  25515553.55806   -710836.52006   -553913.60509  25515421.86706  25515429.78506
 92  8 21 21  1  0.0000000  0  8 20 03 16 17 24 26 23 25
  21306748.17806  -8245066.63906  -6424727.62509  21306616.54606  21306619.52706
  22563595.21806 -15535355.61406 -12105453.82609  22563463.79406  22563467.13206
  21806241.04406  -8591522.90606  -6694679.69909  21806108.93606  21806111.34106
  22899310.15206 -12238243.58606  -9536272.31409  22899178.27706  22899182.60406
  24500890.49906  21374246.82906  16655246.89409  24500758.59206  24500762.71406
  25031026.34806  -2870156.47806  -2236470.01409  25030894.69206  25030904.28306
  25484090.55706  -1456704.16206  -1135086.97009  25483958.69306  25483972.75006
  25524674.48806   -662901.04106   -516561.42909  25524543.31706  25524551.68806
 92  8 21 21  1 30.0000000  0  8 20 03 16 17 24 26 23 25
  21315946.28806  -8196730.85306  -6387063.40709  21315814.62406  21315817.51506
  22553329.61306 -15589301.54906 -12147489.58809  22553198.19606  22553201.48606
  21814767.11806  -8546717.50906  -6659766.40709  21814635.11406  21814637.57806
  22887269.76906 -12301516.77606  -9585575.99509  22887137.77406  22887142.06206
  24517115.27006  21459504.06306  16721680.95209  24516983.01306  24516987.10406
  25017376.04906  -2941886.68606  -2292363.33109  25017244.45706  25017254.01506
  25464238.13506  -1561027.44206  -1216377.31709  25464106.19906  25464120.08406
  25533840.41406   -614736.10806   -479030.46009  25533709.04306  25533717.09906
 92  8 21 21  2  0.0000000  0  8 20 03 16 17 24 26 23 25
  21325232.32906  -8147931.62006  -6349038.06309  21325100.75806  21325103.71106
  22543058.29906 -15643278.85406 -12189549.79109  22542926.70506  22542930.00506
  21823379.12606  -8501461.70106  -6624502.14509  21823247.06306  21823249.56906
  22875260.81806 -12364623.62106  -9634750.05309  22875128.93706  22875133.07006
  24533324.80306  21544692.67506  16788061.72309  24533193.18106  24533196.98006
  25003709.15306  -3013705.66106  -2348325.81609  25003577.66506  25003587.01306
  25444368.93806  -1665439.01506  -1297736.46209  25444236.93506  25444250.71506
  25543047.74506   -566357.24506   -441332.69909  25542915.94106  25542923.00306
 92  8 21 21  2 30.0000000  0  8 20 03 16 17 24 26 23 25
  21334600.36006  -8098701.89306  -6310677.26809  21334468.78306  21334471.88406
  22532774.62606 -15697318.38506 -12231658.48309  22532643.23606  22532646.53806
  21832072.08006  -8455779.61506  -6588905.71609  21831940.04706  21831942.55606
  22863270.68106 -12427631.22806  -9683846.79009  22863138.91406  22863143.00206
  24549517.29906  21629781.69706  16854364.74609  24549385.47506  24549390.14506
  24990018.62506  -3085649.35706  -2404385.48909  24989886.95606  24989896.28106
  25424472.75606  -1769992.18906  -1379205.94109  25424340.72706  25424354.41006
  25552293.97606   -517772.70306   -403474.70309  25552161.87306  25552169.01206
 92  8 21 21  3  0.0000000  0  8 03 20 16 17 24 26 23 25
  22522467.96206 -15751478.85806 -12273861.41509  22522336.70906  22522339.96606
  21344038.82406  -8049103.20006  -6272028.97409  21343907.15306  21343910.23406
  21840834.31806  -8409734.05306  -6553026.05909  21840702.21106  21840704.66206
  22851285.29706 -12490616.63406  -9732926.23009  22851153.14206  22851157.20406
  24565677.23706  21714698.34806  16920533.49309  24565545.08406  24565548.43406
  24976293.07006  -3157774.95406  -2460586.93009  24976161.75806  24976170.80106
  25404538.25406  -1874745.93906  -1460831.71709  25404406.27206  25404419.77006
  25561568.35306   -469035.73906   -365497.92809  25561436.77106  25561443.65506
 92  8 21 21  3 30.0000000  4  1
 -2341103.0000 -4689265.0000  3623535.0000                  APPROX POSITION XYZ
 92  8 21 21  3 30.0000000  0  7 03 20 16 17 24 26 23
  22512134.87406 -15805780.40406 -12316174.27509  22512003.41206  22512006.70006
  21353543.02406  -7999158.45006  -6233111.02009  21353411.42306  21353414.47106
  21849660.24206  -8363353.74106  -6516885.55909  21849528.05906  21849530.54406
  22839296.49506 -12553616.33806  -9782016.80409  22839164.60506  22839168.67206
  24581793.49006  21799397.92606  16986533.12709  24581662.00006  24581666.54706
  24962531.42006  -3230093.25806  -2516938.50909  24962399.76906  24962408.71406
  25384563.04006  -1979715.56106  -1542625.68509  25384430.77606  25384444.25206
 92  8 21 21  4  0.0000000  0  8 03 20 16 17 24 26 23 25
  22501780.22406 -15860194.56406 -12358574.88209  22501648.78406  22501652.02706
  21363117.98506  -7948841.36206  -6193902.93509  21362986.46306  21362989.54306
  21858552.07106  -8316626.62606  -6480474.82409  21858420.00606  21858422.47206
  22827310.60706 -12616601.19106  -9831095.79909  22827178.73906  22827182.98706
  24597874.52306  21883895.52806  17052375.32709  24597742.25306  24597745.96606
  24948738.33806  -3302573.41906  -2573416.21609  24948606.81006  24948615.87006
  25364553.77306  -2084861.23906  -1624556.84909  25364421.77506  25364435.14506
  25580197.96716        -0.35116        -0.22919  25580066.10716  25580074.46516
 92  8 21 21  4 30.0000000  0  8 20 03 16 17 24 26 23 25
  21372773.99606  -7898099.51106  -6154363.86609  21372642.34706  21372645.41306
  22491414.69306 -15914665.75306 -12401019.92409  22491283.27206  22491286.57006
  21867516.31206  -8269519.56006  -6443768.02009  21867384.21006  21867386.71906
  22815343.03906 -12679491.20106  -9880100.89009  22815211.17406  22815215.30006
  24613924.30706  21968243.01306  17118100.59609  24613792.52106  24613797.02206
  24934923.33706  -3375173.19906  -2629987.17009  24934791.47706  24934800.42006
  25344528.60706  -2190090.52606  -1706553.14909  25344396.91806  25344410.24006
  25589569.25506     49237.20106     38366.57909  25589437.06406  25589444.38006
 92  8 21 21  5  0.0000000  0  8 03 20 16 17 24 26 23 25
  22481047.61506 -15969145.86406 -12443471.91709  22480916.05706  22480919.29706
  21382519.09606  -7846887.69706  -6114458.59309  21382387.60206  21382390.72006
  21876559.93906  -8221994.80106  -6406735.74109  21876427.87706  21876430.38506
  22803406.59106 -12742217.23106  -9928978.21509  22803274.77706  22803278.84506
  24629953.36306  22052478.20206  17183738.27109  24629821.69406  24629826.82306
  24921091.77306  -3447855.30706  -2686622.26009  24920960.17206  24920969.11106
  25324499.26706  -2295341.71106  -1788566.52509  25324367.81406  25324380.92106
  25598979.84706     98696.53606     76906.25509  25598848.27506  25598855.50406
 92  8 21 21  5 30.0000000  0  8 03 20 16 17 24 26 23 25
  22470686.50606 -16023593.19506 -12485898.36609  22470555.07906  22470558.23906
  21392361.37606  -7795166.99006  -6074156.78009  21392229.75306  21392232.87406
  21885690.60306  -8174011.55806  -6369346.20409  21885558.73206  21885561.19506
  22791512.42606 -12804720.33406  -9977681.82909  22791380.64406  22791384.76306
  24645971.45406  22136645.12306  17249322.81909  24645839.26006  24645842.77506
  24907250.34906  -3520589.63106  -2743298.03309  24907119.11706  24907127.70706
  25304474.55806  -2400571.74706  -1870563.42909  25304342.92806  25304355.99006
  25608440.27706    148408.76706    115642.96909  25608307.78906  25608316.06506
 92  8 21 21  6  0.0000000  0  8 03 20 16 17 24 26 23 25
  22460336.90906 -16077980.73306 -12528278.22609  22460205.42506  22460208.49206
  21402305.03906  -7742913.14006  -6033439.52809  21402173.42406  21402176.48106
  21894915.03806  -8125537.41206  -6331574.14509  21894783.03306  21894785.52406
  22779668.68806 -12866958.84106 -10026179.25709  22779536.89306  22779541.11106
  24661979.96606  22220781.46506  17314883.55509  24661848.44906  24661853.20806
  24893405.42006  -3593345.34706  -2799990.47009  24893273.96706  24893282.52206
  25284460.07206  -2505746.94306  -1952517.58909  25284328.23806  25284341.23906
  25617949.94906    198381.13106    154582.36509  25617817.88506  25617826.11706
 92  8 21 21  6 30.0000000  0  8 03 20 16 17 24 26 23 25
  22450001.30706 -16132292.44606 -12570599.00109  22449870.12206  22449873.20206
  21412352.57806  -7690112.95306  -5992296.55809  21412220.99806  21412224.08906
  21904238.95506  -8076539.90606  -6293394.27509  21904106.93006  21904109.39106
  22767877.23506 -12928924.94706 -10074464.42909  22767745.18606  22767749.21606
  24677988.90906  22304898.27806  17380429.02709  24677856.49506  24677861.73606
  24879561.53906  -3666096.25006  -2856679.14109  24879429.75406  24879438.31206
  25264458.15206  -2610856.46906  -2034420.57809  25264326.13006  25264339.04206
  25627512.44106    248632.82306    193739.41609  25627380.59606  25627389.07106
 92  8 21 21  7  0.0000000  0  8 03 20 16 17 24 26 23 25
  22439683.00806 -16186514.73706 -12612850.08909  22439551.84806  22439554.98506
  21422506.22706  -7636755.54206  -5950719.38809  21422374.54006  21422377.72406
  21913665.88906  -8027001.36806  -6254792.82409  21913533.85706  21913536.29106
  22756136.34306 -12990622.98606 -10122540.72409  22756004.51506  22756008.32106
  24693993.81606  22389013.83106  17445973.49609  24693862.34506  24693867.05406
  24865723.87706  -3738810.54106  -2913339.31709  24865592.24406  24865600.97106
  25244467.27706  -2715907.71106  -2116278.14109  25244335.09606  25244347.82206
  25637133.22306    299190.08506    233134.53209  25637001.58606  25637009.56906
 92  8 21 21  7 30.0000000  0  8 03 20 16 17 24 26 23 25
  22429382.69606 -16240645.02206 -12655029.48809  22429251.27606  22429254.34806
  21432765.79006  -7582841.33906  -5908708.35609  21432634.13006  21432637.24906
  21923195.90606  -7976920.68006  -6215768.91809  21923063.84506  21923066.29106
  22744446.00406 -13052056.29706 -10170410.74209  22744313.95106  22744317.93506
  24710003.52506  22473140.31206  17511526.56809  24709871.70306  24709875.67606
  24851898.78906  -3811462.22106  -2969950.70109  24851767.08206  24851775.45706
  25224489.54506  -2820889.74006  -2198081.77709  25224357.28906  25224369.84206
  25646815.58306    350071.20306    272782.07809  25646683.92006  25646690.39606
 92  8 21 21  8  0.0000000  0  8 03 20 16 17 24 26 23 25
  22419097.69706 -16294693.67206 -12697145.27909  22418966.17306  22418969.21106
  21443128.77206  -7528383.51006  -5866273.71809  21442997.11006  21443000.23706
  21932824.80906  -7926320.38006  -6176340.12209  21932692.74906  21932695.25406
  22732802.28906 -13113242.67706 -10218088.34209  22732670.48006  22732674.49906
  24726011.69806  22557257.98206  17577072.71909  24725879.68006  24725883.50706
  24838085.63306  -3884047.07806  -3026510.04209  24837954.18906  24837962.59206
  25204523.97606  -2925807.15706  -2279835.07609  25204391.80606  25204404.17206
  25656559.52406    401271.94906    312678.76709  25656427.37906  25656433.19106
 92  8 21 21  8 30.0000000  0  7 03 20 16 17 24 26 23
  22408828.80906 -16348657.21206 -12739194.75309  22408697.27106  22408700.25606
  21453595.18906  -7473381.63406  -5823415.15009  21453463.63706  21453466.84006
  21942549.45806  -7875217.28306  -6136519.53809  21942417.44706  21942419.99106
  22721205.82406 -13174183.56506 -10265574.65309  22721073.80906  22721077.82506
  24742015.60306  22641367.88206  17642612.84609  24741884.04006  24741887.85906
  24824286.03906  -3956565.07206  -3083017.27909  24824154.37706  24824162.62406
  25184570.66106  -3030660.37706  -2361538.36509  25184438.46806  25184450.81706
 92  8 21 21  9  0.0000000  0  7 03 20 16 17 24 26 23
  22398577.08206 -16402529.57806 -12781173.19009  22398445.59406  22398448.67806
  21464165.96406  -7417832.29506  -5780129.99309  21464034.34706  21464037.61806
  21952368.00406  -7823621.14306  -6096314.76709  21952235.79506  21952238.36006
  22709658.89306 -13234863.08806 -10312857.30809  22709526.82206  22709530.75106
  24758022.75606  22725480.08406  17708154.78009  24757890.63706  24757894.91906
  24810499.97906  -4029010.24506  -3139467.76809  24810368.20506  24810376.60806
  25164633.60106  -3135429.08806  -2443175.81209  25164501.25406  25164513.40506
 92  8 21 21  9 30.0000000  0  8 03 20 16 17 24 26 23 25
  22388342.32306 -16456312.76106 -12823082.13009  22388210.94706  22388214.04906
  21474839.71806  -7361741.25306  -5736422.73009  21474708.15306  21474711.38806
  21962280.11306  -7771532.12106  -6055725.93209  21962148.03706  21962150.57606
  22698161.78706 -13295277.01006 -10359933.00109  22698030.25006  22698034.15206
  24774025.91606  22809575.59406  17773683.67409  24773893.93506  24773899.02606
  24796727.07306  -4101386.38006  -3195864.47009  24796595.20906  24796603.51406
  25144714.67506  -3240101.19606  -2524737.98709  25144582.58306  25144594.51406
  25686151.94616        -0.15416        -0.05319  25686020.15016  25686029.18716
 92  8 21 21 10  0.0000000  0  7 03 20 16 17 24 26 23
  22378127.69906 -16509992.11106 -12864910.15909  22377996.15706  22377999.28406
  21485619.08506  -7305096.25606  -5692283.81009  21485487.43506  21485490.59906
  21972289.24106  -7718933.72506  -6014740.17809  21972157.15606  21972159.73306
  22686717.73406 -13355417.68006 -10406795.76909  22686585.79206  22686589.70006
  24790026.32706  22893666.06506  17839208.56409  24789894.84706  24789900.25806
  24782967.84206  -4173687.31606  -3252202.55809  24782836.56106  24782844.84906
  25124813.66806  -3344679.62706  -2606227.18209  25124681.68606  25124693.43906
 92  8 21 21 10 30.0000000  0  8 03 20 16 17 24 26 23 25
  22367933.88706 -16563559.93406 -12906651.29109  22367802.54306  22367805.51606
  21496504.54806  -7247893.22506  -5647710.05809  21496372.85106  21496376.00806
  21982401.04506  -7665795.32906  -5973333.64709  21982269.15306  21982271.67606
  22675324.62206 -13415288.36806 -10453448.16709  22675192.81906  22675196.61006
  24806030.06006  22977765.76606  17904740.81309  24805898.53606  24805902.40506
  24769226.91606  -4245897.88506  -3308470.24609  24769095.36506  24769103.34706
  25104931.28606  -3449159.05806  -2687639.22509  25104799.46606  25104811.12406
  25706162.69916        -0.09316        -0.92219  25706031.19916  25706040.06316
 92  8 21 21 11  0.0000000  0  8 03 20 16 17 24 26 23 25
  22357764.39806 -16617000.98706 -12948293.63909  22357632.95606  22357635.95806
  21507498.30706  -7190120.23806  -5602692.18809  21507366.63806  21507369.92606
  21992623.08906  -7612078.36506  -5931476.28209  21992491.12106  21992493.67806
  22663984.86806 -13474878.35106 -10499881.82909  22663853.08106  22663856.98606
  24822037.73706  23061891.38506  17970293.14409  24821906.85006  24821912.75006
  24755506.46106  -4317997.35606  -3364651.36709  24755374.91806  24755382.99206
  25085069.95506  -3553527.81106  -2768965.02909  25084938.35806  25084949.97906
  25716258.08206     53046.67406     41334.07309  25716125.68706  25716134.76506
 92  8 21 21 11 30.0000000  0  7 03 20 16 17 24 26 23
  22347621.33906 -16670303.76006 -12989828.23409  22347489.75106  22347492.77306
  21518602.24906  -7131768.87806  -5557223.64109  21518470.56006  21518473.91306
  22002958.03706  -7557767.94206  -5889156.48209  22002826.03106  22002828.62206
  22652700.21006 -13534180.74806 -10546091.40209  22652568.12906  22652571.95206
  24838055.72606  23146053.30006  18035873.74209  24837923.86906  24837928.15006
  24741809.40306  -4389978.45906  -3420740.25409  24741677.23306  24741685.19306
  25065230.26806  -3657785.55606  -2850204.33609  25065098.43406  25065109.95506
 92  8 21 21 12  0.0000000  0  8 03 20 16 17 24 26 23 25
  22337504.95506 -16723465.00106 -13031252.54709  22337373.48306  22337376.48206
  21529816.28506  -7072838.75506  -5511304.11109  21529684.66206  21529687.93806
  22013407.33406  -7502857.94006  -5846369.48109  22013275.10306  22013277.64206
  22641469.85206 -13593196.21706 -10592077.39609  22641337.84306  22641341.69706
  24854080.03906  23230262.24006  18101491.07809  24853948.16506  24853952.31006
  24728132.86206  -4461843.43006  -3476738.64409  24728001.44706  24728009.23206
  25045410.91806  -3761936.50206  -2931360.45409  25045278.91006  25045290.17606
  25736640.17116        -0.60516        -0.53819  25736508.24516  25736515.78316
 92  8 21 21 12 30.0000000  0  8 03 20 16 17 24 26 23 25
  22327418.01406 -16776471.88806 -13072556.58309  22327286.56406  22327289.63806
  21541142.38106  -7013320.11906  -5464925.99609  21541010.72806  21541013.92306
  22023970.55106  -7447346.50406  -5803113.83009  22023838.52606  22023841.10406
  22630296.92106 -13651909.16906 -10637827.66509  22630165.02306  22630168.84806
  24870115.12406  23314531.29606  18167155.18909  24869983.32006  24869988.33006
  24714482.00006  -4533579.51306  -3532636.60809  24714350.25306  24714358.07906
  25025617.99306  -3865949.69006  -3012409.24809  25025485.49506  25025496.64006
  25746932.18706     54081.98706     42141.62409  25746800.64906  25746807.49806
 92  8 21 21 13  0.0000000  0  8 03 20 16 17 24 26 23 25
  22317362.06906 -16829315.61906 -13113733.48409  22317230.68006  22317233.73006
  21552581.38506  -6953208.00406  -5418085.42509  21552449.70306  21552452.83806
  22034643.84106  -7391258.89306  -5759409.21109  22034511.70506  22034514.26606
  22619184.80706 -13710303.38406 -10683329.56609  22619052.92906  22619056.73806
  24886163.76706  23398862.66606  18232867.85509  24886031.77906  24886035.94106
  24700855.07706  -4605188.91206  -3588435.84609  24700723.46706  24700730.82006
  25005852.68906  -3969815.58506  -3093343.26709  25005720.11506  25005731.11906
  25757289.90706    108509.83506     84552.90909  25757158.09706  25757165.24506
 92  8 21 21 13 30.0000000  0  8 03 20 16 17 24 26 23 25
  22307338.43606 -16881990.77006 -13154779.02609  22307206.93606  22307209.99106
  21564133.67906  -6892500.19106  -5370780.67309  21564002.04706  21564005.26706
  22045424.52206  -7334606.38106  -5715264.40909  22045292.29706  22045294.82206
  22608133.73306 -13768375.96506 -10728580.84809  22608001.99406  22608005.75306
  24902221.81906  23483252.49106  18298626.12209  24902090.40706  24902094.76006
  24687253.52206  -4676664.32106  -3644130.66909  24687121.90006  24687129.42406
  24986116.55506  -4073525.93706  -3174156.11809  24985984.30106  24985995.39106
  25767710.94406    163274.79506    127226.82209  25767579.33406  25767587.34006
 92  8 21 21 14  0.0000000  0  8 03 20 16 17 24 26 23 25
  22297346.77406 -16934497.82806 -13195693.58609  22297215.24106  22297218.25106
  21575798.65206  -6831200.39506  -5323014.64209  21575667.00706  21575670.36206
  22056309.78906  -7277403.10806  -5670690.44309  22056177.80806  22056180.31306
  22597144.81406 -13826122.81306 -10773578.30709  22597013.03206  22597016.91706
  24918291.18006  23567696.00306  18364426.18209  24918159.54006  24918164.21306
  24673679.35206  -4747994.60006  -3699712.42009  24673547.88906  24673555.37606
  24966409.59306  -4177082.38606  -3254849.04909  24966277.54206  24966288.55906
  25778196.12306    218373.63406    170160.91209  25778064.43306  25778071.69006
 92  8 21 21 14 30.0000000  0  8 03 20 16 17 24 26 23 25
  22287387.50506 -16986834.13106 -13236475.08909  22287255.93606  22287258.95706
  21587576.16206  -6769309.35606  -5274787.90209  21587444.51706  21587447.88506
  22067296.71706  -7219667.25606  -5625701.48309  22067164.57206  22067167.11506
  22586218.16806 -13883544.05806 -10818322.05209  22586086.17506  22586089.84706
  24934369.71006  23652185.92206  18430262.40509  24934237.59906  24934242.86506
  24660135.79406  -4819163.96606  -3755168.77809  24660004.54206  24660011.80206
  24946734.76206  -4280473.40606  -3335413.04609  24946602.77406  24946613.74006
  25788744.03106    273806.96806    213355.64409  25788612.14906  25788620.59506
 92  8 21 21 15  0.0000000  0  8 03 20 16 17 24 26 23 25
  22277460.87106 -17038998.56706 -13277122.67109  22277329.29506  22277332.35006
  21599465.70006  -6706829.19906  -5226102.11209  21599334.11706  21599337.46906
  22078385.07906  -7161397.51706  -5580296.50509  22078252.97906  22078255.50506
  22575354.54606 -13940632.44906 -10862806.43409  22575222.57406  22575226.26806
  24950453.80606  23736711.03506  18496125.98709  24950321.80106  24950327.04206
  24646625.58506  -4890160.96306  -3810490.82609  24646493.93406  24646501.45506
  24927089.37706  -4383711.67906  -3415858.04909  24926957.03106  24926967.72106
  25799358.63106    329584.24306    256818.33109  25799226.80206  25799234.00106
 92  8 21 21 15 30.0000000  0  8 03 20 16 17 24 26 23 25
  22267566.43906 -17090993.34706 -13317638.05209  22267434.96706  22267438.03106
  21611466.40106  -6643765.56106  -5176961.66109  21611334.79606  21611338.11906
  22089575.98806  -7102588.17706  -5534471.05609  22089443.93506  22089446.54906
  22564552.27006 -13997396.33106 -10907037.95309  22564420.54206  22564424.24506
  24966545.35906  23821269.79106  18562015.93509  24966413.65806  24966416.58606
  24633149.84906  -4960976.61806  -3865671.56309  24633018.06206  24633025.32306
  24907469.52406  -4486811.24306  -3496194.98109  24907337.48806  24907347.98206
  25810038.44306    385705.07906    300548.80109  25809906.47106  25809913.34606
 92  8 21 21 16  0.0000000  0  8 03 20 16 17 24 26 23 25
  22257703.62806 -17142821.84806 -13358023.86109  22257572.27806  22257575.32206
  21623576.64006  -6580125.46706  -5127372.02309  21623445.08006  21623448.47806
  22100867.45806  -7043250.93006  -5488234.25209  22100735.49706  22100738.09906
  22553809.69106 -14053848.90706 -10951026.89609  22553677.95106  22553681.73406
  24982640.74206  23905853.46806  18627925.26209  24982508.91906  24982513.75806
  24619709.63306  -5031604.17906  -3920705.72309  24619577.85406  24619585.14506
  24887874.97406  -4589777.41606  -3576427.96509  24887743.31606  24887753.91806
  25820780.74206    442157.11206    344537.29009  25820648.98906  25820655.85606
 92  8 21 21 16 30.0000000  0  8 03 20 16 17 24 26 23 25
  22247869.28306 -17194501.47806 -13398293.66509  22247737.95706  22247740.93506
  21635792.71706  -6515929.77506  -5077349.45709  21635661.15406  21635664.57406
  22112257.69306  -6983394.32806  -5441592.75709  22112125.81206  22112128.31006
  22543120.64606 -14110021.44906 -10994797.62909  22542988.70206  22542992.45706
  24998736.90506  23990442.04606  18693838.30009  24998605.20506  24998610.36406
  24606300.85606  -5102066.50406  -3975611.13909  24606169.20606  24606176.16106
  24868303.86406  -4692621.69606  -3656565.97909  24868172.22706  24868183.02906
  25831581.62206    498913.69206    388763.19309  25831449.75306  25831457.59406
 92  8 21 21 17  0.0000000  0  8 03 20 16 17 24 26 23 25
  22238062.51906 -17246036.43106 -13438450.73309  22237931.18706  22237934.11006
  21648113.05906  -6451186.37406  -5026900.10409  21647981.49206  21647984.85406
  22123748.56506  -6923010.76606  -5394540.64009  22123616.42306  22123618.95206
  22532484.40806 -14165914.09506 -11038350.26409  22532352.49006  22532356.22406
  25014837.01606  24075045.24706  18759762.81809  25014705.15406  25014709.85306
  24592922.00806  -5172371.76406  -4030394.17309  24592790.31506  24592797.46406
  24848754.77706  -4795352.69506  -3736615.72109  24848623.02706  24848633.44406
  25842437.85506    555964.38806    433218.15909  25842305.80206  25842314.26106
 92  8 21 21 17 30.0000000  0  7 03 20 16 17 24 26 23
  22228280.38606 -17297442.39306 -13478507.29409  22228148.94306  22228151.88806
  21660534.00606  -6385913.99506  -4976038.56009  21660402.45206  21660405.77606
  22135337.80506  -6862108.48906  -5347084.32909  22135205.77906  22135208.24906
  22521897.17506 -14221549.78406 -11081702.67209  22521765.37706  22521769.08606
  25030938.43706  24159657.13906  18825694.06609  25030806.28006  25030810.94806
  24579568.27306  -5242543.93906  -4085073.50009  24579436.73506  24579443.74506
  24829227.40406  -4897968.55606  -3816575.75209  24829095.69806  24829105.86306
 92  8 21 21 18  0.0000000  0  7 03 20 16 24 26 23 17
  22218520.40806 -17348731.75706 -13518472.99509  22218388.89806  22218391.91206
  21673052.79406  -6320128.80606  -4924777.42109  21672921.07706  21672924.28806
  22147025.26006  -6800690.60206  -5299226.24209  22146893.23306  22146895.68806
  25047038.84906  24244266.44306  18891623.32209  25046906.78506  25046911.97806
  24566237.26706  -5312598.05906  -4139660.83509  24566105.63006  24566112.57506
  24809723.00806  -5000463.36106  -3896441.45409  24809591.18306  24809601.43606
  22511359.60706 -14276925.13906 -11124852.21909  22511227.70006  22511231.37806
 92  8 21 21 18 30.0000000  0  8 03 20 16 24 26 23 25 17
  22208779.45006 -17399921.15606 -13558360.80009  22208647.88506  22208650.91506
  21685664.99706  -6253850.84106  -4873132.30109  21685533.38306  21685536.64706
  22158808.04206  -6738772.55806  -5250978.42209  22158675.89406  22158678.34506
  25063140.29406  24328879.50506  18957555.46409  25063008.39906  25063013.41006
  24552922.19106  -5382567.64706  -4194182.30909  24552790.59506  24552797.73806
  24790239.40806  -5102849.34706  -3976222.36509  24790107.46006  24790117.62406
  25875316.14816        -0.27416         0.46419  25875184.19116  25875191.21516
  22500871.88706 -14332038.58306 -11167797.67809  22500739.89306  22500743.57006
 92  8 21 21 19  0.0000000  0  8 03 20 16 24 26 23 25 17
  22199053.82406 -17451028.92306 -13598184.99609  22198922.28806  22198925.40306
  21698366.91306  -6187102.37806  -4821120.55809  21698235.24006  21698238.49706
  22170681.04106  -6676379.07606  -5202360.13109  22170548.93406  22170551.44706
  25079241.65006  24413489.34106  19023485.13009  25079109.79606  25079114.34806
  24539621.29206  -5452464.07506  -4248646.78109  24539489.59606  24539496.55106
  24770773.54506  -5205142.36406  -4055930.83309  24770641.66806  24770651.64706
  25886367.88006     58081.44906     45258.94009  25886235.85606  25886244.22806
  22490432.27506 -14386899.01406 -11210545.98409  22490300.26306  22490303.86606
 92  8 21 21 19 30.0000000  0  7 03 20 16 24 26 23 17
  22189343.62406 -17502055.16506 -13637945.65909  22189212.24306  22189215.30106
  21711157.55706  -6119886.94906  -4768744.94709  21711025.94006  21711029.26606
  22182641.16706  -6613528.66306  -5153385.79209  22182509.01806  22182511.49806
  25095340.02606  24498088.77006  19089406.70609  25095208.24706  25095213.23906
  24526334.99806  -5522281.76406  -4303049.90509  24526203.42806  24526210.30306
  24751326.32306  -5307339.05206  -4135564.23709  24751194.14906  24751204.10606
  22480038.67806 -14441515.82306 -11253104.45509  22479906.94006  22479910.49206
 92  8 21 21 20  0.0000000  0  7 03 20 16 24 26 23 17
  22179650.65106 -17552993.85206 -13677638.10209  22179519.01306  22179521.87106
  21724037.46206  -6052202.43706  -4716003.81709  21723905.86206  21723909.33406
  22194683.65406  -6550244.40206  -5104073.38609  22194551.59506  22194554.08606
  25111435.07906  24582672.31706  19155315.86109  25111303.27706  25111308.58206
  24513066.19806  -5592010.99306  -4357384.10409  24512934.31306  24512941.08906
  24731897.80206  -5409434.72006  -4215118.92609  24731765.67206  24731775.54506
  22469692.21406 -14495887.59006 -11295471.98309  22469560.29506  22469563.86906
 92  8 21 21 20 30.0000000  0  7 03 20 16 24 26 23 17
  22169975.54506 -17603836.67406 -13717255.85409  22169843.96206  22169846.64406
  21737007.54206  -5984043.99706  -4662893.39509  21736875.99506  21736879.52406
  22206807.25306  -6486534.63306  -5054429.41609  22206675.15206  22206677.68706
  25127526.40706  24667236.01806  19221209.56009  25127394.90606  25127400.02306
  24499814.07606  -5661647.89506  -4411646.37009  24499682.79406  24499689.32706
  24712490.15706  -5511419.80606  -4294587.45409  24712358.28706  24712367.98406
  22459388.73506 -14550032.11506 -11337662.43709  22459256.97106  22459260.46606
 92  8 21 21 21  0.0000000  0  7 03 20 16 24 26 23 17
  22160323.59106 -17654555.45206 -13756776.94809  22160192.33906  22160195.12606
  21750072.54006  -5915387.69706  -4609395.03409  21749940.89406  21749944.38106
  22219016.75906  -6422372.86306  -5004433.23609  22218884.83106  22218887.33206
  25143616.31006  24751781.25506  19287088.89909  25143484.46706  25143488.80806
  24486588.60706  -5731149.39606  -4465803.14009  24486456.99406  24486463.43506
  24693108.96706  -5613267.09006  -4373948.59209  24692976.99106  24692986.61306
  22449129.56706 -14603945.56306 -11379672.83909  22448997.53606  22449000.96006
 92  8 21 21 21 30.0000000  0  7 03 20 16 24 26 23 17
  22150701.17206 -17705121.63506 -13796179.13809  22150569.84906  22150572.71306
  21763236.92706  -5846208.26906  -4555489.03409  21763105.38306  21763108.79406
  22231316.52406  -6357738.14606  -4954068.52609  22231184.31906  22231186.90706
  25159702.52806  24836313.94806  19352958.46409  25159570.53506  25159575.37306
  24473392.33906  -5800493.99106  -4519837.63509  24473260.92306  24473267.34006
  24673757.42506  -5714956.81606  -4453186.94909  24673625.92306  24673635.35506
  22438918.23706 -14657605.15906 -11421485.43309  22438786.33506  22438789.84306
 92  8 21 21 22  0.0000000  0  7 03 20 16 24 26 23 17
  22141111.56906 -17755515.85106 -13835447.32809  22140980.16506  22140983.05806
  21776503.99706  -5776490.00506  -4501163.16209  21776372.36406  21776375.73906
  22243710.15706  -6292607.70006  -4903317.53709  22243578.20406  22243580.77106
  25175786.47706  24920838.83106  19418821.92609  25175654.74606  25175659.93906
  24460228.50906  -5869669.87406  -4573740.68109  24460096.88006  24460103.27506
  24654439.94306  -5816469.41006  -4532287.29309  24654308.33106  24654317.67706
  22428761.02506 -14710980.59606 -11463076.60409  22428629.21706  22428632.69906
 92  8 21 21 22 30.0000000  0  7 03 20 16 24 26 23 17
  22131556.45406 -17805728.20506 -13874573.80809  22131425.04106  22131428.00706
  21789874.47506  -5706227.57006  -4446413.25709  21789742.89506  21789746.28106
  22256202.98406  -6226958.10706  -4852162.02009  22256070.94706  22256073.42906
  25191872.27506  25005371.79306  19484691.70409  25191740.63906  25191746.26906
  24447099.72206  -5938660.07506  -4627499.02909  24446968.40306  24446974.61406
  24635155.90306  -5917807.67006  -4611251.81509  24635024.04106  24635033.14506
  22418659.91506 -14764063.32606 -11504439.69609  22418528.01706  22418531.37406
 92  8 21 21 23  0.0000000  0  8 03 20 16 24 26 23 25 17
  22122036.54306 -17855756.87706 -13913557.15709  22121904.95406  22121907.87906
  21803348.20406  -5635422.27806  -4391240.35109  21803216.64906  21803220.12906
  22268794.23006  -6160791.08006  -4800603.30509  22268662.08606  22268664.61206
  25207960.28306  25089915.34006  19550569.65509  25207828.59506  25207834.53206
  24434009.29306  -6007449.95706  -4681101.29809  24433878.02806  24433884.02206
  24615904.07106  -6018975.23406  -4690083.33609  24615772.15406  24615781.14006
  25976353.33416        -0.41216        -0.25819  25976221.55816  25976228.67516
  22408617.89506 -14816833.50406 -11545559.24109  22408486.03406  22408489.45206
 92  8 21 21 23 30.0000000  0  7 03 20 16 24 26 23 17
  22112548.19906 -17905617.33206 -13952409.43209  22112416.81106  22112419.65106
  21816921.73706  -5564093.56506  -4335659.58709  21816790.12606  21816793.57806
  22281480.34806  -6094124.45206  -4748655.29309  22281348.36206  22281350.94506
  25224048.88406  25174453.66506  19616443.56209  25223916.77006  25223920.83006
  24420952.82306  -6076062.53606  -4734565.40209  24420821.11206  24420827.23906
  24596684.36106  -6119975.93506  -4768784.84509  24596552.17806  24596561.14606
  22398637.24106 -14869281.85806 -11586428.01509  22398505.22106  22398508.60606
 92  8 21 21 24  0.0000000  0  7 03 20 16 24 26 23 17
  22103088.01906 -17955330.47106 -13991146.91509  22102956.60106  22102959.51806
  21830590.19506  -5492266.03106  -4279690.12309  21830458.54806  21830461.94406
  22294259.09006  -6026971.99006  -4696328.71309  22294127.10606  22294129.73706
  25240134.24006  25258984.18906  19682311.51309  25240002.27906  25240006.20406
  24407927.59306  -6144509.15306  -4787900.18409  24407795.99306  24407802.09506
  24577493.46806  -6220823.01206  -4847366.64209  24577361.26206  24577370.51706
  22388713.06706 -14921434.34306 -11627066.24509  22388581.11606  22388584.36606
 92  8 21 21 24 30.0000000  0  7 03 20 16 24 26 23 17
  22093651.78906 -18004919.86006 -14029787.97009  22093520.14406  22093522.99806
  21844348.17606  -5419967.65506  -4223353.76809  21844216.56206  21844219.86606
  22307126.66406  -5959353.08706  -4643638.67409  22306994.57506  22306997.16806
  25256215.05806  25343493.27006  19748162.69709  25256083.19906  25256088.65706
  24394930.70706  -6212806.07706  -4841118.32809  24394799.34706  24394805.29106
  24558327.66506  -6321534.56306  -4925842.78909  24558195.71606  24558205.27206
  22378838.40406 -14973325.49506 -11667500.84109  22378706.47106  22378709.68306
 92  8 21 21 25  0.0000000  0  7 03 20 16 24 26 23 17
  22084235.98406 -18054399.41606 -14068343.44009  22084104.47006  22084107.37006
  21858192.33706  -5347216.24706  -4166664.39909  21858060.68506  21858064.06106
  22320079.66706  -5891283.58006  -4590597.51009  22319947.66206  22319950.32306
  25272289.81706  25427966.71506  19813986.03809  25272158.10806  25272163.98906
  24381958.28806  -6280977.56906  -4894238.72709  24381826.47906  24381832.48606
  24539188.71906  -6422109.82906  -5004212.73409  24539056.95306  24539065.74706
  22369010.91406 -15024967.90706 -11707741.60709  22368879.10106  22368882.44306
 92  8 21 21 25 30.0000000  0  7 03 20 16 24 26 23 17
  22074840.85906 -18103770.38606 -14106814.29709  22074709.43606  22074712.34006
  21872121.65706  -5274017.15906  -4109626.19309  21871989.96806  21871993.51506
  22333117.93806  -5822767.79106  -4537208.60009  22332985.81006  22332988.46406
  25288360.68206  25512414.37806  19879789.31409  25288228.86906  25288234.06406
  24369007.70806  -6349031.36606  -4947267.43109  24368876.16306  24368882.10906
  24520075.12006  -6522551.21606  -5082478.44109  24519943.56406  24519952.15106
  22359227.56806 -15076380.06406 -11747802.95209  22359095.62106  22359098.95406
 92  8 21 21 26  0.0000000  0  7 03 20 16 24 26 23 17
  22065468.65706 -18153019.38106 -14145190.10909  22065337.55306  22065340.43906
  21886137.93606  -5200360.88306  -4052231.74109  21886006.30506  21886009.96006
  22346239.42106  -5753814.63506  -4483478.88309  22346107.19206  22346109.81806
  25304429.27906  25596854.90206  19945587.06509  25304297.48506  25304302.20306
  24356084.50506  -6416943.19606  -5000185.50409  24355952.75506  24355958.59706
  24500986.88806  -6622858.16506  -5160639.34309  24500855.15606  24500864.23506
  22349486.23406 -15127571.09906 -11787691.99409  22349354.36106  22349357.57606
 92  8 21 21 26 30.0000000  0  7 03 20 16 24 26 23 17
  22056125.16506 -18202121.85206 -14183451.75109  22055993.66606  22055996.54506
  21900245.29506  -5126226.54206  -3994464.77109  21900113.68806  21900117.24106
  22359444.34506  -5684422.53106  -4429407.13109  22359312.14006  22359314.75706
  25320497.74106  25681296.25206  20011385.49409  25320365.80906  25320370.74506
  24343194.32406  -6484679.52006  -5052966.82709  24343062.66606  24343068.40706
  24481927.28706  -6723016.18906  -5238684.15809  24481795.51906  24481804.30106
  22339791.20806 -15178519.05106 -11827391.62409  22339659.26506  22339662.44906
 92  8 21 21 27  0.0000000  0  7 03 20 16 24 26 23 17
  22046809.52606 -18251075.26306 -14221597.24409  22046678.14106  22046681.01706
  21914443.32806  -5051616.24806  -3936326.92709  21914311.63306  21914315.19406
  22372732.41606  -5614593.04406  -4374994.55809  22372600.23606  22372602.79606
  25336566.41406  25765742.61206  20077187.76609  25336434.70806  25336440.42706
  24330339.95106  -6552229.22106  -5105602.74109  24330208.19406  24330214.02306
  24462895.35606  -6823030.39406  -5316616.97509  24462763.53406  24462771.70706
  22330143.40506 -15229216.98406 -11866896.42709  22330011.61106  22330014.84506
 92  8 21 21 27 30.0000000  0  7 03 20 16 24 26 23 17
  22037524.55406 -18299867.58806 -14259617.21309  22037393.22206  22037396.24006
  21928733.18706  -4976521.87506  -3877811.87709  21928601.59706  21928605.14906
  22386103.00706  -5544328.93506  -4320243.32009  22385971.03406  22385973.68706
  25352640.31706  25850208.99406  20143005.58609  25352508.78206  25352514.04406
  24317524.07706  -6619575.54706  -5158080.17709  24317392.54506  24317398.23806
  24443891.80306  -6922893.68706  -5394432.22209  24443759.88206  24443768.31106
  22320546.27806 -15279650.56306 -11906195.23809  22320414.36506  22320417.60206
 92  8 21 21 28  0.0000000  0  8 03 20 16 24 26 23 25 17
  22028269.14006 -18348504.77706 -14297516.29609  22028137.80606  22028140.77406
  21943113.56206  -4900953.24206  -3818927.27309  21942981.90906  21942985.42206
  22399555.90306  -5473634.16706  -4265156.50709  22399423.78706  22399426.48306
  25368715.74406  25934681.69806  20208828.41509  25368583.94606  25368588.81306
  24304747.61806  -6686716.49406  -5210397.58009  24304615.91206  24304621.70806
  24424916.77906  -7022606.41506  -5472130.09909  24424784.89806  24424793.54106
  26092950.26016        -0.99716        -0.30419  26092818.44216  26092829.87416
  22310998.76406 -15329822.83806 -11945290.43909  22310866.88306  22310870.04006
 92  8 21 21 28 30.0000000  0  8 03 20 16 24 26 23 25 17
  22019043.01006 -18396989.02906 -14335296.20809  22018911.58006  22018914.42006
  21957582.72106  -4824916.97706  -3759678.28509  21957451.17806  21957454.69006
  22413094.35106  -5402487.45406  -4209717.52809  22412962.58406  22412965.22006
  25384792.35306  26019165.77506  20274660.12509  25384660.78006  25384665.35306
  24292007.22306  -6753666.62206  -5262566.28709  24291875.53506  24291881.21606
  24405973.49806  -7122153.19606  -5549698.68509  24405841.65106  24405849.93906
  26104821.43606     62384.01206     48611.01109  26104689.69906  26104697.63106
  22301502.35906 -15379726.74906 -11984176.52809  22301370.32306  22301373.46906
 92  8 21 21 29  0.0000000  0  8 03 20 16 24 26 23 25 17
  22009844.41606 -18445326.98306 -14372962.12409  22009713.18806  22009715.99106
  21972139.12506  -4748423.51106  -3700073.03209  21972007.42106  21972010.95106
  22426719.76106  -5330886.68306  -4153924.73809  22426587.79706  22426590.42806
  25400871.55106  26103665.06806  20340503.64609  25400739.58306  25400745.05606
  24279297.38506  -6820455.41106  -5314609.27609  24279165.82906  24279171.62106
  24387063.81606  -7221523.07306  -5627129.45809  24386931.93806  24386940.07106
  26116729.34306    124961.72806     97372.67909  26116597.23106  26116606.60406
  22292055.37206 -15429369.83706 -12022859.37909  22291923.61306  22291926.68706
 92  8 21 21 29 30.0000000  0  7 03 20 16 24 26 23 17
  22000674.10506 -18493518.45106 -14410513.89109  22000542.71706  22000545.41906
  21986781.43406  -4671477.22406  -3640114.93509  21986649.89006  21986653.39606
  22440426.68106  -5258856.86606  -4097797.62509  22440294.65506  22440297.30406
  25416950.27806  26188159.17806  20406343.13009  25416818.18406  25416823.79206
  24266617.38606  -6887087.56006  -5366530.20809  24266485.97406  24266491.48206
  24368187.70806  -7320715.38706  -5704421.85509  24368055.64606  24368064.00106
  22282656.35006 -15478762.48806 -12061347.08409  22282524.43506  22282527.49206
 92  8 21 21 30  0.0000000  0  7 03 20 16 24 26 23 17
  21991532.32506 -18541558.78606 -14447947.89409  21991400.92406  21991403.65306
  22001510.02706  -4594077.45006  -3579803.46709  22001378.51106  22001382.09906
  22454218.48506  -5186381.11306  -4041323.02909  22454086.32106  22454088.94606
  25433025.14606  26272631.92606  20472165.97909  25432893.20406  25432898.70906
  24253970.18406  -6953549.36106  -5418318.40809  24253838.65406  24253844.22006
  24349345.24006  -7419731.84006  -5781577.19809  24349213.48106  24349221.61806
  22273304.71306 -15527904.97206 -12099639.85109  22273172.83106  22273175.93306
 92  8 21 21 30 30.0000000  0  7 03 20 16 24 26 23 17
  21982418.48506 -18589451.91006 -14485267.18109  21982287.11706  21982289.94606
  22016323.37706  -4516232.51306  -3519145.12409  22016191.93006  22016195.54706
  22468091.75906  -5113474.89806  -3984513.01109  22467959.92206  22467962.61506
  25449090.99406  26357060.70606  20537954.55909  25448959.56406  25448965.26106
  24241352.88206  -7019852.12606  -5469982.67609  24241221.39506  24241226.96206
  24330534.03906  -7518583.98506  -5858604.51209  24330402.15106  24330410.17006
  22264001.59106 -15576792.80206 -12137734.18709  22263869.76706  22263872.84306
 92  8 21 21 31  0.0000000  0  7 03 20 16 24 26 23 17
  21973332.11406 -18637201.02106 -14522474.25309  21973200.69906  21973203.53606
  22031220.33106  -4437949.58906  -3458145.49609  22031088.71106  22031092.33106
  22482043.05706  -5040161.84106  -3927385.97509  22481910.88506  22481913.59006
  25465145.18606  26441426.46906  20603693.98909  25465013.82106  25465019.74906
  24228771.11306  -7085970.39406  -5521503.17809  24228639.39006  24228644.94306
  24311750.16606  -7617291.41606  -5935519.05509  24311618.35906  24311626.31606
  22254745.77006 -15625431.74206 -12175634.58409  22254613.99206  22254617.04306
 92  8 21 21 31 30.0000000  0  7 03 20 16 24 26 23 17
  21964271.89706 -18684812.39406 -14559573.99609  21964140.50806  21964143.30206
  22046198.43306  -4359239.10106  -3396812.70009  22046066.86206  22046070.58706
  22496069.87306  -4966449.84606  -3869948.07709  22495937.83106  22495940.48006
  25481185.21106  26525714.89006  20669373.16209  25481053.60706  25481059.38006
  24216226.45206  -7151892.04006  -5572870.48009  24216094.74706  24216100.21306
  24292991.11206  -7715872.06206  -6012334.84409  24292859.00606  24292866.89006
  22245537.53806 -15673820.78206 -12213340.25209  22245405.74606  22245408.94706
 92  8 21 21 32  0.0000000  0  7 03 20 16 24 26 23 17
  21955236.32706 -18732294.31306 -14596572.86609  21955104.99406  21955107.76106
  22061255.51206  -4280114.23306  -3335157.01409  22061123.88506  22061127.68806
  22510173.41006  -4892335.12006  -3812196.36509  22510041.45806  22510044.16406
  25497211.81306  26609932.48606  20734997.16809  25497080.08006  25497085.41206
  24203718.55306  -7217620.62406  -5624087.35109  24203586.90206  24203592.05206
  24274253.59406  -7814336.26806  -6089059.87909  24274121.50406  24274129.61206
  22236378.03006 -15721954.07306 -12250846.63509  22236246.34206  22236249.41006
 92  8 21 21 32 30.0000000  0  8 03 20 16 24 26 23 25 17
  21946225.22506 -18779647.87506 -14633471.71409  21946093.90506  21946096.68206
  22076390.35406  -4200580.04006  -3273182.38109  22076258.82206  22076262.61306
  22524351.47806  -4817827.95806  -3754138.85609  22524219.68306  22524222.32906
  25513228.88606  26694100.52506  20800582.58309  25513096.94006  25513102.01906
  24191247.42606  -7283155.83206  -5675153.54509  24191115.92106  24191120.84006
  24255539.45006  -7912677.97606  -6165689.47009  24255407.59106  24255415.25006
  26201069.35116        -0.20016        -0.03819  26200937.99116  26200947.03816
  22227266.55206 -15769834.92806 -12288156.31509  22227134.78006  22227137.77606
 92  8 21 21 33  0.0000000  0  7 03 20 16 24 26 23 17
  21937238.29306 -18826875.05406 -14670272.08609  21937106.88006  21937109.55106
  22091602.05106  -4120642.73306  -3210893.62809  22091470.46106  22091474.15406
  22538604.56606  -4742929.65406  -3695776.56209  22538472.48706  22538475.10606
  25529239.92806  26778237.02606  20866143.42609  25529107.77206  25529112.56606
  24178812.21706  -7348502.77406  -5726073.04409  24178680.64406  24178685.53206
  24236849.85106  -8010892.97606  -6242220.39609  24236717.79106  24236725.15606
  22218201.08106 -15817474.05306 -12325277.63609  22218069.32806  22218072.29106
 92  8 21 21 33 30.0000000  4  1
 -2341103.0000 -4689265.0000  3623535.0000                  APPROX POSITION XYZ
 92  8 21 21 33 30.0000000  0  7 03 20 16 24 26 23 17
  21928276.91806 -18873967.21506 -14706967.24909  21928145.56406  21928148.22906
  22106891.17106  -4040298.11906  -3148287.48609  22106759.60106  22106763.18706
  22552934.74606  -4667623.32306  -3637096.32409  22552802.74106  22552805.39806
  25545246.33606  26862352.52506  20931687.91709  25545114.29706  25545118.85306
  24166409.31706  -7413680.03706  -5776860.32909  24166277.67006  24166282.41706
  24218186.04806  -8108970.05106  -6318643.80009  24218054.10406  24218061.76706
  22209181.55906 -15864872.35306 -12362211.30309  22209049.71206  22209052.65706
 92  8 21 21 34  0.0000000  0  7 03 20 16 24 26 23 17
  21919344.28606 -18920908.23106 -14743544.63509  21919212.93706  21919215.65606
  22122260.05206  -3959534.47406  -3085354.82809  22122128.37606  22122132.03806
  22567343.31106  -4591905.90706  -3578095.75709  22567211.30806  22567213.96206
  25561250.92806  26946462.18806  20997227.87909  25561119.30406  25561124.78406
  24154040.13706  -7478680.56106  -5827509.89409  24153908.34306  24153913.03206
  24199552.92506  -8206886.54706  -6394942.08309  24199421.13206  24199428.36506
  22200208.11706 -15912027.35906 -12398955.38909  22200076.29706  22200079.32806
 92  8 21 21 34 30.0000000  0  7 03 20 16 24 26 23 17
  21910443.56806 -18967681.33806 -14779991.18309  21910312.27206  21910314.97606
  22137710.81406  -3878339.69706  -3022086.22709  22137579.16906  22137582.92406
  22581832.58606  -4515764.68206  -3518764.95709  22581700.56706  22581703.13706
  25577255.58906  27030566.82406  21062763.86209  25577123.86106  25577129.62406
  24141706.65106  -7543489.94106  -5878010.52409  24141575.39406  24141580.17806
  24180955.77906  -8304610.62606  -6471090.45109  24180824.42606  24180831.89206
  22191281.29406 -15958937.51606 -12435508.68509  22191149.51306  22191152.54806
 92  8 21 21 35  0.0000000  0  7 03 20 16 24 26 23 17
  21901578.50306 -19014268.20306 -14816292.60709  21901447.08006  21901449.76906
  22153246.40006  -3796699.66206  -2958470.67209  22153114.85306  22153118.57006
  22596403.35606  -4439194.96106  -3459100.26109  22596271.26606  22596273.86206
  25593259.32106  27114662.80906  21128293.08309  25593127.28806  25593132.85406
  24129416.02106  -7608077.92706  -5928338.64309  24129284.62006  24129289.38206
  24162401.45306  -8402114.89906  -6547067.48509  24162269.75406  24162277.47306
  22182403.79806 -16005589.17606 -12471860.55509  22182271.84606  22182274.95506
 92  8 21 21 35 30.0000000  0  7 03 20 16 24 26 23 17
  21892748.59506 -19060670.04306 -14852449.86109  21892617.12906  21892619.79006
  22168865.68706  -3714620.14606  -2894512.66409  22168734.12306  22168737.87106
  22611053.12006  -4362209.99106  -3399111.99009  22610921.04806  22610923.64806
  25609258.35806  27198736.04806  21193804.60509  25609126.27906  25609131.63206
  24117170.97906  -7672426.38506  -5978480.12209  24117039.26406  24117044.08606
  24143888.11506  -8499401.83506  -6622875.16709  24143756.31206  24143763.81606
  22173574.69806 -16051986.52806 -12508014.26609  22173442.78406  22173445.72306
 92  8 21 21 36  0.0000000  0  7 03 20 16 24 26 23 17
  21883951.15406 -19106900.18706 -14888473.32409  21883819.79106  21883822.43706
  22184565.19006  -3632118.40006  -2830225.64409  22184433.71806  22184437.45306
  22625776.40906  -4284838.72906  -3338822.72009  22625644.25306  22625647.03306
  25625248.43506  27282766.18906  21259282.55909  25625116.71606  25625122.17906
  24104973.92606  -7736522.38906  -6028424.88709  24104841.98506  24104846.92106
  24125414.68906  -8596481.47906  -6698521.33809  24125282.51506  24125289.47106
  22164794.58506 -16098126.24006 -12543967.22409  22164662.68306  22164665.55306
 92  8 21 21 36 30.0000000  0  7 03 20 16 26 24 23 17
  21875182.05206 -19152982.14006 -14924381.31709  21875050.62606  21875053.26106
  22200339.78906  -3549223.15206  -2765632.00209  22200208.18306  22200211.93506
  22640569.35606  -4207100.66306  -3278247.62609  22640437.32406  22640440.15806
  24092821.92906  -7800378.42306  -6078182.67209  24092690.51406  24092695.33406
  25641225.41906  27366726.04806  21324705.73609  25641093.57206  25641099.19106
  24106976.10806  -8693376.21806  -6774023.48509  24106844.01006  24106851.10706
  22156060.38106 -16144024.37906 -12579731.94409  22155928.53406  22155931.32106
 92  8 21 21 37  0.0000000  0  7 03 20 16 26 24 23 17
  21866436.86206 -19198938.75706 -14960191.64609  21866305.40806  21866307.99706
  22216184.22006  -3465961.60306  -2700752.92709  22216052.42406  22216056.18906
  22655426.11706  -4129028.37406  -3217412.09609  22655293.94206  22655296.74806
  24080709.13806  -7864032.15706  -6127782.81109  24080577.30306  24080582.15106
  25657188.11506  27450612.19106  21390071.50009  25657056.56106  25657062.12106
  24088564.89706  -8790124.53306  -6849411.47509  24088432.97206  24088440.08306
  22147367.01606 -16189708.84106 -12615330.16309  22147235.01306  22147237.83706
 92  8 21 21 37 30.0000000  0  7 03 20 16 26 24 23 17
  21857711.45906 -19244791.45606 -14995921.00109  21857579.94506  21857582.54606
  22232093.10606  -3382359.67006  -2635608.61809  22231961.48106  22231965.22306
  22670343.47206  -4050636.92406  -3156327.87409  22670211.39506  22670214.17706
  24068625.35206  -7927531.09106  -6177262.32609  24068493.74906  24068498.67806
  25673135.50706  27534414.94306  21455372.26009  25673003.72806  25673009.19606
  24070177.25206  -8886754.46906  -6924707.29509  24070045.17406  24070051.47406
  22138710.62506 -16235198.20906 -12650776.35809  22138578.67206  22138581.46506
 92  8 21 21 38  0.0000000  0  7 03 20 16 26 24 23 17
  21849005.59106 -19290539.50406 -15031568.80809  21848874.26506  21848877.00506
  22248066.25506  -3298420.79006  -2570201.75609  22247934.58106  22247938.36306
  22685323.11806  -3971919.13806  -3094989.36009  22685191.00106  22685193.79006
  24056569.24906  -7990887.72606  -6226630.95809  24056437.50806  24056442.38006
  25689067.70706  27618137.05306  21520610.22109  25688935.77206  25688940.95706
  24051813.10106  -8983254.39706  -6999901.80309  24051681.14506  24051688.46806
  22130091.14806 -16280492.88706 -12686070.85209  22129959.29806  22129962.12206
 92  8 21 21 38 30.0000000  0  7 03 20 16 26 24 23 17
  21840321.45206 -19336176.06406 -15067129.73909  21840189.93906  21840192.57806
  22264103.45806  -3214143.30206  -2504531.04709  22263971.95006  22263975.95006
  22700366.48906  -3892864.81006  -3033388.60609  22700234.48606  22700237.28306
  24044537.34106  -8054115.05506  -6275898.83709  24044405.64406  24044410.39606
  25704987.32106  27701796.14306  21585799.05309  25704855.45206  25704860.75706
  24033477.61106  -9079609.35006  -7074983.28209  24033345.36706  24033352.28806
  22121504.62706 -16325614.86306 -12721230.77009  22121372.77306  22121375.59406
 92  8 21 21 39  0.0000000  0  7 03 20 16 26 24 23 17
  21831661.82006 -19381682.93706 -15102589.61909  21831530.29006  21831532.88906
  22280207.99106  -3129513.57306  -2438585.87309  22280076.40306  22280080.47306
  22715475.02806  -3813469.26406  -2971521.97509  22715342.98906  22715345.73406
  24032533.82306  -8117192.45906  -6325049.88809  24032402.14606  24032406.96406
  25720897.97606  27785408.91806  21650951.80809  25720765.97406  25720771.83506
  24015172.68406  -9175797.35106  -7149934.74609  24015040.91106  24015048.04206
  22112952.47006 -16370555.21106 -12756249.16109  22112820.88406  22112823.64706
 92  8 21 21 39 30.0000000  0  7 03 20 16 26 24 23 17
  21823028.01106 -19427053.66306 -15137943.40809  21822896.52506  21822899.06606
  22296380.12906  -3044529.48406  -2372364.57809  22296248.46106  22296252.46406
  22730650.70906  -3733721.40006  -2909380.80309  22730518.59706  22730521.35406
  24020564.26806  -8180091.97906  -6374062.32509  24020432.51206  24020437.39306
  25736796.63406  27868957.15306  21716054.20409  25736664.86106  25736670.84106
  23996903.17706  -9271805.10406  -7224745.66109  23996771.15406  23996778.44006
  22104438.40406 -16415297.43806 -12791113.17209  22104306.53506  22104309.35606
 92  8 21 21 40  0.0000000  0  7 03 20 16 26 24 23 17
  21814422.92306 -19472273.91106 -15173179.94009  21814291.38906  21814293.94106
  22312621.57106  -2959181.40306  -2305859.65209  22312489.74506  22312493.68106
  22745894.03606  -3653616.87606  -2846961.70909  22745761.95806  22745764.61306
  24008636.18206  -8242774.08506  -6422905.35009  24008504.52006  24008509.21606
  25752684.54506  27952446.98706  21781111.12909  25752552.98106  25752558.74306
  23978669.73606  -9367623.97306  -7299409.44809  23978537.42206  23978544.14406
  22095964.63306 -16459827.76506 -12825812.06509  22095832.73606  22095835.58806
 92  8 21 21 40 30.0000000  0  7 03 20 16 26 24 23 17
  21805846.55106 -19517342.53106 -15208298.31909  21805715.06906  21805717.61806
  22328931.35906  -2873472.58306  -2239073.61709  22328799.71106  22328803.48306
  22761202.59806  -3573171.12206  -2784276.73609  22761070.35106  22761073.11706
  23996750.67406  -8305232.08406  -6471573.74809  23996619.01406  23996623.50606
  25768560.03306  28035870.77906  21846116.59509  25768428.30806  25768433.88606
  23960467.21606  -9463277.69906  -7373944.56209  23960335.11406  23960341.64906
  22087533.07006 -16504136.38406 -12860338.20009  22087401.13206  22087403.81806
 92  8 21 21 41  0.0000000  0  7 03 20 16 26 24 23 17
  21797302.61806 -19562241.44106 -15243284.45609  21797171.08606  21797173.62406
  22345312.14606  -2787389.94306  -2171996.29909  22345180.65906  22345184.56206
  22776577.42906  -3492374.84606  -2721318.61609  22776445.39006  22776448.07006
  23984913.32206  -8367438.86706  -6520046.40809  23984781.46206  23984785.74006
  25784424.07106  28119235.34206  21911075.93909  25784292.27306  25784297.60906
  23942298.12906  -9558756.55606  -7448343.43109  23942165.98006  23942172.52906
  22079149.47006 -16548192.17506 -12894667.32809  22079017.58806  22079020.20906
 92  8 21 21 41 30.0000000  0  7 03 20 16 26 24 23 17
  21788794.59406 -19606951.60306 -15278123.51309  21788662.97706  21788665.60806
  22361767.06806  -2700919.17006  -2104616.54409  22361635.49306  22361639.44406
  22792024.22106  -3411200.63406  -2658065.99809  22791892.31506  22791894.93606
  23973127.03006  -8429374.67706  -6568307.92809  23972995.31606  23972999.63406
  25800279.12506  28202556.22206  21976001.23909  25800147.40306  25800153.08206
  23924161.93206  -9654060.75706  -7522606.19709  23924029.81206  23924036.00906
  22070817.84806 -16591974.56406 -12928783.41309  22070686.01306  22070688.73606
 92  8 21 21 42  0.0000000  0  7 03 20 16 26 24 23 17
  21780324.45006 -19651462.07506 -15312806.97209  21780192.90406  21780195.46806
  22378296.92406  -2614053.98106  -2036929.46009  22378165.46706  22378169.44906
  22807543.52006  -3329647.36906  -2594518.02209  22807411.38106  22807414.07006
  23961394.05206  -8491031.08806  -6616351.73209  23961262.34206  23961266.65706
  25816129.40206  28285849.26406  22040904.82409  25815997.28006  25816003.12806
  23906061.12806  -9749182.31206  -7596726.71709  23905928.88506  23905935.08006
  22062539.17706 -16635479.79306 -12962683.52709  22062407.16506  22062409.81306
 92  8 21 21 42 30.0000000  0  7 03 20 16 26 24 23 17
  21771893.55906 -19695766.28306 -15347329.70909  21771762.04806  21771764.60906
  22394902.50406  -2526792.33006  -1968933.43809  22394771.00206  22394774.82106
  22823135.56706  -3247711.16106  -2530671.64809  22823003.37306  22823006.02206
  23949713.21306  -8552413.06506  -6664181.69309  23949581.60506  23949585.99206
  25831975.79106  28369124.71306  22105794.71909  25831844.05606  25831850.11106
  23887997.92906  -9844100.92806  -7670689.02209  23887865.86206  23887872.50206
  22054310.14006 -16678723.16706 -12996379.60209  22054178.21406  22054180.81706
 92  8 21 21 43  0.0000000  0  7 03 20 16 26 24 23 17
  21763501.46406 -19739866.02806 -15381693.12609  21763370.09606  21763372.70806
  22411582.05006  -2439140.96206  -1900633.74109  22411450.50106  22411454.39906
  22838801.57506  -3165386.30806  -2466522.44309  22838669.24706  22838672.04106
  23938085.33506  -8613515.38306  -6711793.73809  23937954.08606  23937958.41506
  25847820.36406  28452387.02006  22170674.35709  25847688.43106  25847694.58506
  23869978.06206  -9938796.65006  -7744477.72709  23869845.86106  23869851.70706
  22046126.38206 -16721728.31606 -13029890.04409  22045994.49406  22045997.15406
 92  8 21 21 43 30.0000000  0  7 03 20 16 26 23 24 17
  21755148.94506 -19783758.96406 -15415895.38809  21755017.50706  21755020.17106
  22428335.50306  -2351102.40406  -1832032.33509  22428203.79006  22428207.57006
  22854541.03006  -3082673.39106  -2402070.84509  22854409.01006  22854411.65306
  23926512.77406  -8674332.86406  -6759183.83609  23926380.86406  23926385.01606
  23852000.22106 -10033264.97706  -7818089.17909  23851868.28606  23851875.56706
  25863662.56106  28535641.84806  22235548.17009  25863530.83206  25863537.44806
  22037987.86406 -16764497.03206 -13063216.25409  22037855.85006  22037858.45506
 92  8 21 21 44  0.0000000  0  7 03 20 16 26 23 24 17
  21746835.67506 -19827445.68806 -15449936.96909  21746704.20706  21746706.80106
  22445161.28806  -2262681.82106  -1763133.24609  22445029.65406  22445033.55306
  22870350.91106  -2999592.04906  -2337332.16009  22870218.82906  22870221.54206
  23914991.88506  -8734873.41906  -6806358.15209  23914860.29506  23914864.32306
  23834072.20306 -10127481.76906  -7891504.60709  23833940.01606  23833946.12406
  25879506.02606  28618898.40706  22300423.28409  25879374.35306  25879380.12806
  22029893.61906 -16807032.22006 -13096360.49709  22029761.67006  22029764.22906
 92  8 21 21 44 30.0000000  0  7 03 20 16 26 23 24 17
  21738561.89306 -19870924.59406 -15483816.61909  21738430.44606  21738432.97006
  22462059.20606  -2173882.46806  -1693939.01509  22461927.59106  22461931.56806
  22886229.61406  -2916148.68306  -2272311.38009  22886097.66606  22886100.35106
  23903524.21306  -8795135.26806  -6853315.29909  23903392.61306  23903396.60006
  23816191.95406 -10221436.45806  -7964715.85709  23816060.48906  23816067.14006
  25895350.91606  28702162.50006  22365304.30709  25895219.52106  25895224.28506
  22021844.29906 -16849330.86906 -13129320.42109  22021712.37106  22021715.02906
 92  8 21 21 45  0.0000000  0  7 03 20 16 26 23 17 24
  21730327.39706 -19914196.94606 -15517535.31509  21730195.95506  21730198.46606
  22479028.10706  -2084710.34506  -1624454.32709  22478896.48606  22478900.76506
  22902175.85306  -2832351.94806  -2207015.25509  22902043.64206  22902046.39606
  23892110.50306  -8855112.85606  -6900050.94709  23891978.99406  23891983.01306
  23798361.34606 -10315140.11506  -8037731.44409  23798229.50906  23798235.96606
  22013843.78806 -16891372.40306 -13162079.98909  22013712.02706  22013714.73206
  25911197.83906  28785435.35106  22430192.30709  25911065.96806  25911070.98106
 92  8 21 21 45 30.0000000  0  7 03 20 16 26 23 17 24
  21722132.97306 -19957259.28106 -15551090.36709  21722001.49206  21722003.97806
  22496067.58406  -1995167.05606  -1554680.42809  22495936.12606  22495940.33006
  22918188.33406  -2748205.77906  -2141446.84409  22918056.15306  22918058.91906
  23880748.91106  -8914818.64006  -6946574.80409  23880617.30806  23880621.44406
  23780578.02406 -10408590.31106  -8110549.55309  23780446.19406  23780452.12806
  22005897.22406 -16933131.50006 -13194619.47909  22005765.51406  22005768.18206
  25927046.91006  28868720.32106  22495089.68909  25926914.88806  25926920.30806
 92  8 21 21 46  0.0000000  0  7 03 20 16 26 23 17 24
  21713980.46106 -20000100.61206 -15584473.20409  21713848.97906  21713851.58806
  22513179.00106  -1905245.85906  -1484612.04609  22513047.60406  22513051.94906
  22934268.42906  -2663703.19806  -2075600.71809  22934136.56406  22934139.23606
  23869440.61106  -8974244.00706  -6992880.15009  23869309.00906  23869313.13606
  23762846.04206 -10501774.97006  -8183160.79409  23762714.08206  23762720.14606
  21998007.12206 -16974595.19806 -13226928.79209  21997875.08706  21997877.69406
  25942899.01106  28952023.79306  22560001.39609  25942767.03306  25942772.57906
 92  8 21 21 46 30.0000000  0  7 03 20 16 26 23 17 24
  21705873.71906 -20042701.76306 -15617668.88809  21705742.24806  21705744.81106
  22530365.40506  -1814932.85606  -1414238.37409  22530233.74906  22530237.91306
  22950421.23806  -2578818.76506  -2009457.02709  22950289.44206  22950292.28006
  23858189.50506  -9033368.04406  -7038950.68309  23858057.79806  23858062.04206
  23745164.02606 -10594689.42406  -8255561.39909  23745032.33206  23745038.68506
  21990173.95606 -17015757.74806 -13259003.44709  21990042.09406  21990044.69306
  25958755.16506  29035350.33706  22624931.12709  25958623.35906  25958629.42706
 92  8 21 21 47  0.0000000  0  7 03 20 16 26 23 17 24
  21697812.51106 -20085063.58206 -15650678.07809  21697681.06506  21697683.61706
  22547624.93806  -1724233.91806  -1343563.94409  22547493.21706  22547497.20906
  22966648.97006  -2493542.79106  -1943008.24909  22966516.99806  22966519.73606
  23846996.14606  -9092189.77506  -7084785.65709  23846864.31506  23846868.52306
  23727532.67006 -10687344.69206  -8327760.14309  23727400.76706  23727406.21206
  21982397.82606 -17056621.85606 -13290845.54909  21982265.90606  21982268.49906
  25974613.41106  29118687.02006  22689868.71809  25974481.61606  25974487.75306
 92  8 21 21 47 30.0000000  0  6 03 20 16 26 23 17
  21689797.19806 -20127184.42106 -15683499.49309  21689665.70306  21689668.30006
  22564957.22006  -1633152.28706  -1272591.31709  22564825.52506  22564829.48806
  22982951.37706  -2407874.57006  -1876253.83209  22982819.12206  22982821.99306
  23835860.56006  -9150707.28506  -7130383.57909  23835728.80606  23835733.07406
  23709949.31706 -10779742.78006  -8399758.40309  23709817.32706  23709823.60706
  21974677.31906 -17097193.76306 -13322459.96609  21974545.36406  21974547.91906
 92  8 21 21 48  0.0000000  0  6 03 20 16 26 23 17
  21681829.18106 -20169056.55406 -15716127.11309  21681697.66906  21681700.24606
  22582362.78506  -1541684.99506  -1201318.17809  22582231.12606  22582235.25706
  22999328.07806  -2321814.48406  -1809194.06509  22999195.86006  22999198.53406
  23824788.77606  -9208890.95506  -7175721.36909  23824656.88306  23824660.96806
  23692415.34606 -10871884.99506  -8471557.36009  23692283.25106  23692288.86206
  21967009.16706 -17137490.58006 -13353860.02809  21966877.07006  21966879.57406
 92  8 21 21 48 30.0000000  0  7 03 20 16 26 23 17 24
  21673910.20006 -20210670.50906 -15748553.55509  21673778.79906  21673781.35406
  22599842.87906  -1449827.32006  -1129740.84409  22599711.16506  22599715.30506
  23015780.24806  -2235357.64106  -1741825.13309  23015648.00706  23015650.81406
  23813783.11606  -9266724.49906  -7220786.34209  23813651.43006  23813655.48506
  23674930.44506 -10963768.04706  -8543154.30509  23674798.36906  23674804.39106
  21959396.07206 -17177495.22706 -13385032.42609  21959264.36406  21959266.93006
  26022177.07616        -0.13416        -0.25519  26022045.28616  26022051.44316
 92  8 21 21 49  0.0000000  0  7 03 20 16 26 23 17 24
  21666043.02506 -20252012.77706 -15780768.29009  21665911.56406  21665914.15706
  22617398.64506  -1357571.02906  -1057852.91409  22617267.07406  22617271.42106
  23032308.15406  -2148502.07906  -1674145.49909  23032176.09406  23032178.99606
  23802849.19306  -9324181.69706  -7265558.06309  23802717.68006  23802721.64806
  23657497.46206 -11055378.56006  -8614538.94209  23657365.37606  23657370.93506
  21951844.60806 -17217178.33906 -13415954.27509  21951712.83806  21951715.50706
  26038032.70406     83320.79906     64925.05109  26037901.03506  26037907.01606
 92  8 21 21 49 30.0000000  0  7 03 20 16 26 23 17 24
  21658227.48906 -20293083.63906 -15812771.54009  21658096.00506  21658098.58606
  22635029.40506  -1264921.23806   -985658.36109  22634897.79206  22634902.08106
  23048906.83606  -2061275.20506  -1606176.55509  23048774.86106  23048777.73506
  23791986.62406  -9381266.07806  -7310039.29309  23791854.91206  23791858.68606
  23640118.67506 -11146705.28306  -8685702.41209  23639986.58006  23639992.17006
  21944352.79006 -17256549.78606 -13446633.27009  21944220.68906  21944223.24606
  26053891.36706    166657.42406    129862.65809  26053759.54406  26053765.23006
 92  8 21 21 50  0.0000000  0  7 03 20 16 26 23 17 24
  21650463.71706 -20333881.86206 -15844562.34209  21650332.38706  21650334.92306
  22652734.32006  -1171881.50006   -913159.95009  22652602.77006  22652607.08106
  23065575.27206  -1973682.75106  -1537922.73309  23065443.30806  23065446.15206
  23781194.25806  -9437978.29506  -7354230.52209  23781062.67606  23781066.37906
  23622794.49706 -11237740.84206  -8756639.01009  23622662.52206  23622668.35206
  21936918.20106 -17295618.38406 -13477076.28309  21936786.16106  21936788.65806
  26069754.95506    250020.77106    194821.14609  26069623.09906  26069628.39506
 92  8 21 21 50 30.0000000  0  7 03 20 16 26 23 17 24
  21642751.31806 -20374412.03106 -15876144.27209  21642619.81906  21642622.25306
  22670511.35906  -1078461.75606   -840365.43309  22670379.87606  22670384.26306
  23082312.36606  -1885730.97906  -1469388.92209  23082180.00706  23082182.75006
  23770469.46206  -9494336.69306  -7398146.05009  23770337.95706  23770341.66406
  23605527.33606 -11328481.68606  -8827345.95809  23605395.37906  23605400.87406
  21929541.66906 -17334381.52306 -13507281.27409  21929409.81506  21929412.25806
  26085624.31206    333414.51706    259803.25109  26085492.49506  26085497.75506
 92  8 21 21 51  0.0000000  0  7 03 20 16 26 23 17 24
  21635086.95506 -20414688.23906 -15907528.30909  21634955.46306  21634957.93706
  22688357.42106   -984680.84506   -767289.47809  22688225.87306  22688230.01406
  23099111.74806  -1797447.83606  -1400596.89709  23098979.71306  23098982.47906
  23759807.42506  -9550366.02206  -7441805.15409  23759675.78706  23759679.60806
  23588313.47106 -11418934.13006  -8897828.14709  23588182.04106  23588187.87606
  21922215.86606 -17372878.25006 -13537278.67309  21922084.05506  21922086.50706
  26101496.08706    416821.65406    324795.80509  26101364.23806  26101369.90806
 92  8 21 21 51 30.0000000  0  6 03 20 16 26 23 17
  21627471.89606 -20454704.89806 -15938710.10009  21627340.53306  21627343.00006
  22706272.29306   -890538.38306   -693931.80709  22706140.67606  22706144.97206
  23115977.89906  -1708816.67306  -1331533.68609  23115845.62906  23115848.41106
  23749205.65906  -9606077.52406  -7485216.59609  23749074.13606  23749078.02006
  23571156.80106 -11509097.07706  -8968084.82009  23571024.86506  23571030.08106
  21914940.40606 -17411111.57106 -13567070.82009  21914808.55206  21914810.90806
 92  8 21 21 52  0.0000000  0  6 03 20 16 26 23 17
  21619907.34306 -20494456.37306 -15969685.25109  21619776.06606  21619778.51706
  22724256.02506   -796033.64506   -620291.83509  22724124.45906  22724128.64006
  23132914.32406  -1619816.45606  -1262182.90609  23132781.89106  23132784.68306
  23738665.97306  -9661462.91606  -7528373.92209  23738534.39006  23738538.33506
  23554051.87606 -11598980.87806  -9038123.91909  23553920.12006  23553925.75306
  21907716.16506 -17449075.37006 -13596652.95009  21907584.16606  21907586.50706
 92  8 21 21 52 30.0000000  0  6 03 20 16 26 23 17
  21612396.95206 -20533924.53506 -16000439.64009  21612265.49806  21612267.97306
  22742311.23506   -701153.18406   -546359.09809  22742179.63306  22742183.96906
  23149924.38606  -1530425.95406  -1192528.00709  23149792.29406  23149794.95606
  23728191.64906  -9716504.72406  -7571263.52509  23728060.16606  23728063.81906
  23537002.90406 -11688574.66106  -9107937.09409  23536871.02606  23536876.21906
  21900546.95906 -17486749.35306 -13626009.24809  21900414.98706  21900417.32606
 92  8 21 21 53  0.0000000  0  6 03 20 16 26 23 17
  21604947.63706 -20573070.72106 -16030943.13509  21604816.18106  21604818.67606
  22760444.56906   -605863.55706   -472107.53209  22760312.73106  22760317.19806
  23167014.87006  -1440613.42806  -1122544.24609  23166882.96206  23166885.81406
  23717792.13606  -9771155.19306  -7613848.20409  23717660.48906  23717663.87806
  23520016.04806 -11777841.39106  -9177495.39009  23519884.14606  23519889.40106
  21893439.91906 -17524096.27306 -13655110.69309  21893308.07406  21893310.37806
 92  8 21 21 53 30.0000000  0  6 03 20 16 26 23 17
  21597561.41406 -20611885.72206 -16061188.56609  21597429.94606  21597432.42906
  22778656.16506   -510160.71306   -397533.98509  22778524.45506  22778528.84206
  23184188.56306  -1350366.71806  -1052222.17709  23184056.45606  23184059.25506
  23707471.33906  -9825392.24506  -7656110.74509  23707339.54906  23707342.86306
  23503092.92606 -11866770.97206  -9246790.98709  23502961.16006  23502966.40306
  21886399.40206 -17561093.99606 -13683940.03209  21886267.52806  21886269.85806
 92  8 21 21 54  0.0000000  0  6 03 20 16 26 23 17
  21590234.39906 -20650388.68706 -16091190.85409  21590103.06106  21590105.49606
  22796941.87606   -414069.02806   -322657.43309  22796810.15206  22796814.55706
  23201436.14906  -1259729.33806   -981595.67409  23201304.23506  23201307.05206
  23697226.32706  -9879227.53506  -7698060.22509  23697094.86406  23697098.35506
  23486234.83806 -11955362.01706  -9315822.77809  23486102.75606  23486108.30506
  21879421.76706 -17597761.87106 -13712512.34709  21879289.87406  21879292.17706
 92  8 21 21 54 30.0000000  0  6 03 20 16 26 23 17
  21582960.08406 -20688615.82406 -16120978.21009  21582828.60406  21582831.07706
  22815293.79806   -317629.28606   -247509.67309  22815162.04406  22815166.51406
  23218748.02606  -1168753.46806   -910705.41709  23218616.36606  23218619.17806
  23687051.27906  -9932698.14506  -7739725.52809  23686919.60406  23686923.23106
  23469436.65906 -12043635.37206  -9384607.01709  23469304.80006  23469309.96806
  21872501.29906 -17634128.41106 -13740849.85709  21872369.51206  21872371.79706
 92  8 21 21 55  0.0000000  0  6 03 20 16 26 23 17
  21575732.62206 -20726594.92306 -16150572.29209  21575601.39306  21575603.83306
  22833705.58406   -220874.76406   -172116.64909  22833574.04006  22833578.45706
  23236118.00806  -1077476.81806   -839580.78109  23235985.82906  23235988.67706
  23676942.18706  -9985821.21606  -7781120.01309  23676810.55606  23676814.16906
  23452694.60406 -12131613.94406  -9453161.55609  23452562.72206  23452568.20906
  21865634.34506 -17670214.54506 -13768968.86809  21865502.46606  21865504.81806
 92  8 21 21 55 30.0000000  0  6 03 20 16 26 23 17
  21568548.94306 -20764345.54106 -16179988.34109  21568417.68506  21568420.14006
  22852172.62006   -123830.27506    -96497.64909  22852041.01506  22852045.33806
  23253539.89506   -985922.74706   -768239.98509  23253407.99006  23253410.78506
  23666897.27706 -10038607.66606  -7822252.20109  23666765.50606  23666769.23506
  23436005.01606 -12219318.27406  -9521502.42009  23435873.08606  23435878.09406
  21858816.99706 -17706039.94906 -13796884.70909  21858685.14106  21858687.46406
 92  8 21 21 56  0.0000000  0  6 03 17 20 16 26 23
  21561405.91706 -20801882.38206 -16209237.81109  21561274.62806  21561277.13006
  21852043.70706 -17741634.25606 -13824620.47909  21851911.69206  21851913.99606
  22870691.12606    -26515.39106    -20667.96009  22870559.52506  22870564.02506
  23271010.88806   -894112.34406   -696699.43909  23270878.93006  23270881.95806
  23656914.17006 -10091067.84106  -7863130.14709  23656782.72506  23656786.45206
  23419364.64406 -12306763.31706  -9589641.23509  23419232.77906  23419238.00406
 92  8 21 21 56 30.0000000  0  6 03 20 16 26 23 17
  21554303.41206 -20839206.58006 -16238321.58709  21554172.08706  21554174.53406
  22889259.86306     71063.66706     55367.57209  22889128.26606  22889132.79406
  23288532.03206   -802038.84506   -624953.89609  23288399.91306  23288402.76206
  23646995.16806 -10143193.92206  -7903747.76209  23646863.46606  23646867.05606
  23402770.31906 -12393965.86006  -9657591.10309  23402638.52606  23402643.42406
  21845311.27306 -17777013.02406 -13852188.29809  21845179.35806  21845181.61406
 92  8 21 21 57  0.0000000  0  6 03 17 20 16 26 23
  21547242.64206 -20876312.29806 -16267235.12109  21547111.13906  21547113.54206
  21838616.32906 -17812194.97706 -13879602.75909  21838484.40106  21838486.72106
  22907879.05406    168907.48806    131609.42209  22907747.34106  22907751.77206
  23306101.84206   -709707.32306   -553007.28509  23305969.99306  23305973.10806
  23637141.14306 -10194976.22906  -7944097.50809  23637009.70806  23637013.01506
  23386222.08106 -12480927.86706  -9725353.54709  23386090.23806  23386095.15306
 92  8 21 21 57 30.0000000  0  6 03 17 20 16 26 23
  21540224.47006 -20913192.65006 -16295973.04709  21540093.05206  21540095.41306
  21831956.63406 -17847191.47006 -13906872.70209  21831824.69606  21831827.00006
  22926549.06106    267017.85506    208058.97409  22926417.09406  22926421.61406
  23323721.07206   -617118.37306   -480860.09209  23323589.05006  23323592.11306
  23627351.90506 -10246419.90306  -7984183.39109  23627220.10506  23627223.38606
  23369720.19606 -12567642.65906  -9792923.34009  23369588.47306  23369593.55006
 92  8 21 21 58  0.0000000  0  6 03 17 20 16 26 23
  21533249.72506 -20949845.61406 -16324533.78509  21533118.18506  21533120.60406
  21825331.31806 -17882008.03506 -13934002.44309  21825199.28306  21825201.61706
  22945269.00306    365391.65806    284713.79509  22945136.98106  22945141.61106
  23341390.36006   -524266.32206   -408507.88709  23341258.28906  23341261.54506
  23617622.99306 -10297544.26106  -8024020.45309  23617491.44606  23617494.86606
  23353266.48306 -12654107.90106  -9860298.67809  23353134.55306  23353139.78406
 92  8 21 21 58 30.0000000  0  6 03 17 20 16 26 23
  21526317.88306 -20986271.95306 -16352917.93209  21526186.48706  21526188.91806
  21818740.63706 -17916642.02506 -13960989.92009  21818608.63506  21818610.92006
  22964038.06906    464022.74906    361569.10309  22963906.10306  22963910.56906
  23359109.63306   -431149.98506   -335949.73109  23358977.78906  23358980.77706
  23607951.75706 -10348364.85706  -8063620.81809  23607820.32406  23607823.73406
  23336857.15506 -12740339.12706  -9927491.65809  23336725.28906  23336730.22706
 92  8 21 21 59  0.0000000  0  6 03 17 20 16 26 23
  21519429.07806 -21022473.05706 -16381126.57009  21519297.58706  21519300.05206
  21812188.01906 -17951076.60506 -13987822.01009  21812055.95206  21812058.21506
  22982854.64806    562904.64206    438619.84209  22982722.86306  22982727.42506
  23376877.92606   -337778.35506   -263192.65909  23376745.93906  23376748.93306
  23598337.86806 -10398887.70206  -8102989.16409  23598206.20106  23598209.62106
  23320492.62506 -12826334.60506  -9994500.97309  23320360.78906  23320365.57606
 92  8 21 21 59 30.0000000  0  6 03 17 20 16 26 23
  21512581.86806 -21058455.03506 -16409164.45709  21512450.45306  21512452.85606
  21805674.75406 -17985302.83506 -14014491.75509  21805542.81406  21805545.05606
  23001716.71606    662026.37706    515857.45309  23001585.00806  23001589.76406
  23394696.91106   -244137.61406   -190225.88709  23394565.16806  23394568.28806
  23588779.31806 -10449118.34606  -8142129.82109  23588647.61106  23588650.99706
  23304172.25906 -12912099.36406 -10061330.48709  23304040.28206  23304045.00906
 92  8 21 22  0  0.0000000  0  6 03 17 20 16 26 23
  21505773.87506 -21094232.10306 -16437042.67609  21505642.33006  21505644.69906
  21799201.06106 -18019322.52006 -14041000.55409  21799069.06206  21799071.31906
  23020620.71906    761368.33206    593266.66709  23020489.31106  23020493.92306
  23412564.73406   -150242.92506   -117061.24009  23412432.78306  23412435.85006
  23579275.97406 -10499059.02606  -8181044.52609  23579144.04006  23579147.44906
  23287891.76706 -12997651.92306 -10127994.67709  23287759.86806  23287764.54806
 92  8 21 22  0 30.0000000  0  6 03 17 20 16 26 23
  21499000.82106 -21129823.74006 -16464776.40109  21498869.38706  21498871.86206
  21792763.60206 -18053150.35006 -14067359.85609  21792631.79106  21792634.08006
  23039562.19806    860906.05306    670828.42409  23039430.77206  23039435.54606
  23430474.02006    -56129.38106    -43726.05609  23430342.03806  23430345.06006
  23569826.55006 -10548713.51106  -8219736.22609  23569694.99006  23569698.44206
  23271648.46406 -13083010.75406 -10194507.89109  23271516.55506  23271521.41806
 92  8 21 22  1  0.0000000  0  6 03 17 20 16 26 23
  21492264.29306 -21165223.91206 -16492360.92809  21492132.94206  21492135.39706
  21786365.88306 -18086769.98906 -14093556.93009  21786234.15306  21786236.41906
  23058541.01706    960640.20506    748543.24109  23058409.57906  23058414.39406
  23448423.87906     38196.63606     29774.70609  23448291.66806  23448294.66806
  23560433.84206 -10598072.41106  -8258197.60109  23560302.12006  23560305.64406
  23255446.24406 -13168154.77406 -10260853.73009  23255314.13706  23255318.66506
 92  8 21 22  1 30.0000000  0  6 03 17 20 16 26 23
  21485566.34406 -21200422.21106 -16519788.15209  21485434.92106  21485437.37106
  21780006.02606 -18120191.26306 -14119599.43309  21779874.28006  21779876.48906
  23077558.19806   1060576.01906    826415.19609  23077426.84306  23077431.56206
  23466413.99906    132735.08406    103440.98409  23466281.84006  23466284.94006
  23551097.28406 -10647135.99706  -8296428.86609  23550965.59806  23550968.87406
  23239286.69706 -13253073.16806 -10327023.75109  23239154.54506  23239159.39306
 92  8 21 22  2  0.0000000  0  6 03 17 20 16 26 23
  21478909.67106 -21235403.56806 -16547046.32909  21478778.21506  21478780.59806
  21773685.85106 -18153404.16306 -14145479.57009  21773554.03106  21773556.21606
  23096615.78006   1160723.22006    904451.88009  23096484.31406  23096489.10006
  23484442.27606    227474.64506    177263.97609  23484310.17406  23484313.26106
  23541817.67206 -10695899.32606  -8334426.16409  23541686.06806  23541689.21306
  23223173.35706 -13337747.41806 -10393003.53809  23223041.58906  23223046.12306
 92  8 21 22  2 30.0000000  0  6 03 17 20 16 26 23
  21472295.31406 -21270162.68706 -16574131.33409  21472163.76306  21472166.10506
  21767403.80006 -18186415.92306 -14171202.97409  21767272.02006  21767274.17006
  23115713.41706   1261082.12506    982653.51509  23115582.04806  23115586.98306
  23502507.45206    322407.59506    251237.65809  23502375.19206  23502378.37006
  23532595.96006 -10744359.44206  -8372187.19709  23532464.31006  23532467.58006
  23207110.29006 -13422158.85906 -10458778.53109  23206978.57806  23206983.28706
 92  8 21 22  3  0.0000000  0  6 03 17 20 16 26 23
  21465724.97706 -21304689.24206 -16601035.12009  21465593.56606  21465595.90606
  21761159.54506 -18219229.75506 -14196772.15209  21761027.74306  21761029.83806
  23134852.50206   1361657.55706   1061023.87809  23134721.04706  23134725.79006
  23520611.32506    417545.02406    325370.67809  23520479.25206  23520482.29206
  23523435.42206 -10792498.75006  -8409698.24809  23523303.76806  23523306.85006
  23191098.37906 -13506301.33006 -10524343.94409  23190966.51606  23190971.14506
 92  8 21 22  3 30.0000000  4  1
 -2341103.0000 -4689265.0000  3623535.0000                  APPROX POSITION XYZ
 92  8 21 22  3 30.0000000  0  6 03 17 20 16 26 23
  21459202.42406 -21338965.10606 -16627743.56509  21459071.08206  21459073.39606
  21754953.20406 -18251845.07506 -14222186.64909  21754821.25006  21754823.32406
  23154035.27306   1462463.04906   1139573.49809  23153903.70206  23153908.59006
  23538757.36906    512902.99906    399675.54109  23538625.39706  23538628.57606
  23514341.44906 -10840286.85706  -8446935.63609  23514209.89606  23514212.94806
  23175141.63106 -13590154.80106 -10589684.15609  23175009.62506  23175014.30806
 92  8 21 22  4  0.0000000  0  6 03 17 20 16 26 23
  21452729.82706 -21372979.93106 -16654248.60509  21452598.26306  21452600.56006
  21748788.11506 -18284242.71106 -14247431.52609  21748656.19106  21748658.28106
  23173262.75006   1563502.94506   1218305.77209  23173131.15306  23173135.90606
  23556947.77706    608494.70006    474162.54309  23556815.98306  23556819.05506
  23505321.10306 -10887687.19706  -8483870.87009  23505189.89206  23505192.99106
  23159241.42706 -13673707.46806 -10654789.98009  23159109.78006  23159114.45806
 92  8 21 22  4 30.0000000  0  6 03 17 20 16 26 23
  21446308.78906 -21406721.85406 -16680540.99309  21446177.36106  21446179.68906
  21742664.71006 -18316420.91406 -14272505.41609  21742532.83106  21742534.98606
  23192536.11906   1664783.93506   1297225.91509  23192404.37106  23192409.22206
  23575185.29506    704334.13406    548842.56309  23575053.60706  23575056.77806
  23496380.21806 -10934671.98306  -8520482.28309  23496248.88006  23496252.09306
  23143399.53206 -13756958.83306 -10719661.03209  23143267.44906  23143272.09406
 92  8 21 22  5  0.0000000  0  6 03 17 20 16 26 23
  21439940.56306 -21440187.53206 -16706618.12909  21439809.05906  21439811.34106
  21736585.67606 -18348365.24206 -14297397.06209  21736453.95906  21736456.10906
  23211854.64906   1766304.12906   1376332.45109  23211723.06906  23211727.87306
  23593472.53906    800430.79706    623723.04109  23593340.42506  23593343.39806
  23487517.79506 -10981246.75806  -8556774.21109  23487385.99006  23487389.06306
  23127612.05306 -13839921.94606 -10784307.46509  23127480.19706  23127484.60106
 92  8 21 22  5 30.0000000  0  6 03 17 20 16 26 23
  21433625.26906 -21473373.80306 -16732477.54709  21433493.88306  21433496.22506
  21730553.96706 -18380062.20506 -14322095.95509  21730422.23806  21730424.39206
  23231218.62806   1868061.54806   1455623.83909  23231086.89406  23231091.86306
  23611807.40506    896782.54306    698802.26409  23611675.48706  23611678.65606
  23478730.99506 -11027419.88506  -8592753.16909  23478599.42506  23478602.40906
  23111881.09106 -13922588.30106 -10848722.67809  23111749.16206  23111753.50806
 92  8 21 22  6  0.0000000  0  6 03 17 20 16 26 23
  21427365.81106 -21506266.59006 -16758108.27709  21427234.58806  21427236.91306
  21724572.38906 -18411495.71706 -14346589.56509  21724440.63706  21724442.73106
  23250629.17506   1970064.93806   1535106.87309  23250497.45206  23250502.66206
  23630192.17406    993394.66206    774084.39109  23630060.17106  23630063.35806
  23470021.09706 -11073190.93206  -8628418.81809  23469889.43806  23469892.48306
  23096206.59006 -14004959.37906 -10912907.79709  23096074.43406  23096078.77306
 92  8 21 22  6 30.0000000  0  6 03 17 20 16 26 23
  21421164.18806 -21538856.68506 -16783503.13909  21421032.89506  21421035.23106
  21718641.82706 -18442661.39206 -14370874.47009  21718509.92906  21718511.97806
  23270087.72106   2072318.93406   1614785.19309  23269956.03506  23269960.99206
  23648628.19806   1090273.32106    849574.21809  23648495.80006  23648498.68506
  23461383.65006 -11118579.35806  -8663786.32609  23461252.14406  23461255.10406
  23080587.10206 -14087037.26306 -10976864.45809  23080455.26106  23080459.66406
 92  8 21 22  7  0.0000000  0  6 03 17 20 16 26 23
  21415022.38506 -21571131.71606 -16808652.50009  21414891.13306  21414893.45806
  21712765.65206 -18473541.54106 -14394936.88709  21712633.66706  21712635.72906
  23289594.98906   2174829.87806   1694663.73909  23289463.26506  23289468.40006
  23667116.52506   1187431.41906    925281.78409  23666984.26306  23666987.21206
  23452818.05506 -11163592.19206  -8698861.16409  23452686.39906  23452689.29306
  23065029.70306 -14168792.88406 -11040569.98109  23064897.62706  23064901.88306
 92  8 21 22  7 30.0000000  0  6 03 17 20 16 26 23
  21408941.13406 -21603088.60106 -16833553.95009  21408809.91006  21408812.26606
  21706940.36606 -18504152.04306 -14418789.18509  21706808.60106  21706810.62906
  23309150.51006   2277595.33606   1774740.59209  23309018.85006  23309024.21306
  23685657.58106   1284866.28006   1001205.01809  23685525.59206  23685528.52206
  23444325.92406 -11208220.20806  -8733636.14809  23444194.06406  23444196.94506
  23049533.62306 -14250223.92006 -11104022.60409  23049401.69806  23049405.82906
 92  8 21 22  8  0.0000000  0  6 03 17 20 16 26 23
  21402919.71006 -21634731.69406 -16858210.88509  21402788.39106  21402790.73906
  21701164.22006 -18534506.17606 -14442441.71209  21701032.44706  21701034.50806
  23328752.84906   2380605.79106   1855008.34209  23328621.40006  23328626.52606
  23704249.65506   1382566.70006   1077335.16309  23704117.45906  23704120.62706
  23435906.04506 -11252464.06806  -8768111.78509  23435774.64106  23435777.64206
  23034095.50806 -14331352.24806 -11167239.35409  23033963.59406  23033967.48006
 92  8 21 22  8 30.0000000  0  6 03 17 20 16 26 23
  21396954.19306 -21666080.38306 -16882638.41409  21396822.91706  21396825.26806
  21695433.45106 -18564621.41706 -14465908.08809  21695301.65306  21695303.75406
  23348397.36506   2483837.06806   1935448.18409  23348265.68406  23348270.75406
  23722887.55206   1480510.59106   1153655.03509  23722755.40206  23722758.60006
  23427558.23906 -11296329.69406  -8802292.69809  23427427.16006  23427430.09406
  23018713.47506 -14412185.03306 -11230225.80909  23018581.59706  23018585.43206
 92  8 21 22  9  0.0000000  0  6 03 17 20 16 26 23
  21391040.66306 -21697156.53506 -16906853.57809  21390909.31306  21390911.65906
  21689741.83606 -18594530.43406 -14489213.76809  21689610.10906  21689612.22506
  23368078.62406   2587261.62106   2016038.62409  23367946.90306  23367951.93006
  23741564.96606   1578661.42106   1230136.15809  23741432.85806  23741436.29106
  23419285.11606 -11339809.30806  -8836172.82009  23419153.19806  23419156.17306
  23003384.78506 -14492736.34506 -11292992.94009  23003252.92606  23003256.97906
 92  8 21 22  9 30.0000000  0  6 03 17 20 16 26 23
  21385176.22306 -21727973.46106 -16930866.74909  21385045.02706  21385047.35706
  21684085.59806 -18624253.80906 -14512374.79109  21683953.87106  21683955.98106
  23387792.62006   2690860.90306   2096765.21709  23387661.10806  23387666.44106
  23760275.57906   1676987.36906   1306753.73009  23760143.71806  23760146.84206
  23411085.86306 -11382893.51306  -8869744.82509  23410954.44506  23410957.39706
  22988104.57506 -14573033.61306 -11355562.09909  22987972.66106  22987976.90506
 92  8 21 22 10  0.0000000  0  6 03 17 20 16 26 23
  21379360.47406 -21758536.40606 -16954682.01309  21379229.06006  21379231.44006
  21678464.62506 -18653792.54306 -14535391.93409  21678332.75206  21678334.88506
  23407538.16106   2794624.34606   2177619.71309  23407406.67106  23407412.04606
  23779017.09706   1775473.12306   1383495.84609  23778884.95106  23778888.59106
  23402962.04106 -11425585.20006  -8903010.97209  23402830.37106  23402833.40606
  22972875.51406 -14653063.06306 -11417922.55509  22972743.56406  22972747.85106
 92  8 21 22 10 30.0000000  0  6 03 17 20 16 26 23
  21373591.79206 -21788850.68606 -16978303.51409  21373460.44806  21373462.82406
  21672876.19906 -18683159.28306 -14558275.05809  21672744.43806  21672746.52306
  23427313.07606   2898541.27606   2258593.81809  23427181.53606  23427186.75906
  23797787.82206   1874114.83306   1460359.45009  23797655.83906  23797659.26506
  23394912.83506 -11467883.03906  -8935970.22709  23394781.34806  23394784.30706
  22957701.94706 -14732801.10406 -11480055.94909  22957569.83706  22957574.00006
 92  8 21 22 11  0.0000000  0  6 03 17 20 16 26 23
  21367870.12606 -21818918.54106 -17001732.99709  21367738.76806  21367741.10706
  21667319.76006 -18712358.83906 -14581027.91109  21667187.90106  21667189.98506
  23447115.95706   3002604.16206   2339681.66909  23446984.30106  23446989.48106
  23816588.57606   1972910.92806   1537343.38509  23816456.40306  23816459.55606
  23386934.82906 -11509806.65406  -8968637.88909  23386803.48406  23386806.29706
  22942582.13906 -14812255.93006 -11541968.65709  22942450.08406  22942453.99006
 92  8 21 22 11 30.0000000  0  6 03 17 20 16 26 23
  21362195.57206 -21848738.52106 -17024969.33109  21362064.20206  21362066.55006
  21661796.54006 -18741383.88206 -14603644.78509  21661664.63806  21661666.61506
  23466945.28906   3106809.56806   2420880.55709  23466813.88506  23466819.28306
  23835419.15806   2071869.42406   1614453.83309  23835287.36306  23835290.80606
  23379023.95806 -11551380.63506  -9001033.10809  23378892.14506  23378895.00706
  22927515.46606 -14891429.30906 -11603662.05809  22927383.67006  22927387.63206
 92  8 21 22 12  0.0000000  0  6 03 17 20 16 26 23
  21356568.40406 -21878309.55106 -17048011.68009  21356437.00306  21356439.36806
  21656308.47006 -18770223.31706 -14626117.03109  21656176.66506  21656178.65006
  23486801.53606   3211152.83206   2502186.86609  23486669.80506  23486675.20906
  23854283.59306   2170998.24106   1691697.04409  23854151.30606  23854154.22506
  23371177.33906 -11592614.34606  -9033163.18609  23371045.47506  23371048.40206
  22912503.88206 -14970315.30006 -11665131.52709  22912372.11106  22912375.98706
 92  8 21 22 12 30.0000000  0  6 03 17 20 16 26 23
  21350990.21806 -21907622.74006 -17070853.11009  21350858.87906  21350861.18506
  21650858.33406 -18798863.77106 -14648434.22809  21650726.49306  21650728.47906
  23506684.34606   3315637.60006   2583603.44209  23506552.79706  23506558.04806
  23873179.19306   2270298.34206   1769073.66109  23873047.23306  23873050.85506
  23363396.28206 -11633502.57706  -9065024.05809  23363264.82906  23363267.62306
  22897545.08106 -15048924.41906 -11726385.24109  22897413.16306  22897417.01506
 92  8 21 22 13  0.0000000  0  7 03 17 20 16 26 23 21
  21345463.78606 -21936663.87706 -17093482.54909  21345332.49906  21345334.80706
  21645449.46506 -18827287.82006 -14670582.80209  21645317.57606  21645319.55906
  23526595.94906   3420272.95806   2665137.37709  23526464.44306  23526469.59406
  23892108.31706   2369772.18606   1846585.73209  23891976.53506  23891979.45706
  23355682.01506 -11674042.03706  -9096613.15809  23355550.24206  23355553.04406
  22882636.35906 -15127270.64206 -11787434.11309  22882504.27206  22882508.08106
  26447978.60516        -0.28216         0.40519  26447846.51716  26447861.39216
 92  8 21 22 13 30.0000000  0  7 03 17 20 16 26 23 21
  21339992.66406 -21965415.22506 -17115886.17609  21339861.28706  21339863.61906
  21640083.34106 -18855486.77506 -14692555.98209  21639951.48106  21639953.40206
  23546538.61106   3525070.98406   2746798.05509  23546406.87106  23546412.35006
  23911072.58206   2469428.01206   1924239.54809  23910940.63506  23910944.11306
  23348041.38106 -11714193.88206  -9127900.22409  23347909.57206  23347912.29806
  22867781.07606 -15205335.07906 -11848263.40409  22867648.98606  22867652.74406
  26429077.17906    -99326.25006    -77396.24909  26428945.29506  26428959.84506
 92  8 21 22 14  0.0000000  0  7 03 17 20 16 26 23 21
  21334579.13906 -21993864.03106 -17138054.05409  21334447.66306  21334449.95106
  21634760.79306 -18883457.06006 -14714350.97909  21634628.90906  21634630.85306
  23566513.48006   3630039.43406   2828591.52009  23566381.83006  23566387.20906
  23930071.79406   2569272.12706   2002040.11609  23929939.96806  23929943.44606
  23340480.86106 -11753923.79206  -9158858.51409  23340349.21606  23340351.79006
  22852982.75706 -15283099.76406 -11908859.12609  22852850.66406  22852854.42106
  26410179.19606   -198635.07106   -154779.53509  26410047.23906  26410062.05306
 92  8 21 22 14 30.0000000  0  7 03 17 20 16 26 23 21
  21329224.31006 -22022003.15506 -17159980.62009  21329092.95506  21329095.22306
  21629479.35106 -18911210.72306 -14735977.17909  21629347.54006  21629349.47506
  23586521.25206   3735180.33006   2910519.37709  23586389.61806  23586395.06906
  23949108.10706   2669304.87706   2079987.66609  23948976.00706  23948979.35406
  23333001.75806 -11793225.98406  -9189483.51809  23332870.18406  23332872.69806
  22838242.24806 -15360559.91106 -11969217.54509  22838110.43906  22838114.09706
  26391287.07206   -297913.64106   -232139.25209  26391155.01606  26391169.68306
 92  8 21 22 15  0.0000000  0  7 03 17 20 16 26 23 21
  21323927.38306 -22049838.23206 -17181670.26609  21323796.11206  21323798.33506
  21624235.84006 -18938764.79606 -14757447.85609  21624104.12506  21624106.06306
  23606559.71106   3840482.76606   2992573.08909  23606427.97206  23606433.62906
  23968178.44106   2769525.83106   2158081.84209  23968046.88706  23968050.86206
  23325603.13206 -11832105.95606  -9219779.52309  23325471.40706  23325473.93606
  22823560.26906 -15437714.53406 -12029337.90009  22823428.28606  22823431.80406
  26372397.57006   -397174.79506   -309485.40709  26372266.00206  26372280.74906
 92  8 21 22 15 30.0000000  0  7 03 17 20 16 26 23 21
  21318687.82206 -22077373.07506 -17203125.96209  21318556.40406  21318558.60506
  21619029.15406 -18966126.19706 -14778768.39909  21618897.36706  21618899.30406
  23626626.96806   3945937.00206   3074745.08409  23626495.35206  23626500.92606
  23987284.85206   2869923.10706   2236313.46009  23987152.65306  23987155.31206
  23318285.25606 -11870561.81606  -9249745.05409  23318153.47106  23318156.07406
  22808938.79006 -15514549.87206 -12089209.46609  22808806.94506  22808810.37806
  26353512.35606   -496418.01606   -386817.58009  26353380.53406  26353395.12606
 92  8 21 22 16  0.0000000  0  7 03 17 20 16 26 23 21
  21313504.41606 -22104612.61306 -17224351.55209  21313372.85006  21313375.04806
  21613860.33006 -18993289.14106 -14799934.29609  21613728.37606  21613730.36706
  23646721.14606   4051533.39906   3157027.86709  23646589.77706  23646595.51006
  24006419.70306   2970484.09706   2314672.60109  24006288.10206  24006292.10506
  23311042.60906 -11908620.21506  -9279400.87809  23310911.12906  23310913.77206
  22794377.50806 -15591070.58506 -12148835.86809  22794245.52706  22794248.98406
  26334631.26006   -595640.20006   -464133.35109  26334498.94906  26334513.49006
 92  8 21 22 16 30.0000000  0  7 03 17 20 16 26 23 21
  21308376.01306 -22131562.25606 -17245351.25309  21308244.51206  21308246.67706
  21608727.97706 -19020258.60606 -14820949.43009  21608596.29206  21608598.25206
  23666840.89006   4157260.95106   3239412.83309  23666709.04306  23666714.89606
  24025584.42606   3071189.02306   2393143.94509  24025452.18906  24025454.89406
  23303871.96306 -11946303.33206  -9308764.27109  23303740.32406  23303742.86206
  22779874.46106 -15667284.03906 -12208222.85809  22779742.39906  22779746.04506
  26315752.81506   -694845.07006   -541435.60409  26315620.86306  26315635.23806
 92  8 21 22 17  0.0000000  0  7 03 17 20 16 26 23 21
  21303302.19406 -22158224.13706 -17266126.72609  21303170.91106  21303173.12506
  21603631.56206 -19047041.86606 -14841819.47009  21603499.55206  21603501.54506
  23686983.50406   4263112.08006   3321894.09309  23686851.91006  23686857.70606
  24044773.63506   3172032.33406   2471723.09409  24044641.79306  24044645.74306
  23296773.15406 -11983608.53106  -9337833.18909  23296641.32206  23296643.84006
  22765430.13206 -15743189.66806 -12267369.97409  22765297.98706  22765301.52706
  26296877.15406   -794035.77006   -618726.78809  26296745.05506  26296759.72706
 92  8 21 22 17 30.0000000  0  7 03 17 20 16 26 23 21
  21298284.31906 -22184594.30106 -17286674.88709  21298152.80506  21298155.02006
  21598570.18906 -19073639.52306 -14862544.88309  21598438.19306  21598440.17206
  23707149.87906   4369085.80206   3404470.87209  23707018.28006  23707024.15606
  24063989.29406   3273007.56106   2550405.02409  24063857.09406  24063860.29506
  23289748.36606 -12020524.68906  -9366598.95409  23289616.29706  23289619.01406
  22751044.34006 -15818785.26506 -12326275.50209  22750912.45306  22750916.17906
  26278007.80106   -893192.87206   -695991.74709  26277876.08606  26277890.32206
 92  8 21 22 18  0.0000000  0  7 03 17 20 16 26 23 21
  21293321.93306 -22210670.80506 -17306994.22409  21293190.59806  21293192.80406
  21593543.37806 -19100053.29406 -14883127.00709  21593411.77806  21593413.68906
  23727338.68406   4475178.42006   3487140.30009  23727207.22206  23727213.02606
  24083229.76606   3374119.50906   2629193.51709  24083097.92006  24083101.24506
  23282797.50706 -12057048.57906  -9395059.05709  23282665.89906  23282668.58506
  22736716.88206 -15894075.61206 -12384943.17709  22736585.05806  22736588.59706
  26259144.91606   -992318.41706   -773232.10509  26259013.00706  26259027.03806
 92  8 21 22 18 30.0000000  0  7 03 17 20 16 26 23 21
  21288417.08906 -22236445.74206 -17327078.57409  21288285.77606  21288287.95106
  21588550.78606 -19126289.88606 -14903571.06909  21588419.07806  21588420.99506
  23747550.62706   4581392.41806   3569904.31309  23747419.09806  23747424.88606
  24102499.10006   3475378.04606   2708096.21609  24102366.99406  24102370.58506
  23275926.37806 -12093156.91406  -9423195.35009  23275794.61606  23275797.22506
  22722446.79006 -15969066.27406 -12443377.35309  22722314.89506  22722318.33206
  26240290.23906  -1091397.62906   -850436.35909  26240158.38106  26240172.42006
 92  8 21 22 19  0.0000000  0  7 03 17 20 16 26 23 21
  21283569.09906 -22261921.31006 -17346929.65009  21283437.91806  21283440.10106
  21583592.67006 -19152345.20106 -14923873.87509  21583460.94106  21583462.79206
  23767784.66806   4687720.77706   3652757.44009  23767652.88106  23767658.66506
  24121797.40706   3576791.88306   2787119.93009  24121665.31206  24121668.28906
  23269136.19106 -12128838.87506  -9450999.40809  23269004.58606  23269006.98006
  22708230.54606 -16043774.20406 -12501591.20009  22708098.39806  22708101.74806
  26221444.56206  -1190429.06906   -927603.36409  26221313.04706  26221327.22906
 92  8 21 22 19 30.0000000  0  7 03 17 20 16 26 23 21
  21278777.42806 -22287102.39606 -17366551.26009  21278646.12106  21278648.34106
  21578671.89706 -19178204.28106 -14944023.77509  21578540.11006  21578541.91906
  23788037.92206   4794152.80006   3735691.34409  23787906.27506  23787912.08706
  24141124.09006   3678352.53106   2866258.07809  24140991.92806  24140995.60606
  23262424.87606 -12164106.44206  -9478480.57009  23262293.35806  23262295.70806
  22694064.65606 -16118214.74006 -12559596.68809  22693932.68206  22693936.23306
  26202606.81606  -1289421.66506  -1004740.07909  26202475.10506  26202489.06306
 92  8 21 22 20  0.0000000  0  7 03 17 20 16 26 23 21
  21274040.32506 -22311996.84606 -17385949.51509  21273908.85706  21273911.04506
  21573790.21806 -19203857.57106 -14964013.31609  21573658.42806  21573660.26306
  23808308.35506   4900675.43506   3818695.85609  23808176.96306  23808182.86406
  24160476.00506   3780049.49606   2945502.36609  24160344.09806  24160347.33306
  23255790.12906 -12198973.73806  -9505649.83409  23255658.33906  23255660.80306
  22679946.15906 -16192407.51306 -12617409.12509  22679814.18106  22679817.60306
  26183772.16706  -1388398.49506  -1081864.51509  26183640.27206  26183653.92406
 92  8 21 22 20 30.0000000  0  7 03 23 20 16 26 17 21
  21269358.27006 -22336600.47306 -17405121.15609  21269226.94906  21269229.10806
  22665875.99906 -16266346.49406 -12675023.78909  22665743.93906  22665747.27806
  23828596.28606   5007287.87206   3901770.34209  23828464.79506  23828470.76406
  24179853.92006   3881880.68906   3024851.35209  24179721.98106  24179725.24506
  23249231.62206 -12233437.14406  -9532504.37509  23249100.16106  23249102.59806
  21568947.85606 -19229303.36706 -14983841.16909  21568816.16606  21568818.09306
  26164937.65706  -1487371.39206  -1158985.86909  26164805.96106  26164819.76006
 92  8 21 22 21  0.0000000  0  7 03 23 20 16 26 17 21
  21264733.59406 -22360904.38706 -17424059.24909  21264602.04906  21264604.19406
  22651860.18006 -16339998.03106 -12732414.48209  22651728.36506  22651731.63606
  23848902.07706   5113993.45006   3984917.38509  23848770.22006  23848776.31406
  24199256.49106   3983842.97706   3104302.37509  24199124.69006  24199128.31606
  23242750.43906 -12267495.81506  -9559043.53909  23242618.89006  23242621.42206
  21564148.65106 -19254523.63206 -15003493.28409  21564016.91306  21564018.76006
  26146101.72806  -1586353.17106  -1236114.13909  26145970.07206  26145983.71406
 92  8 21 22 21 30.0000000  0  7 03 23 20 16 26 17 21
  21260167.31106 -22384900.18506 -17442757.25409  21260035.79006  21260037.93306
  22637905.08006 -16413331.96906 -12789557.68709  22637773.21006  22637776.53406
  23869225.49906   5220795.43206   4068139.56309  23869094.16806  23869100.03306
  24218680.81506   4085917.17606   3183840.69209  24218548.90406  24218551.80206
  23236344.91906 -12301157.05806  -9585273.01509  23236213.36406  23236215.82806
  21559390.81906 -19279526.65306 -15022976.12009  21559258.92806  21559260.77406
  26127262.84406  -1685351.53706  -1313255.31809  26127130.85706  26127144.53106
 92  8 21 22 22  0.0000000  0  7 03 23 20 16 26 17 21
  21255663.02106 -22408569.02506 -17461200.48409  21255531.75406  21255533.90806
  22624017.28706 -16486312.65706 -12846425.63809  22623885.43206  22623888.74206
  23889570.10806   5327707.02606   4151447.16109  23889438.68806  23889444.86606
  24238126.77406   4188107.91706   3263469.79109  24237995.14506  24237998.72106
  23230019.00706 -12334398.91406  -9611175.69509  23229887.66506  23229890.02106
  21554672.77006 -19304319.15406 -15042294.91309  21554541.05206  21554542.88206
  26108424.86206  -1784346.06706  -1390393.47309  26108292.39706  26108306.10706
 92  8 21 22 22 30.0000000  0  7 03 26 20 16 23 17 21
  21251223.36306 -22431900.22806 -17479380.62309  21251091.97106  21251094.10906
  23223776.04006 -12367208.22506  -9636741.32509  23223644.14206  23223646.39306
  23909936.91906   5434734.09306   4234844.71709  23909805.54506  23909811.67006
  24257597.61606   4290425.87806   3343198.01909  24257465.76206  24257469.08206
  22610202.49406 -16558910.51406 -12902995.27109  22610070.49406  22610073.78806
  21549993.86606 -19328907.01306 -15061454.24509  21549862.12106  21549863.96806
  26089590.92206  -1883317.15006  -1467513.38309  26089458.58706  26089472.19206
 92  8 21 22 23  0.0000000  0  7 03 26 20 16 23 17 21
  21246848.00606 -22454893.74106 -17497297.62909  21246716.41506  21246718.55106
  23217614.08406 -12399587.18206  -9661971.61609  23217482.71106  23217484.96606
  23930324.94606   5541871.57606   4318328.32409  23930193.26306  23930199.39706
  24277090.96706   4392864.23706   3423020.07309  24276959.07306  24276962.34006
  22596458.08606 -16631136.89906 -12959275.44709  22596326.07206  22596329.45706
  21545352.34106 -19353299.25106 -15080461.14509  21545220.38706  21545222.23406
  26070765.64306  -1982242.22806  -1544597.43509  26070633.48206  26070647.09106
 92  8 21 22 23 30.0000000  0  7 03 26 20 16 23 17 21
  21242535.92106 -22477552.95806 -17514954.14709  21242404.44706  21242406.67006
  23211535.83406 -12431528.84906  -9686861.15909  23211404.27106  23211406.63806
  23950731.78006   5649110.43506   4401890.92709  23950600.30506  23950606.43706
  24296608.62306   4495427.60606   3502939.55109  24296476.44406  24296480.21106
  22582779.19406 -16703019.26606 -13015287.55809  22582647.26106  22582650.52706
  21540745.17406 -19377510.00106 -15099326.62309  21540613.22806  21540615.07606
  26051951.38506  -2081109.01606  -1621636.10509  26051819.77806  26051832.85106
 92  8 21 22 24  0.0000000  0  7 03 26 20 16 23 17 21
  21238285.94506 -22499885.96106 -17532356.47209  21238154.60206  21238156.84006
  23205541.81306 -12463026.51006  -9711404.72109  23205410.38506  23205412.79406
  23971155.43706   5756436.83606   4485521.74209  23971024.03706  23971030.13906
  24316152.63106   4598133.69906   3582970.19709  24316020.64206  24316023.94606
  22569159.85606 -16774588.96106 -13071056.02709  22569027.89506  22569031.05306
  21536173.48606 -19401533.08206 -15118045.86709  21536041.75506  21536043.56506
  26033148.04006  -2179921.16106  -1698632.23209  26033016.24306  26033029.20006
 92  8 21 22 24 30.0000000  0  7 03 26 23 20 16 17 21
  21234097.26906 -22521897.73606 -17549508.49109  21233965.91206  21233968.14006
  23199631.35006 -12494085.97106  -9735606.82609  23199499.78106  23199502.19706
  22555594.40206 -16845875.70606 -13126604.01609  22555462.47806  22555465.53906
  23991594.09506   5863841.51606   4569213.56409  23991462.61906  23991468.57006
  24335725.51906   4700988.46306   3663116.76109  24335593.49006  24335596.69606
  21531638.01806 -19425367.88206 -15136618.39809  21531506.10806  21531507.88606
  26014354.11306  -2278681.37606  -1775587.91809  26014222.58206  26014235.33106
 92  8 21 22 25  0.0000000  0  7 03 23 26 20 16 17 21
  21229964.40806 -22543615.80806 -17566431.65009  21229833.10606  21229835.29806
  22542075.41506 -16916918.92606 -13181962.25309  22541943.31506  22541946.41506
  23193799.01306 -12524735.15806  -9759489.23709  23193667.50706  23193669.80506
  24012040.99406   5971291.22106   4652940.46609  24011909.49006  24011915.70906
  24355318.56006   4803953.57706   3743349.23409  24355186.68106  24355190.60506
  21527132.91806 -19449041.94306 -15155065.68009  21527001.06906  21527002.84106
  25995563.55806  -2377425.12806  -1852530.75609  25995431.93806  25995444.65106
 92  8 21 22 25 30.0000000  0  7 03 26 23 20 16 17 21
  21225883.65406 -22565060.86306 -17583142.06809  21225752.23606  21225754.42706
  23188041.79506 -12554990.29506  -9783064.59809  23187910.08006  23187912.31706
  22528600.29206 -16987730.93606 -13237140.32809  22528468.16306  22528471.25306
  24032491.67506   6078759.80006   4736682.06509  24032360.15906  24032366.47506
  24374927.96506   4906999.00406   3823644.34509  24374795.97806  24374799.05606
  21522656.65506 -19472565.38806 -15173395.60009  21522524.65306  21522526.44706
  25976769.84506  -2476185.34306  -1929486.40009  25976638.14306  25976650.81306
 92  8 21 22 26  0.0000000  0  7 03 23 26 20 16 17 21
  21221851.61806 -22586250.04306 -17599653.10509  21221720.08006  21221722.21206
  22515167.93906 -17058316.38006 -13292141.85709  22515035.98606  22515039.06506
  23182355.25906 -12584874.57706  -9806350.98309  23182223.32006  23182225.47106
  24052941.61106   6186225.03906   4820421.05709  24052810.22306  24052816.56006
  24394545.29706   5010091.39706   3903976.01809  24394413.55806  24394417.52206
  21518205.67706 -19495956.59606 -15191622.48109  21518073.46106  21518075.22306
  25957970.76006  -2574975.05906  -2006464.99709  25957838.84906  25957851.52006
 92  8 21 22 26 30.0000000  0  7 03 23 26 20 16 17 21
  21217868.27606 -22607181.67606 -17615963.45309  21217736.91606  21217739.03606
  22501784.44906 -17128647.28906 -13346945.05209  22501652.43606  22501655.52506
  23176736.60606 -12614397.27806  -9829355.61309  23176605.17706  23176607.44206
  24073390.26706   6293683.35806   4904154.65409  24073258.82106  24073265.26506
  24414169.14006   5113211.24006   3984329.07409  24414036.98106  24414040.51406
  21513776.75406 -19519230.32506 -15209757.82209  21513644.69006  21513646.35606
  25939168.45906  -2673779.35806  -2083454.92909  25939036.62606  25939049.22106
 92  8 21 22 27  0.0000000  0  7 03 23 26 20 16 17 21
  21213939.58306 -22627827.01206 -17632050.71209  21213808.20906  21213810.37506
  22488458.86406 -17198672.57106 -13401510.09309  22488326.91306  22488330.09906
  23171193.28706 -12643527.10206  -9852054.10009  23171061.78006  23171064.09906
  24093842.44206   6401158.48906   4987901.35809  24093710.95406  24093717.28306
  24433799.90206   5216376.09206   4064717.24709  24433667.99806  24433671.92906
  21509376.25306 -19542354.04806 -15227776.27609  21509244.32306  21509245.96806
  25920367.74806  -2772575.22006  -2160438.29509  25920236.15906  25920248.57706
 92  8 21 22 27 30.0000000  0  7 03 23 26 20 16 17 21
  21210071.47506 -22648153.52006 -17647889.53409  21209940.17606  21209942.34706
  22475199.21306 -17268353.62206 -13455806.90409  22475067.06906  22475070.13306
  23165731.55006 -12672228.23306  -9874418.53909  23165600.08406  23165602.34806
  24114303.21106   6508677.48906   5071682.24809  24114171.53506  24114177.73106
  24453447.63006   5319622.70906   4145169.08209  24453315.56806  24453319.45906
  21505010.68806 -19565295.05706 -15245652.35809  21504878.71206  21504880.41806
  25901575.20706  -2871329.21506  -2237389.02209  25901443.42706  25901455.78306
 92  8 21 22 28  0.0000000  0  7 03 26 23 20 16 17 21
  21206270.83606 -22668126.61406 -17663452.96609  21206139.39606  21206141.54106
  23160358.10506 -12700467.95606  -9896423.44309  23160226.30406  23160228.51806
  22462010.97406 -17337656.66506 -13509809.16909  22461879.02506  22461881.97506
  24134777.58706   6616269.93906   5155520.36509  24134645.83306  24134652.20406
  24473116.34206   5422983.10006   4225709.59009  24472984.40506  24472988.31006
  21500683.44006 -19588034.21706 -15263371.15409  21500551.57006  21500553.21306
  25882798.37106  -2970000.30606  -2314275.15709  25882666.56206  25882678.71106
 92  8 21 22 28 30.0000000  0  7 03 23 26 17 20 16 21
  21202541.76306 -22687722.37706 -17678722.37209  21202410.45806  21202412.57106
  22448898.77506 -17406561.31006 -13563501.00109  22448766.88506  22448769.68306
  23155076.19706 -12728225.35806  -9918052.51809  23154944.27806  23154946.50006
  21496399.13606 -19610548.76606 -15280914.92809  21496267.16206  21496268.83806
  24155269.31406   6723954.67706   5239430.38909  24155137.70606  24155144.10706
  24492810.40706   5526475.47106   4306352.91809  24492678.44306  24492682.03906
  25864038.85706  -3068579.28706  -2391089.48209  25863907.25506  25863919.36806
 92  8 21 22 29  0.0000000  0  7 03 26 23 20 16 17 21
  21198888.98106 -22706918.56306 -17693680.41709  21198757.54006  21198759.63806
  23149892.01906 -12755467.86306  -9939280.37709  23149760.08906  23149762.28606
  22435861.11306 -17475074.02906 -13616887.43909  22435729.23206  22435732.04306
  24175781.89106   6831748.46706   5323425.39109  24175650.35006  24175656.75506
  24512532.32306   5630115.01106   4387110.95009  24512400.44706  24512404.32406
  21492160.78206 -19632822.10406 -15298270.75009  21492028.68606  21492030.39106
  25845298.43706  -3167058.69306  -2467826.18609  25845166.81706  25845178.96906
 92  8 21 22 29 30.0000000  0  7 03 26 23 17 20 16 21
  21195315.07906 -22725698.59606 -17708314.18809  21195183.80706  21195185.91906
  23144807.83006 -12782183.35506  -9960097.58009  23144676.29506  23144678.49206
  22422897.18506 -17543200.31606 -13669972.75909  22422765.15206  22422767.95506
  21487970.65406 -19654840.89706 -15315428.22809  21487838.66106  21487840.36406
  24196317.14106   6939662.49706   5407514.06909  24196185.59906  24196192.23306
  24532281.52806   5733897.53506   4467980.38809  24532149.64106  24532153.25206
  25826581.68006  -3265414.37906  -2544466.45809  25826450.00406  25826461.89106
 92  8 21 22 30  0.0000000  0  7 03 26 23 20 16 17 21
  21191822.76206 -22744051.34706 -17722615.00909  21191691.37306  21191693.45706
  23139822.72606 -12808380.26506  -9980510.68709  23139691.08906  23139693.34606
  22410005.88106 -17610943.03306 -13722759.19609  22409874.06906  22409876.90006
  24216876.23306   7047702.96306   5491701.25709  24216745.06406  24216751.74906
  24552057.37106   5837818.33306   4548957.58209  24551925.38206  24551928.67206
  21483830.93106 -19676595.20506 -15332379.61309  21483698.89806  21483700.64506
  25807890.26806  -3363635.92106  -2621002.20809  25807758.49406  25807770.39306
 92  8 21 22 30 30.0000000  0  7 03 26 23 17 20 16 21
  21188410.74206 -22761981.55806 -17736586.57909  21188279.36006  21188281.45406
  23134934.04406 -12834071.75806 -10000529.97009  23134802.17306  23134804.34006
  22397185.49706 -17678314.90006 -13775256.65809  22397053.56506  22397056.42906
  21479742.20206 -19698081.25106 -15349121.96009  21479610.22106  21479611.94306
  24237458.30806   7155859.84606   5575979.18309  24237326.86906  24237333.26506
  24571858.98806   5941878.86206   4630043.66009  24571727.13806  24571730.91906
  25789220.64206  -3461739.49006  -2697446.01509  25789089.32506  25789101.47206
 92  8 21 22 31  0.0000000  0  7 03 26 23 17 20 16 21
  21185076.59706 -22779502.60206 -17750239.31609  21184945.19006  21184947.30706
  23130139.92906 -12859263.35706 -10020159.73209  23130008.33106  23130010.51406
  22384432.32006 -17745332.89206 -13827478.36709  22384300.41306  22384303.31606
  21475702.26306 -19719310.93006 -15365664.54109  21475570.36406  21475572.05306
  24258058.49006   7264114.36506   5660333.20409  24257927.06706  24257933.69606
  24591686.28406   6046069.29806   4711230.94309  24591554.17106  24591557.81506
  25770572.92906  -3559736.33506  -2773806.64909  25770441.10406  25770452.75406
 92  8 21 22 31 30.0000000  0  7 03 26 23 17 20 16 21
  21181818.05706 -22796625.97906 -17763582.18809  21181686.72106  21181688.79906
  23125438.84306 -12883968.91806 -10039410.76009  23125307.01106  23125309.15706
  22371748.40106 -17811986.51306 -13879416.15509  22371616.48206  22371619.35706
  21471711.32106 -19740282.87906 -15382006.29309  21471579.46406  21471581.12706
  24278674.29906   7372450.37506   5744750.70309  24278542.81306  24278549.58606
  24611535.99306   6150381.79906   4792513.37609  24611404.07906  24611407.45206
  25751943.13806  -3657636.81606  -2850092.26809  25751811.08906  25751822.17906
 92  8 21 22 32  0.0000000  0  7 03 26 23 17 20 16 21
  21178633.51406 -22813360.85406 -17776622.33209  21178502.15906  21178504.22906
  23120830.76006 -12908182.75406 -10058278.62209  23120699.17906  23120701.30606
  22359134.87306 -17878270.28206 -13931065.74609  22359002.94506  22359005.76306
  21467764.80006 -19761021.44606 -15398166.18809  21467633.04006  21467634.68406
  24299302.62006   7480853.60906   5829220.57209  24299171.30406  24299178.11706
  24631412.56306   6254832.90806   4873903.77609  24631280.52406  24631284.32006
  25733330.05206  -3755449.17506  -2926309.24009  25733197.77306  25733208.91606
 92  8 21 22 32 30.0000000  0  7 03 26 23 17 20 16 21
  21175520.42206 -22829721.12206 -17789370.57509  21175388.93406  21175390.98106
  23116318.78206 -12931893.36506 -10076754.36509  23116187.09006  23116189.21406
  22346589.50406 -17944196.88706 -13982437.03109  22346457.52806  22346460.26206
  21463859.10706 -19781547.18306 -15414160.24009  21463727.11606  21463728.74506
  24319940.57706   7589304.51006   5913727.58809  24319809.07206  24319815.80806
  24651313.08106   6359411.54506   4955393.59109  24651181.11406  24651184.82006
  25714731.30506  -3853182.57006  -3002464.66809  25714599.35206  25714610.57606
 92  8 21 22 33  0.0000000  0  7 03 26 23 17 20 16 21
  21172476.21006 -22845718.18806 -17801835.80509  21172344.75206  21172346.80206
  23111901.36506 -12955107.32806 -10094843.11109  23111769.59706  23111771.73506
  22334110.42606 -18009774.08206 -14033536.04409  22333978.48906  22333981.22006
  21459989.95906 -19801879.36606 -15430003.46909  21459857.96206  21459859.57006
  24340584.28506   7697787.13706   5998259.34009  24340452.74506  24340459.34606
  24671233.93206   6464097.16106   5036966.70809  24671102.11706  24671105.94906
  25696148.34706  -3950834.39706  -3078556.52309  25696016.34406  25696027.55506
 92  8 21 22 33 30.0000000  4  1
 -2341103.0000 -4689265.0000  3623535.0000                  APPROX POSITION XYZ
